[[{"header":{"parameterUnit":"m.s-1","parameterCategory":1,"la1":30.6,"la2":29.2853,"lo1":-89.7004,"lo2":-87.6739,"dy":0.0162,"dx":0.0183,"nx":112,"ny":82,"refTime":"2024-05-18T06:00:00:Z","depth":0,"parameterNumber":2,"parameterNumberName":"U-component_of_WINDS"},"data":[0.0,0.0,0.0,0.0,0.0,0.0,0.0,0.0,0.0,0.0,0.0,0.0,0.0,0.0,0.0,0.0,0.0,0.0,0.0,0.0,0.0,0.0,0.0,0.0,0.0,0.0,0.0,0.0,0.0,0.0,0.0,0.0,0.0,0.0,0.0,0.0,0.0,0.0,0.0,0.0,0.0,0.0,0.0,0.0,0.0,0.0,0.0,0.0,0.0,0.0,0.0,0.0,0.0,0.0,0.0,0.0,0.0,0.0,0.0,0.0,0.0,0.0,0.0,0.0,0.0,0.0,0.0,0.0,0.0,0.0,0.0,0.0,0.0,0.0,0.0,0.0,0.0,0.0,0.0,0.0,0.0,0.0,0.0,0.0,0.0,0.0,0.0,0.0,0.0,0.0,0.0,-3.9071,-4.3572,-4.5957,-4.5078,-4.3965,-4.0859,-3.5059,0.0,0.0,0.0,0.0,0.0,0.0,0.0,0.0,0.0,0.0,0.0,0.0,0.0,0.0,0.0,0.0,0.0,0.0,0.0,0.0,0.0,0.0,0.0,0.0,0.0,0.0,0.0,0.0,0.0,0.0,0.0,0.0,0.0,0.0,0.0,0.0,0.0,0.0,0.0,0.0,0.0,0.0,0.0,0.0,0.0,0.0,0.0,0.0,0.0,0.0,0.0,0.0,0.0,0.0,0.0,0.0,0.0,0.0,0.0,0.0,0.0,0.0,0.0,0.0,0.0,0.0,0.0,0.0,0.0,0.0,0.0,0.0,0.0,0.0,0.0,0.0,0.0,0.0,0.0,0.0,0.0,0.0,0.0,0.0,0.0,0.0,0.0,0.0,0.0,0.0,0.0,0.0,0.0,0.0,0.0,0.0,0.0,0.0,0.0,0.0,0.0,0.0,0.0,0.0,-3.6865,-4.3339,-4.539,-4.5957,-4.5078,-4.2891,-3.9609,-3.498,0.0,0.0,0.0,0.0,0.0,0.0,0.0,0.0,0.0,0.0,0.0,0.0,0.0,0.0,0.0,0.0,0.0,0.0,0.0,0.0,0.0,0.0,0.0,0.0,0.0,0.0,0.0,0.0,0.0,0.0,0.0,0.0,0.0,0.0,0.0,0.0,0.0,0.0,0.0,0.0,0.0,0.0,0.0,0.0,0.0,0.0,0.0,0.0,0.0,0.0,0.0,0.0,0.0,0.0,0.0,0.0,0.0,0.0,0.0,0.0,0.0,0.0,0.0,0.0,0.0,0.0,0.0,0.0,0.0,0.0,0.0,0.0,0.0,0.0,0.0,0.0,0.0,0.0,0.0,0.0,0.0,0.0,0.0,0.0,0.0,0.0,0.0,0.0,0.0,0.0,0.0,0.0,0.0,0.0,0.0,0.0,0.0,0.0,0.0,0.0,0.0,0.0,0.0,-3.5015,-3.8885,-4.4414,-4.5781,-4.5957,-4.5078,-4.2656,-3.9336,-3.498,-3.2598,0.0,0.0,0.0,0.0,0.0,0.0,0.0,0.0,0.0,0.0,0.0,0.0,0.0,0.0,0.0,0.0,0.0,0.0,0.0,0.0,0.0,0.0,0.0,0.0,0.0,0.0,0.0,0.0,0.0,0.0,0.0,0.0,0.0,0.0,0.0,0.0,0.0,0.0,0.0,0.0,0.0,0.0,0.0,0.0,0.0,0.0,0.0,0.0,0.0,0.0,0.0,0.0,0.0,0.0,0.0,0.0,0.0,0.0,0.0,0.0,0.0,0.0,0.0,0.0,0.0,0.0,0.0,0.0,0.0,0.0,0.0,0.0,0.0,0.0,0.0,0.0,0.0,0.0,0.0,0.0,0.0,0.0,0.0,0.0,0.0,0.0,0.0,0.0,0.0,0.0,0.0,0.0,0.0,0.0,0.0,0.0,0.0,0.0,0.0,0.0,0.0,0.0,-3.8281,-4.0781,-4.4863,-4.5898,-4.5859,-4.4785,-4.2168,-3.8809,-3.4668,-3.0801,0.0,0.0,0.0,0.0,0.0,0.0,0.0,0.0,0.0,0.0,0.0,0.0,0.0,0.0,0.0,0.0,0.0,0.0,0.0,0.0,0.0,0.0,0.0,0.0,0.0,0.0,0.0,0.0,0.0,0.0,0.0,0.0,0.0,0.0,0.0,0.0,0.0,0.0,0.0,0.0,0.0,0.0,0.0,0.0,0.0,0.0,0.0,0.0,0.0,0.0,0.0,0.0,0.0,0.0,0.0,0.0,0.0,0.0,0.0,0.0,0.0,0.0,0.0,0.0,0.0,0.0,0.0,0.0,0.0,0.0,0.0,0.0,0.0,0.0,0.0,0.0,0.0,0.0,0.0,0.0,0.0,0.0,0.0,0.0,0.0,0.0,0.0,0.0,0.0,0.0,0.0,0.0,0.0,0.0,0.0,0.0,0.0,0.0,0.0,0.0,0.0,0.0,-3.8965,-4.2344,-4.584,-4.6269,-4.5625,-4.3926,-4.0703,-3.7266,-3.3711,-2.8769,0.0,0.0,0.0,0.0,0.0,0.0,0.0,0.0,0.0,0.0,0.0,0.0,0.0,0.0,0.0,0.0,0.0,0.0,0.0,0.0,0.0,0.0,0.0,0.0,0.0,0.0,0.0,0.0,0.0,0.0,0.0,0.0,0.0,0.0,0.0,0.0,0.0,0.0,0.0,0.0,0.0,0.0,0.0,0.0,0.0,0.0,0.0,0.0,0.0,0.0,0.0,0.0,0.0,0.0,0.0,0.0,0.0,0.0,0.0,0.0,0.0,0.0,0.0,0.0,0.0,0.0,0.0,0.0,0.0,0.0,0.0,0.0,0.0,0.0,0.0,0.0,0.0,0.0,0.0,0.0,0.0,0.0,0.0,0.0,0.0,0.0,0.0,0.0,0.0,0.0,0.0,0.0,0.0,0.0,0.0,0.0,0.0,0.0,0.0,0.0,0.0,0.0,-3.8086,-4.1308,0.0,-4.6308,-4.5586,-4.3848,-4.1562,-3.8262,-3.3691,0.0,0.0,0.0,0.0,0.0,0.0,0.0,0.0,0.0,0.0,0.0,0.0,0.0,0.0,0.0,0.0,0.0,0.0,0.0,0.0,0.0,0.0,0.0,0.0,0.0,0.0,0.0,0.0,0.0,0.0,0.0,0.0,0.0,0.0,0.0,0.0,0.0,0.0,0.0,0.0,0.0,0.0,0.0,0.0,0.0,0.0,0.0,0.0,0.0,0.0,0.0,0.0,0.0,0.0,0.0,0.0,0.0,0.0,0.0,0.0,0.0,0.0,0.0,0.0,0.0,0.0,0.0,0.0,0.0,0.0,0.0,0.0,0.0,0.0,0.0,0.0,0.0,0.0,0.0,0.0,0.0,0.0,0.0,0.0,0.0,0.0,0.0,0.0,0.0,0.0,0.0,0.0,0.0,0.0,0.0,0.0,0.0,0.0,0.0,0.0,0.0,0.0,-3.4805,-3.7832,-4.1074,0.0,-4.5898,-4.5293,-4.3828,-4.1152,-3.7793,-3.3652,0.0,0.0,0.0,0.0,0.0,0.0,0.0,0.0,0.0,0.0,0.0,0.0,0.0,0.0,0.0,0.0,0.0,0.0,0.0,0.0,0.0,0.0,0.0,0.0,0.0,0.0,0.0,0.0,0.0,0.0,0.0,0.0,0.0,0.0,0.0,0.0,0.0,0.0,0.0,0.0,0.0,0.0,0.0,0.0,0.0,0.0,0.0,0.0,0.0,0.0,0.0,0.0,0.0,0.0,0.0,0.0,0.0,0.0,0.0,0.0,0.0,0.0,0.0,0.0,0.0,0.0,0.0,0.0,0.0,0.0,0.0,0.0,0.0,0.0,0.0,0.0,0.0,0.0,0.0,0.0,0.0,0.0,0.0,0.0,0.0,0.0,0.0,0.0,0.0,0.0,0.0,0.0,0.0,0.0,0.0,0.0,0.0,0.0,0.0,0.0,0.0,0.0,-3.4141,-3.8496,-4.2187,-4.4726,-4.5,-4.4648,-4.3769,-3.8984,-3.5273,0.0,0.0,0.0,0.0,0.0,0.0,0.0,0.0,0.0,0.0,0.0,0.0,0.0,0.0,0.0,0.0,0.0,0.0,0.0,0.0,0.0,0.0,0.0,0.0,0.0,0.0,0.0,0.0,0.0,0.0,0.0,0.0,0.0,0.0,0.0,0.0,0.0,0.0,0.0,0.0,0.0,0.0,0.0,0.0,0.0,0.0,0.0,0.0,0.0,0.0,0.0,0.0,0.0,0.0,0.0,0.0,0.0,0.0,0.0,0.0,0.0,0.0,0.0,0.0,0.0,0.0,0.0,0.0,0.0,0.0,0.0,0.0,0.0,0.0,0.0,0.0,0.0,0.0,0.0,0.0,0.0,0.0,0.0,0.0,0.0,0.0,0.0,0.0,0.0,0.0,0.0,0.0,0.0,0.0,0.0,0.0,0.0,0.0,0.0,0.0,0.0,0.0,0.0,0.0,-3.8496,-4.2187,-4.4726,-4.5,-4.4648,-4.3769,-4.0098,-3.6562,-3.3594,0.0,0.0,0.0,0.0,0.0,0.0,0.0,0.0,0.0,0.0,0.0,0.0,0.0,0.0,0.0,0.0,0.0,0.0,0.0,0.0,0.0,0.0,0.0,0.0,0.0,0.0,0.0,0.0,0.0,0.0,0.0,0.0,0.0,0.0,0.0,0.0,0.0,0.0,0.0,0.0,0.0,0.0,0.0,0.0,0.0,0.0,0.0,0.0,0.0,0.0,0.0,0.0,0.0,0.0,0.0,0.0,0.0,0.0,0.0,0.0,0.0,0.0,0.0,0.0,0.0,0.0,0.0,0.0,0.0,0.0,0.0,0.0,0.0,0.0,0.0,0.0,0.0,0.0,0.0,0.0,0.0,0.0,0.0,0.0,0.0,0.0,0.0,0.0,0.0,0.0,0.0,0.0,0.0,0.0,0.0,0.0,0.0,0.0,0.0,0.0,0.0,0.0,-3.3672,-3.7988,-4.1523,-4.373,-4.3965,-4.375,-4.3223,-4.0059,-3.6738,-3.3594,0.0,0.0,0.0,0.0,0.0,0.0,0.0,0.0,0.0,0.0,0.0,0.0,0.0,0.0,0.0,0.0,0.0,0.0,0.0,0.0,0.0,0.0,0.0,0.0,0.0,0.0,0.0,0.0,0.0,0.0,0.0,0.0,0.0,0.0,0.0,0.0,0.0,0.0,0.0,0.0,0.0,0.0,0.0,0.0,0.0,0.0,0.0,0.0,0.0,0.0,0.0,0.0,0.0,0.0,0.0,0.0,0.0,0.0,0.0,0.0,0.0,0.0,0.0,0.0,0.0,0.0,0.0,0.0,0.0,0.0,0.0,0.0,0.0,0.0,0.0,0.0,0.0,0.0,0.0,0.0,0.0,0.0,0.0,0.0,0.0,0.0,0.0,0.0,0.0,0.0,0.0,0.0,0.0,0.0,0.0,0.0,0.0,0.0,0.0,0.0,0.0,0.0,-3.2969,-3.7207,-4.0547,-4.2226,-4.2402,-4.2402,-4.2402,-3.9277,-3.6211,-3.3672,0.0,0.0,0.0,0.0,0.0,0.0,0.0,0.0,0.0,0.0,0.0,0.0,0.0,0.0,0.0,0.0,0.0,0.0,0.0,0.0,0.0,0.0,0.0,0.0,0.0,0.0,0.0,0.0,0.0,0.0,0.0,0.0,0.0,0.0,0.0,0.0,0.0,0.0,0.0,0.0,0.0,0.0,0.0,0.0,0.0,0.0,0.0,0.0,0.0,0.0,0.0,0.0,0.0,0.0,0.0,0.0,0.0,0.0,0.0,0.0,-3.2987,0.0,0.0,0.0,0.0,0.0,0.0,0.0,0.0,0.0,0.0,0.0,0.0,0.0,0.0,0.0,0.0,0.0,0.0,0.0,0.0,0.0,0.0,0.0,0.0,0.0,0.0,0.0,0.0,0.0,0.0,0.0,0.0,0.0,0.0,0.0,0.0,0.0,0.0,0.0,0.0,0.0,-3.2969,-3.7207,-4.0547,-4.2226,-4.2402,-4.2402,-4.2402,-3.9277,-3.6484,-3.4531,0.0,0.0,0.0,0.0,0.0,0.0,0.0,0.0,0.0,0.0,0.0,0.0,0.0,0.0,0.0,0.0,0.0,0.0,0.0,0.0,0.0,0.0,0.0,0.0,0.0,0.0,0.0,0.0,0.0,0.0,0.0,0.0,0.0,0.0,0.0,0.0,0.0,0.0,0.0,0.0,0.0,0.0,0.0,0.0,0.0,0.0,0.0,0.0,0.0,0.0,0.0,0.0,0.0,0.0,0.0,0.0,0.0,0.0,0.0,0.0,0.0,-3.5331,0.0,0.0,0.0,0.0,0.0,0.0,0.0,0.0,0.0,0.0,0.0,0.0,0.0,0.0,0.0,0.0,0.0,0.0,0.0,0.0,0.0,0.0,0.0,0.0,0.0,0.0,0.0,0.0,0.0,0.0,0.0,0.0,0.0,0.0,0.0,0.0,0.0,0.0,0.0,0.0,-3.3574,-3.7109,-3.9922,-4.1641,-4.1816,-4.1816,-4.1816,-3.9434,-3.7187,-3.543,-3.1269,0.0,0.0,0.0,0.0,0.0,0.0,0.0,0.0,0.0,0.0,0.0,0.0,0.0,0.0,0.0,0.0,0.0,0.0,0.0,0.0,0.0,0.0,0.0,0.0,0.0,0.0,0.0,0.0,0.0,0.0,0.0,0.0,0.0,0.0,0.0,0.0,0.0,0.0,0.0,0.0,0.0,0.0,0.0,0.0,0.0,0.0,0.0,0.0,0.0,0.0,0.0,0.0,0.0,0.0,-4.4355,-4.5039,-4.5039,-4.5449,-4.5879,-4.1465,-4.0332,-4.1328,0.0,0.0,0.0,0.0,0.0,0.0,0.0,0.0,0.0,0.0,0.0,0.0,0.0,0.0,0.0,0.0,0.0,0.0,0.0,0.0,0.0,0.0,0.0,0.0,0.0,-3.748,-3.7656,0.0,0.0,0.0,0.0,0.0,0.0,0.0,0.0,0.0,0.0,0.0,0.0,-3.4492,-3.7207,-3.9434,-4.1035,-4.1191,-4.1191,-4.1191,-3.9609,-3.793,-3.6328,-3.3027,-2.9766,0.0,0.0,0.0,0.0,0.0,0.0,0.0,0.0,0.0,0.0,0.0,0.0,0.0,0.0,0.0,0.0,0.0,0.0,0.0,0.0,0.0,0.0,0.0,0.0,0.0,0.0,0.0,0.0,0.0,0.0,0.0,0.0,-3.1333,-3.2141,0.0,0.0,0.0,0.0,0.0,0.0,0.0,0.0,0.0,0.0,0.0,0.0,0.0,0.0,-4.3512,-4.6042,-4.7462,-4.7726,-4.9409,-5.0273,-5.0371,-5.0371,-5.0449,-5.0488,-4.9101,0.0,-4.3203,-4.1172,0.0,0.0,0.0,0.0,0.0,0.0,0.0,0.0,0.0,0.0,0.0,0.0,0.0,0.0,0.0,0.0,0.0,0.0,0.0,0.0,0.0,0.0,-4.0332,-4.0332,-4.0605,-4.043,0.0,-3.5664,-3.25,-3.0586,0.0,0.0,0.0,0.0,0.0,0.0,0.0,0.0,-3.5391,-3.8105,-4.0117,-4.1094,-4.1191,-4.1191,-4.1191,-3.9609,-3.8184,-3.7187,-3.3926,-3.1484,-3.0254,-2.6367,0.0,0.0,0.0,0.0,0.0,0.0,0.0,0.0,0.0,0.0,0.0,0.0,0.0,0.0,0.0,0.0,0.0,0.0,0.0,0.0,0.0,0.0,0.0,0.0,0.0,0.0,0.0,0.0,0.0,-3.1256,-3.341,-3.425,-3.4442,-3.3987,0.0,0.0,0.0,0.0,0.0,0.0,0.0,0.0,0.0,-4.3528,-4.5201,-4.6754,-4.8202,-4.9824,-5.0738,-5.0964,-5.2245,-5.2851,-5.2851,-5.2851,-5.2851,-5.2832,-5.248,-5.0976,-4.8476,-4.4824,-4.2363,-4.0684,0.0,0.0,0.0,0.0,0.0,-3.7891,-3.9824,0.0,0.0,0.0,0.0,0.0,0.0,0.0,0.0,0.0,0.0,0.0,0.0,0.0,0.0,-4.3105,-4.3711,-4.3828,-4.2949,-4.0879,-3.8105,0.0,-3.3555,-3.2187,-2.8516,0.0,0.0,0.0,0.0,0.0,-3.707,-3.8887,-4.0234,-4.1113,-4.1191,-4.1191,-4.1191,-3.9609,-3.8437,-3.8047,-3.4785,-3.25,-3.168,-2.8398,-2.5566,0.0,0.0,0.0,0.0,0.0,0.0,0.0,0.0,0.0,0.0,0.0,0.0,0.0,0.0,0.0,0.0,0.0,0.0,0.0,0.0,0.0,0.0,0.0,0.0,0.0,0.0,0.0,0.0,-3.393,-3.6142,-3.7,-3.8019,-3.7815,0.0,0.0,0.0,0.0,0.0,0.0,-4.2689,-4.4778,-4.6721,-4.8471,-4.9969,-5.1362,-5.265,-5.3551,-5.4086,-5.4293,-5.5,-5.5215,-5.5,-5.5,-5.4883,-5.4648,-5.4433,-5.3965,-5.3027,-4.8496,-4.5996,-4.4824,-4.2695,-4.1348,-4.0723,-4.2031,-4.2246,-4.2207,-4.4531,-4.4902,-4.416,-4.291,0.0,-4.0898,-3.7656,0.0,0.0,0.0,0.0,-3.834,-4.1387,0.0,-4.3457,-4.4961,-4.582,-4.6113,-4.5469,-4.4648,-4.2754,0.0,-3.7637,-3.6348,-3.2266,0.0,0.0,0.0,0.0,-3.623,-3.8613,-3.9687,-4.0488,-4.1133,-4.1191,-4.1113,-4.0898,-3.9473,-3.8496,-3.8281,-3.5195,-3.3125,-3.2539,-3.0019,-2.7519,0.0,0.0,0.0,0.0,0.0,0.0,0.0,0.0,0.0,0.0,0.0,0.0,0.0,0.0,0.0,0.0,0.0,0.0,0.0,0.0,0.0,0.0,0.0,0.0,0.0,0.0,0.0,0.0,0.0,0.0,-4.1385,-4.2912,0.0,0.0,0.0,0.0,-4.2643,-4.5047,-4.7182,-4.8856,-4.9865,-5.1144,-5.2837,-5.3889,-5.5231,-5.6885,-5.8013,-5.858,-5.8585,-5.8823,-5.8496,-5.7695,-5.7695,-5.7246,-5.6426,-5.5586,-5.5215,-5.4961,-5.2207,-5.0117,-4.8535,-4.7598,-4.668,-4.5918,-4.6016,-4.6543,-4.7129,-4.6465,-4.6211,-4.6152,-4.6074,-4.4355,-4.2305,-4.207,-4.0879,0.0,0.0,-4.1484,-4.25,-4.4336,-4.4844,-4.5098,-4.6016,-4.6269,-4.6289,-4.623,-4.5547,-4.4375,0.0,-4.0156,-3.8184,-3.7109,0.0,-3.4844,-3.5625,-3.6562,-3.7812,-3.9609,-4.0605,-4.1152,-4.1191,-4.1191,-4.0859,-4.0039,-3.9121,-3.8242,-3.7422,-3.4863,-3.3379,-3.334,-3.0898,-2.8691,-2.6894,-2.5117,0.0,0.0,0.0,0.0,0.0,0.0,0.0,0.0,0.0,0.0,0.0,0.0,0.0,0.0,0.0,0.0,0.0,0.0,0.0,0.0,0.0,0.0,0.0,0.0,0.0,0.0,0.0,0.0,-4.4143,-4.622,0.0,0.0,-4.6009,-4.6817,-4.7124,-4.951,-5.1221,-5.1818,-5.3683,-5.504,-5.5626,-5.6539,-5.7385,-5.8156,-5.8578,-5.8884,-5.9095,-5.9179,-5.9043,-5.873,-5.873,-5.8262,-5.7422,-5.7109,-5.664,-5.6015,-5.4531,-5.2578,-5.043,-4.9609,-4.873,-4.7969,-4.7969,-4.8164,-4.8398,-4.8086,-4.7617,-4.7031,-4.6484,-4.5293,-4.4062,-4.4062,-4.3262,-4.2539,-4.3398,-4.3848,-4.4355,-4.5527,-4.584,-4.5918,-4.623,-4.6308,-4.6308,-4.6308,-4.6055,-4.5644,-4.5039,-4.3262,-4.1269,-3.9316,-3.8926,-3.8613,-3.7793,-3.8418,-3.9394,-4.0586,-4.1016,-4.1191,-4.1191,-4.1191,-4.0859,-3.9961,-3.9101,-3.7988,-3.6543,-3.4531,-3.3164,-3.2656,-3.0684,-2.9043,-2.7851,-2.6113,-2.3672,0.0,0.0,0.0,0.0,0.0,0.0,0.0,0.0,0.0,0.0,0.0,0.0,0.0,0.0,0.0,0.0,0.0,0.0,0.0,0.0,0.0,0.0,0.0,0.0,0.0,0.0,-4.549,-4.6336,-4.9202,-5.0567,-4.9125,-5.051,-5.1529,-5.1529,-5.3356,-5.4607,-5.4895,-5.6511,-5.755,-5.7819,-5.8475,-5.902,-5.9471,-5.9585,-5.9762,-5.9973,-6.0019,-5.9883,-5.9609,-5.9609,-5.914,-5.832,-5.8027,-5.7578,-5.6973,-5.6094,-5.4531,-5.2598,-5.1484,-5.0683,-5.0156,-4.9844,-4.9746,-4.9707,-4.9433,-4.8769,-4.7891,-4.7012,-4.6348,-4.582,-4.5527,-4.5039,-4.4707,-4.5273,-4.5449,-4.5566,-4.6152,-4.6308,-4.6308,-4.6308,-4.6308,-4.6308,-4.6308,-4.6308,-4.6308,-4.6308,-4.5137,-4.3594,-4.1914,-4.1855,-4.1641,-4.0488,-4.0566,-4.0957,-4.1523,-4.1367,-4.1191,-4.1191,-4.1191,-4.0723,-3.9551,-3.8652,-3.7539,-3.6094,-3.4101,-3.2754,-3.2226,-3.0527,-2.9043,-2.7871,-2.5879,-2.3887,-2.1894,0.0,0.0,0.0,0.0,0.0,0.0,0.0,0.0,0.0,0.0,0.0,0.0,0.0,0.0,0.0,0.0,0.0,0.0,0.0,0.0,0.0,0.0,0.0,-4.1962,-4.4904,-4.7375,-4.8202,-5.2029,-5.3626,-5.1174,-5.3857,-5.578,-5.578,-5.6588,-5.7442,-5.83,-5.8357,-5.8742,-5.9511,-5.9727,-6.0203,-6.0978,-6.1315,-6.1498,-6.1504,-6.1633,-6.125,-6.0449,-6.0449,-6.0,-5.9199,-5.834,-5.7949,-5.7832,-5.6992,-5.6133,-5.5176,-5.3457,-5.2754,-5.2598,-5.1758,-5.1426,-5.1289,-5.0488,-4.9648,-4.8808,-4.793,-4.7617,-4.7441,-4.6601,-4.6328,-4.6308,-4.6308,-4.6308,-4.6308,-4.6308,-4.6308,-4.6308,-4.6308,-4.6308,-4.6308,-4.6308,-4.6308,-4.6308,-4.6308,-4.5625,-4.5039,-4.5039,-4.4316,-4.373,-4.373,-4.2988,0.0,-4.2402,-4.1699,-4.1191,-4.1191,-4.1191,-4.0508,-3.8789,-3.7832,-3.6953,-3.6016,-3.3613,-3.2207,-3.2168,-3.0508,-2.8789,-2.7031,-2.4551,-2.2852,-2.1973,0.0,0.0,0.0,0.0,0.0,0.0,0.0,0.0,0.0,0.0,0.0,0.0,0.0,0.0,0.0,0.0,0.0,0.0,0.0,0.0,0.0,0.0,-4.4778,-4.5413,-4.8404,-5.1077,-5.2568,-5.4838,-5.628,-5.6222,-5.7049,-5.7588,-5.7588,-5.8357,-5.8915,-5.9165,-5.9762,-6.0204,-6.0435,-6.0495,-6.0682,-6.0997,-6.1081,-6.1262,-6.1504,-6.1542,-6.1471,-6.1348,-6.1348,-6.0879,-6.0058,-5.9824,-5.9023,-5.7871,-5.7637,-5.7031,-5.6133,-5.5019,-5.3808,-5.2676,-5.2422,-5.1933,-5.1289,-5.0488,-5.0039,-4.9707,-4.8828,-4.8125,-4.7558,-4.7324,-4.6797,-4.6308,-4.6308,-4.6308,-4.6308,-4.6308,-4.6308,-4.6308,-4.6308,-4.6308,-4.6308,-4.6308,-4.6308,-4.6308,-4.6308,-4.6113,-4.5937,-4.5937,-4.5215,-4.4648,-4.4648,0.0,0.0,-4.2402,-4.1699,-4.1191,-4.1191,-4.1191,-4.0742,-3.9648,-3.873,-3.7324,0.0,-3.3809,-3.2519,-3.1309,-3.0195,-2.8789,-2.7031,-2.5684,-2.457,0.0,0.0,0.0,0.0,0.0,0.0,0.0,0.0,0.0,0.0,0.0,0.0,0.0,0.0,0.0,0.0,0.0,0.0,0.0,0.0,0.0,0.0,-4.6067,-4.8403,-5.0317,-5.1972,-5.3491,-5.4838,-5.6799,-5.8242,-5.8742,-5.9127,-5.9358,-5.9358,-5.9781,-6.0031,-6.0031,-6.0512,-6.08,-6.08,-6.08,-6.0834,-6.0915,-6.0972,-6.1145,-6.1424,-6.1465,-6.1577,-6.1699,-6.1699,-6.1426,0.0,-6.0566,-5.9668,-5.8418,-5.8047,-5.7383,0.0,0.0,0.0,0.0,0.0,-5.2148,-5.1328,-5.0859,-5.0703,-5.0566,-4.9726,-4.9101,-4.8555,-4.7812,-4.7246,-4.6777,-4.6406,-4.6308,-4.6308,-4.6308,-4.6308,-4.6308,-4.6308,-4.6308,-4.6308,-4.6308,-4.6308,-4.6308,-4.6308,0.0,0.0,-4.6308,-4.5879,-4.5547,-4.5547,-4.4375,-4.3359,0.0,-4.2226,-4.1562,-4.123,-4.1191,-4.0859,-3.9961,-3.8769,0.0,0.0,0.0,-3.2129,-3.043,-2.9512,0.0,0.0,0.0,0.0,0.0,0.0,0.0,0.0,-2.3398,-2.3789,0.0,0.0,0.0,0.0,0.0,0.0,0.0,0.0,0.0,0.0,0.0,0.0,0.0,0.0,0.0,0.0,-4.9471,-5.2232,-5.5395,-5.5395,-5.5338,-5.603,-5.8127,-5.955,-5.9646,-6.0339,-6.08,-6.08,-6.08,-6.08,-6.08,0.0,0.0,0.0,0.0,-6.08,-6.08,-6.0925,-6.1073,-6.1259,-6.1387,-6.1522,-6.1679,-6.1658,-6.1658,-6.162,-6.0858,-6.0019,-5.9101,-5.8359,-5.748,-5.6504,-5.5644,-5.5293,-5.5098,-5.334,-5.2207,0.0,0.0,0.0,0.0,-5.0566,-5.0273,-4.9902,-4.8359,-4.7754,-4.7441,-4.666,-4.6387,-4.6308,-4.6308,-4.6308,-4.6308,-4.6308,-4.6308,-4.6308,-4.6308,-4.6308,-4.6308,-4.6308,-4.6308,-4.6308,-4.6308,-4.6308,-4.6308,-4.6308,-4.5566,0.0,-4.3945,-4.3008,-4.2129,-4.1406,0.0,0.0,-4.0117,-3.8535,-3.7519,-3.7305,-3.418,-3.1641,-3.0098,-2.9297,-2.8828,-2.873,-2.873,-2.873,-2.873,-2.9512,-2.9941,-2.9941,-2.666,-2.6426,0.0,0.0,0.0,0.0,0.0,0.0,0.0,0.0,0.0,0.0,0.0,0.0,0.0,0.0,0.0,-4.9375,-5.2087,-5.4453,-5.6464,-5.778,-5.8588,-5.8742,-5.9204,-5.9781,-6.0473,-6.0704,-6.08,-6.08,-6.08,-6.08,-6.08,-6.08,0.0,-6.08,-6.08,-6.08,-6.08,-6.0831,-6.0914,-6.1065,0.0,0.0,-6.1542,-6.1432,-6.144,-6.1525,-6.1366,-6.039,-5.8968,-5.8942,-5.8027,-5.6504,-5.5644,-5.5293,-5.5098,-5.334,-5.2598,-5.2344,-5.1641,-5.1406,-5.1367,-5.1211,-5.0723,-5.0137,-4.9805,-4.8711,0.0,-4.7402,-4.6836,-4.6308,-4.6308,-4.6308,-4.6308,-4.6308,-4.6308,-4.6308,-4.6308,-4.6308,-4.6308,-4.6308,-4.6308,-4.6308,-4.6308,-4.6308,-4.6308,-4.6308,-4.5566,-4.4941,-4.4766,-4.3379,-4.2344,-4.2187,-4.1582,-4.1133,-4.0957,-4.0,-3.8809,-3.7383,-3.4707,-3.3027,-3.2676,-3.25,-3.2109,-3.1465,-3.1445,-3.1445,-3.1445,-3.1601,-3.2031,-3.2617,-3.0586,-3.0293,0.0,0.0,0.0,0.0,0.0,0.0,0.0,0.0,0.0,0.0,0.0,-4.1931,0.0,0.0,-4.9269,-5.2655,-5.426,-5.5838,-5.7953,-5.8973,-5.9492,-5.9492,-5.9896,-6.0319,-6.0762,-6.08,-6.08,-6.08,-6.08,-6.08,-6.08,-6.08,-6.08,-6.08,-6.08,-6.08,-6.08,-6.08,-6.088,-6.0997,-6.0997,-6.1145,-6.1407,-6.1323,-6.1348,-6.1411,-6.1411,-6.0666,-5.9399,-5.8617,-5.7582,-5.6451,-5.6022,-5.562,-5.5137,-5.3828,-5.3066,-5.2578,-5.1699,-5.1406,-5.1406,-5.1406,-5.1133,-5.0723,-5.0312,-4.959,-4.8711,-4.7851,-4.7285,-4.6855,-4.6406,-4.6308,-4.6308,-4.6308,-4.6308,-4.6308,-4.6308,-4.6308,-4.6308,-4.6308,-4.6308,-4.6308,-4.6308,-4.6308,-4.6308,-4.6308,-4.5937,-4.5488,-4.5058,-4.3867,-4.2871,-4.2441,-4.168,-4.1191,-4.1191,-4.0,-3.8516,-3.6758,-3.5019,-3.3848,-3.3418,-3.3398,-3.3203,-3.2812,-3.2793,-3.2793,-3.2793,-3.3242,-3.3652,-3.4043,-3.3633,-3.3457,0.0,0.0,0.0,0.0,0.0,0.0,0.0,0.0,-4.02,-4.1881,-4.4124,-4.6394,-4.8471,-5.0394,-5.2559,-5.5261,-5.6126,-5.7165,-5.9204,-5.9646,-5.9742,-5.9742,-6.0358,-6.08,-6.08,-6.08,-6.08,-6.08,-6.08,-6.08,-6.08,-6.08,-6.08,-6.08,-6.08,-6.08,-6.08,-6.08,-6.0847,-6.0973,-6.0973,-6.1048,-6.124,-6.12,-6.1226,-6.124,-6.1065,-6.0611,-5.9857,-5.8126,-5.7089,-5.6579,-5.6426,-5.5994,-5.5384,-5.455,-5.3691,-5.2832,-5.1953,-5.1543,-5.1406,-5.1406,-5.1406,-5.1289,-5.0625,-5.0312,-4.9863,-4.8301,-4.7734,-4.7402,-4.6523,-4.6308,-4.6308,-4.6308,-4.6308,-4.6308,-4.6308,-4.6308,-4.6308,-4.6308,-4.6308,-4.6308,-4.6308,-4.6308,-4.6308,-4.6308,-4.6308,-4.6055,-4.5332,-4.4336,-4.3437,-4.2734,-4.1777,-4.1191,-4.1191,-3.9766,-3.8184,-3.6601,-3.5684,-3.4805,-3.3945,-3.3906,-3.3906,-3.3906,-3.3906,-3.3906,-3.3906,-3.4609,-3.4941,-3.4961,-3.5664,-3.5625,-3.5019,-3.5654,-3.6796,-3.8334,-3.9342,-4.0931,0.0,0.0,-4.6374,-4.8067,-4.9817,-5.1135,-5.1423,-5.3472,-5.5261,-5.5645,-5.7607,-5.9165,-5.9454,-6.0165,-6.0646,-6.0646,-6.0742,-6.08,-6.08,-6.08,-6.08,-6.08,-6.08,-6.08,-6.08,-6.08,-6.08,-6.08,-6.08,-6.08,-6.08,-6.08,-6.0804,-6.0819,-6.0819,-6.0894,-6.1031,-6.0904,-6.0924,-6.1001,-6.0209,-5.9925,-5.9857,-5.8126,-5.7364,-5.7219,-5.6504,-5.6164,-5.6031,-5.5399,-5.4609,-5.373,-5.2851,-5.2051,-5.1406,-5.1406,-5.1406,-5.1387,-5.1289,-5.0762,-5.0,-4.9023,-4.8203,-4.7402,-4.6523,-4.6308,-4.6308,-4.6308,-4.6308,-4.6308,-4.6308,-4.6308,-4.6308,-4.6308,-4.6308,-4.6308,-4.6308,-4.6308,-4.6308,-4.6308,-4.6308,-4.6269,-4.6172,-4.4726,-4.3652,-4.3555,-4.2148,-4.1191,-4.1191,-4.0312,-3.9336,-3.8379,-3.748,-3.6621,-3.5742,-3.5703,-3.5703,-3.5703,-3.5703,-3.5703,-3.5703,-3.5801,-3.5859,-3.5859,-3.5957,-3.5957,-4.0219,-4.0162,-4.02,0.0,-4.3605,-4.4816,-4.7086,-4.8375,-4.9433,-5.0606,-5.2222,-5.3414,-5.3414,-5.5068,-5.6607,0.0,-5.8492,-5.9685,-6.0185,-6.0127,-6.0031,-6.0031,-6.0031,-6.0242,-6.0742,-6.08,-6.08,-6.08,-6.08,-6.08,-6.08,-6.08,-6.08,-6.08,-6.08,-6.08,-6.08,-6.08,-6.08,-6.08,-6.08,-6.0831,-6.0892,-6.0831,-6.0831,-6.0853,-6.0496,-6.0094,-5.9609,-5.841,-5.7675,-5.7208,-5.6354,-5.609,-5.612,-5.5421,-5.4942,-5.4457,-5.3143,-5.2461,-5.207,-5.1562,-5.1406,-5.1406,-5.1406,-5.1172,-5.0723,-4.9883,-4.9023,-4.8164,-4.7285,-4.668,-4.6308,-4.6308,-4.6308,-4.6308,-4.6308,-4.6308,-4.6308,-4.6308,-4.6308,-4.6308,-4.6308,-4.6308,-4.6308,-4.6308,-4.6308,-4.6308,-4.6308,-4.4785,-4.332,-4.2344,-4.1621,-4.1191,-4.1191,-4.0391,-3.9746,-3.9375,-3.8066,-3.7148,-3.6777,-3.6269,-3.5996,-3.5996,-3.5996,-3.5996,-3.5996,-3.5996,-3.6269,-3.6758,-3.6758,-3.7031,-4.3162,-4.3239,0.0,-4.5701,-4.7124,-4.8163,-4.8971,-5.0491,-5.1856,-5.2192,-5.3453,-5.4491,-5.4491,-5.5665,-5.7022,-5.8127,-5.8973,-5.98,-6.0685,-6.005,-5.9492,-5.9492,-5.93,-5.9492,-6.0358,-6.0666,-6.08,-6.08,-6.08,-6.08,-6.08,-6.08,-6.08,-6.08,-6.08,-6.08,-6.08,-6.08,-6.08,-6.08,-6.08,-6.08,-6.08,-6.08,-6.08,-6.08,-6.08,-6.0435,-5.9781,-5.8973,-5.8188,-5.7427,-5.6538,-5.6145,-5.6,-5.5507,-5.5198,-5.4882,-5.3754,-5.3042,-5.2555,-5.1953,-5.1601,-5.1406,-5.1406,-5.1406,-5.123,-5.043,-4.9746,-4.9004,-4.7891,-4.7129,-4.6601,-4.6367,-4.6308,-4.6308,-4.6308,-4.6308,-4.6308,-4.6308,-4.6308,-4.6308,-4.6308,-4.6308,-4.6308,-4.6308,-4.6308,-4.6308,-4.6308,-4.4785,-4.3066,-4.1387,-4.1191,-4.1191,-4.1191,-4.0625,-4.0156,-3.9922,-3.8711,-3.791,-3.7676,-3.6816,-3.6465,-3.6719,-3.6484,-3.6484,-3.6719,-3.6719,-3.7031,-3.7656,-3.7656,-3.8125,-4.2077,0.0,-4.5902,-4.7605,-4.9317,-5.0798,-5.1596,-5.3126,-5.4145,-5.3337,-5.3876,-5.4491,-5.4491,-5.5184,-5.6299,-5.803,-5.8973,-5.98,-6.0685,-6.005,-5.9492,-5.9492,-5.8819,-5.8646,0.0,-6.03,-6.08,-6.08,-6.08,-6.08,-6.08,-6.08,-6.08,-6.08,-6.08,-6.08,-6.08,-6.08,-6.08,-6.08,-6.08,-6.08,-6.08,-6.08,-6.08,-6.08,-6.08,-6.0781,-6.0685,-5.9819,-5.8992,-5.8176,-5.7321,-5.6456,-5.5728,-5.5838,-5.5456,-5.4923,-5.4996,-5.3911,-5.2513,-5.2634,-5.209,-5.1406,-5.1406,-5.1406,-5.123,-5.043,-5.0176,-4.9766,-4.8047,-4.7578,-4.7344,-4.6504,-4.6308,-4.6308,-4.6308,-4.6308,-4.6308,-4.6308,-4.6308,-4.6308,-4.6308,-4.6308,-4.6308,-4.6308,-4.6308,-4.6308,-4.6308,-4.4785,-4.3066,-4.1387,-4.1191,-4.1191,-4.1191,-4.1172,-4.0801,-3.9941,-3.9844,-3.9434,-3.8594,-3.7715,-3.7656,-3.8496,-3.7695,-3.7676,-3.8516,-3.8516,-3.8535,-3.8555,-3.8555,-3.9023,-4.4788,0.0,-4.7663,-4.9394,-5.0664,-5.1875,-5.3299,-5.3626,-5.3722,-5.3991,-5.3376,-5.2769,-5.2769,-5.3933,-5.5261,-5.6395,-5.8223,-5.98,-6.0685,-6.005,-5.93,-5.8781,-5.8934,0.0,0.0,0.0,0.0,-6.0762,-6.08,-6.08,-6.08,-6.08,-6.08,-6.08,-6.08,-6.08,-6.08,-6.08,-6.08,-6.08,-6.08,-6.08,-6.08,-6.08,-6.08,-6.08,-6.08,-6.08,-6.0723,-5.9858,-5.9031,-5.8204,-5.7338,-5.6483,-5.5714,-5.5749,-5.5624,-5.5393,-5.508,-5.4206,-5.3139,-5.2613,-5.1918,-5.1268,-5.1268,-5.1322,-5.1348,-5.1074,-5.0605,-5.0058,-4.9473,-4.8476,-4.7539,-4.7226,-4.6719,-4.6308,-4.6308,-4.6308,-4.6308,-4.6308,-4.6308,-4.6308,-4.6308,-4.6308,-4.6308,-4.6308,-4.6308,-4.6094,-4.5508,-4.4414,-4.3262,-4.2129,-4.1523,-4.1191,-4.1191,-4.1191,-4.1074,-4.0781,-4.0215,-3.9766,-3.9473,-3.8633,-3.8301,-3.8594,-3.8301,-3.8301,-3.8594,-3.8594,-3.8906,-3.9453,-3.9453,-3.9922,-4.6721,-4.7932,-4.9125,-5.1471,-5.2452,-5.3126,-5.4241,-5.3837,-5.3183,-5.3145,-5.201,-5.101,-5.101,-5.1914,-5.3337,-5.5357,-5.7069,-5.8761,-6.055,-6.005,-5.9319,-5.88,-5.8934,0.0,0.0,0.0,0.0,-6.0723,-6.08,-6.08,-6.08,-6.08,-6.08,-6.08,-6.08,-6.08,-6.08,-6.08,-6.08,-6.08,-6.08,-6.08,-6.08,-6.08,-6.08,-6.08,-6.08,-6.08,-6.0762,-6.0204,-5.9319,-5.8242,-5.7684,-5.6742,-5.5703,-5.5703,-5.5703,-5.5651,-5.5353,-5.4511,-5.3435,-5.2941,-5.204,-5.1167,-5.1196,-5.1267,-5.1343,-5.1386,-5.1035,-5.0566,-5.0273,-4.9375,-4.8379,-4.7754,-4.7168,-4.668,-4.6367,-4.6308,-4.6308,-4.6308,-4.6308,-4.6308,-4.6308,-4.6308,-4.6308,-4.6308,-4.6308,-4.5996,-4.5117,-4.4512,-4.3711,-4.2539,-4.1933,-4.1504,-4.1211,-4.1191,-4.1191,-4.1191,-4.0664,-4.0351,-4.0351,-3.9531,-3.9219,-3.9512,-3.9219,-3.9219,-3.9531,-3.9531,-3.9824,-4.0351,-4.0351,-4.0664,-4.7778,-4.8933,-5.0433,-5.3683,-5.4491,-5.4491,-5.4434,-5.3722,-5.2606,-5.0923,-4.9837,-4.9183,0.0,0.0,-5.0664,-5.4722,-5.5588,-5.6934,-6.0262,-6.0069,-5.955,0.0,0.0,0.0,0.0,0.0,0.0,-6.0742,0.0,-6.08,-6.08,-6.08,-6.08,-6.08,-6.08,-6.08,-6.08,-6.08,-6.08,-6.08,-6.08,-6.08,-6.08,-6.08,-6.08,-6.08,-6.08,-6.08,-6.08,-6.08,-5.98,-5.83,-5.83,-5.7223,-5.5703,-5.5703,-5.5703,-5.5726,-5.5851,-5.4815,-5.3472,-5.3551,-5.2474,-5.1162,-5.119,-5.1194,-5.121,-5.1345,-5.1386,-5.1211,-5.0469,-5.0234,-4.9766,-4.8066,-4.7637,-4.7363,-4.6484,-4.6308,-4.6308,-4.6308,-4.6308,-4.6308,-4.6308,-4.6308,-4.6308,-4.6308,-4.6308,-4.5996,-4.5176,-4.5039,-4.4355,-4.2656,-4.2422,-4.207,-4.1269,-4.1191,-4.1191,-4.1191,-4.1191,-4.1191,-4.1191,-4.041,-4.0351,-4.1172,-4.0391,-4.0371,-4.1191,-4.1191,-4.1191,-4.1191,-4.1191,-4.1191,-4.9567,-5.1568,-5.3414,-5.428,-5.4491,-5.4337,-5.3683,-5.2395,-5.0856,-4.9125,-4.7586,-4.6191,0.0,0.0,0.0,-5.0721,-5.4184,0.0,-5.9531,-6.0204,0.0,-5.9588,0.0,-5.9992,-5.955,-6.0089,0.0,0.0,-6.08,-6.08,-6.08,-6.08,-6.08,-6.08,-6.08,-6.08,-6.08,-6.08,-6.08,-6.08,-6.08,-6.08,-6.08,-6.08,-6.08,-6.08,-6.08,-6.08,-6.08,-6.08,-5.98,-5.83,-5.83,-5.7223,-5.5703,-5.5703,-5.5703,-5.5695,-5.5748,-5.5075,-5.4121,-5.3512,-5.2635,-5.1741,-5.1146,-5.1044,-5.1145,-5.1228,-5.1244,-5.1231,-5.1112,-5.0644,-4.9922,-4.8828,-4.8066,-4.7363,-4.6484,-4.6308,-4.6308,-4.6308,-4.6308,-4.6308,-4.6308,-4.6308,-4.6308,-4.6308,-4.6308,-4.6211,-4.5996,-4.5391,-4.457,-4.3496,-4.2793,-4.207,-4.1269,-4.1191,-4.1191,-4.1191,-4.1191,-4.1191,-4.1191,-4.0996,-4.0976,-4.1191,-4.0976,-4.0976,-4.1191,-4.1191,-4.1191,-4.1191,-4.1191,-4.1191,-5.1337,-5.3126,-5.4491,-5.4491,-5.4491,-5.3972,-5.1991,-5.051,-4.8856,-4.6413,-4.4855,0.0,-4.22,0.0,0.0,0.0,0.0,0.0,-5.9108,-6.0242,-6.0608,0.0,-6.0492,0.0,-6.0127,-6.0512,-6.08,0.0,-6.08,-6.08,-6.08,-6.08,-6.08,-6.08,-6.08,-6.08,-6.08,-6.08,-6.08,-6.08,-6.08,-6.08,-6.08,-6.08,-6.08,-6.08,0.0,-6.08,-6.08,-6.08,-6.0012,-5.88,-5.8434,-5.7473,-5.6233,-5.5838,-5.5703,-5.5703,-5.5703,-5.5395,-5.4895,-5.4049,-5.2974,-5.1943,-5.1556,-5.123,-5.1031,-5.1121,-5.117,-5.119,-5.1291,-5.0987,-5.0442,-4.9668,-4.8808,-4.793,-4.7051,-4.6562,-4.6308,-4.6308,-4.6308,-4.6308,-4.6308,-4.6308,-4.6308,-4.6308,-4.6308,-4.6308,-4.6308,-4.5879,-4.5234,-4.4355,-4.3496,-4.2637,-4.1797,-4.1406,-4.1191,-4.1191,-4.1191,-4.1191,-4.1191,-4.1191,-4.1191,-4.1191,-4.1191,-4.1191,-4.1191,-4.1191,-4.1191,-4.1191,-4.1191,-4.1191,-5.2914,-5.3991,-5.4626,-5.453,-5.4337,-5.3299,-4.9971,-4.8375,-4.6663,-4.3412,0.0,-4.1181,-4.0189,-4.17,-4.4374,-4.8259,0.0,-5.4645,-5.8761,-6.0089,-6.0666,-6.0781,-6.08,-6.08,-6.08,-6.08,-6.08,-6.08,-6.08,-6.08,-6.08,-6.08,-6.08,-6.08,-6.08,-6.08,-6.08,-6.08,-6.08,-6.08,-6.08,-6.08,-6.08,-6.08,-6.08,-6.08,0.0,0.0,-6.08,-6.08,-6.0281,-5.9415,-5.8607,-5.7761,-5.6887,-5.6011,-5.5703,-5.5703,-5.5703,-5.5703,-5.5568,-5.4761,-5.3395,-5.2069,-5.2064,-5.1502,-5.0889,-5.1045,-5.1063,-5.1099,-5.1167,-5.1196,-5.1039,-5.0348,-4.9511,-4.8652,-4.7793,-4.6914,-4.6308,-4.6308,-4.6308,-4.6308,-4.6308,-4.6308,-4.6308,-4.6308,-4.6308,-4.6308,-4.6308,-4.6308,-4.5976,-4.5098,-4.4316,-4.3516,-4.2656,-4.1836,-4.1367,-4.1367,-4.1269,-4.1191,-4.1191,-4.1191,-4.1191,-4.1191,-4.1191,-4.1191,-4.1191,-4.1191,-4.1191,-4.1191,-4.1191,-4.1191,-5.3799,-5.4876,-5.5318,-5.4664,-5.3414,-5.1635,-4.8952,-4.6586,0.0,0.0,-4.0304,-3.9238,-3.7661,-4.0508,-4.3797,-4.5922,0.0,0.0,0.0,0.0,-5.9992,0.0,0.0,0.0,0.0,0.0,0.0,0.0,0.0,0.0,-6.08,-6.08,-6.08,-6.08,-6.08,-6.08,-6.08,-6.08,-6.08,-6.08,-6.08,-6.08,-6.08,-6.08,-6.08,-6.08,0.0,0.0,-6.08,-6.08,-6.0281,-5.9415,-5.8607,-5.7761,-5.6887,-5.6011,-5.5703,-5.5703,-5.5703,-5.5703,-5.5568,-5.4761,-5.3818,-5.2837,-5.2156,-5.1366,-5.0766,-5.0901,-5.0939,-5.0959,-5.1094,-5.1154,-5.0991,-5.0219,-4.9445,-4.8652,-4.7793,-4.6914,-4.6308,-4.6308,-4.6308,-4.6308,-4.6308,-4.6308,-4.6308,-4.6308,-4.6308,-4.6308,-4.6308,-4.6308,-4.5976,-4.5098,-4.4863,-4.4414,-4.3555,-4.2695,-4.2187,-4.2187,-4.1562,-4.1191,-4.1191,-4.1191,-4.1191,-4.1191,-4.1191,-4.1191,-4.1191,-4.1191,-4.1191,-4.1191,-4.1191,-4.1191,-5.4664,-5.5415,-5.5395,-5.4145,-5.2856,-5.0885,-4.7009,0.0,0.0,0.0,-3.8219,-3.7565,-3.6308,-3.8834,0.0,0.0,0.0,0.0,0.0,0.0,0.0,0.0,0.0,0.0,0.0,0.0,0.0,0.0,0.0,0.0,-6.08,-6.08,-6.08,-6.08,-6.08,-6.08,-6.08,-6.08,-6.08,-6.08,-6.08,-6.08,-6.08,-6.08,-6.08,-6.08,0.0,0.0,-6.08,-6.08,-6.055,-6.005,-5.88,-5.805,-5.7511,-5.6184,-5.5703,-5.5703,-5.5703,-5.5703,-5.5568,-5.4761,-5.3914,-5.3126,-5.2692,-5.1702,-5.0712,-5.0773,-5.0808,-5.0839,-5.0953,-5.1017,-5.0967,-5.0654,-4.9657,-4.8584,-4.7773,-4.6914,-4.6308,-4.6308,-4.6308,-4.6308,-4.6308,-4.6308,-4.6308,-4.6308,-4.6308,-4.6308,-4.6308,-4.6308,-4.6133,-4.5723,-4.5273,-4.4824,-4.4414,-4.3164,-4.2402,-4.2402,-4.1641,-4.1191,-4.1191,-4.1191,-4.1191,-4.1191,-4.1191,-4.1191,-4.1191,-4.1191,-4.1191,-4.1191,-4.1191,-4.1191,-5.4972,-5.5568,-5.5299,-5.3626,-5.2433,-5.0356,-4.5413,-4.3393,0.0,0.0,-3.6558,-3.625,-3.5615,0.0,-3.9854,0.0,-4.497,0.0,0.0,0.0,0.0,0.0,0.0,0.0,0.0,0.0,0.0,0.0,0.0,0.0,0.0,-6.08,-6.08,-6.08,-6.08,-6.08,-6.08,-6.08,-6.08,-6.08,-6.08,-6.08,-6.08,-6.08,-6.08,-6.08,0.0,0.0,0.0,-6.08,-6.0685,-6.0358,-5.8877,-5.8184,-5.7838,-5.6261,-5.5703,-5.5703,-5.5703,-5.5703,-5.5568,-5.4761,-5.3914,-5.3164,-5.2991,-5.1875,-5.0712,-5.0712,-5.0712,-5.0712,-5.0819,-5.0879,-5.09,-5.0825,-4.9733,-4.8498,-4.7729,-4.6894,-4.6308,-4.6308,-4.6308,-4.6308,-4.6308,-4.6308,-4.6308,-4.6308,-4.6308,-4.6308,-4.6308,-4.6308,-4.6308,-4.6308,-4.5683,-4.5273,-4.5273,-4.3848,-4.2871,-4.2695,-4.1914,-4.1387,-4.1211,-4.1191,-4.1191,-4.1191,-4.1191,-4.1191,-4.1191,-4.1191,-4.1191,-4.1191,-4.1191,-4.1191,-5.4145,-5.5145,-5.5299,-5.3626,-5.1991,-4.9673,-4.5297,0.0,0.0,-3.7257,-3.6115,-3.5596,-3.5519,-3.6949,-3.895,-4.1508,0.0,-4.7509,0.0,0.0,0.0,0.0,0.0,0.0,0.0,0.0,0.0,0.0,0.0,0.0,0.0,-6.08,-6.08,-6.08,-6.08,-6.08,-6.08,-6.08,-6.08,-6.08,-6.08,-6.08,-6.08,-6.08,-6.08,-6.08,0.0,0.0,0.0,-6.08,-6.0319,-5.9531,-5.8646,-5.7819,-5.7003,-5.6049,-5.5703,-5.5703,-5.5703,-5.5703,-5.5568,-5.4761,-5.3914,-5.3049,-5.225,-5.1395,-5.0712,-5.0712,-5.0712,-5.0693,-5.0721,-5.0805,-5.0738,-5.0075,-4.9281,-4.8467,-4.7594,-4.6826,-4.6308,-4.6308,-4.6308,-4.6308,-4.6308,-4.6308,-4.6308,-4.6308,-4.6308,-4.6308,-4.6308,-4.6308,-4.6308,-4.6308,-4.623,-4.6172,-4.6172,-4.5312,-4.4414,-4.3633,-4.2773,-4.1953,-4.123,-4.1191,-4.1191,-4.1191,-4.1191,-4.1191,-4.1191,-4.1191,-4.1191,-4.1191,-4.1191,-4.1191,-5.3106,-5.3953,-5.4049,-5.3376,-5.1548,-4.8798,-4.4547,0.0,-3.965,-3.6596,-3.5712,-3.55,-3.55,-3.6442,-3.7892,-3.995,-4.1143,-4.3585,-4.8702,0.0,0.0,0.0,0.0,0.0,0.0,0.0,0.0,0.0,0.0,0.0,0.0,-6.08,-6.08,-6.08,-6.08,-6.08,-6.08,-6.08,-6.08,-6.08,-6.08,-6.08,-6.08,-6.08,-6.08,-6.08,0.0,0.0,0.0,-6.08,-6.0281,-5.9415,-5.8607,-5.7761,-5.6887,-5.6011,-5.5703,-5.5703,-5.5703,-5.5703,-5.5568,-5.4761,-5.3914,-5.3049,-5.2154,-5.1337,-5.0712,-5.0712,-5.0712,-5.0712,-5.0712,-5.074,-5.0737,-5.05,-4.9443,-4.838,-4.8125,-4.7075,-4.6175,-4.6175,-4.6247,-4.6308,-4.6308,-4.6308,-4.6308,-4.6308,-4.6308,-4.6308,-4.6308,-4.6308,-4.6308,-4.6308,-4.6308,-4.6308,-4.6308,-4.5508,-4.4844,-4.4492,-4.3652,-4.3047,-4.2715,-4.2695,-4.2461,-4.1933,-4.2441,-4.2207,-4.1191,-4.1699,-4.168,-4.1211,-4.1699,-4.1914,-5.1702,-5.2626,-5.276,-5.2529,-5.0914,-4.8221,0.0,-4.1566,-3.9554,-3.6192,-3.55,-3.55,-3.55,-3.5962,-3.6808,-3.8296,-3.895,-4.0893,-4.549,-4.6778,0.0,0.0,0.0,0.0,0.0,0.0,0.0,0.0,0.0,0.0,0.0,-6.08,-6.08,-6.08,-6.08,-6.08,-6.08,-6.08,-6.08,-6.08,-6.08,-6.08,-6.08,-6.08,-6.08,0.0,0.0,0.0,0.0,-6.0512,-5.9915,-5.9069,-5.8242,-5.7376,-5.6541,-5.5934,-5.5703,-5.5703,-5.5703,-5.5703,-5.5568,-5.4761,-5.3914,-5.3049,-5.2154,-5.1337,-5.0712,-5.0712,-5.0712,-5.0712,-5.0712,-5.0712,-5.0712,-5.0822,-4.9734,-4.8644,-4.8477,-4.7373,-4.6351,-4.6098,-4.6147,-4.6246,-4.6246,-4.6269,-4.6308,-4.6308,-4.6308,-4.6308,-4.6308,-4.6308,-4.6308,-4.6308,-4.6308,-4.6308,-4.6308,-4.5742,-4.5273,-4.5019,-4.4414,-4.3965,-4.3711,-4.3691,-4.3418,-4.2793,-4.3398,-4.3125,-4.1933,-4.2519,-4.248,-4.1953,-4.2519,-4.2773,-4.9808,-5.1318,-5.1712,-5.0914,-5.0048,-4.8067,-4.297,-4.1123,-3.9554,-3.6192,-3.55,-3.55,-3.55,-3.5519,-3.5788,-3.6596,-3.8161,-4.0477,-4.3855,-4.6509,0.0,0.0,0.0,0.0,0.0,0.0,0.0,0.0,0.0,0.0,0.0,0.0,-6.08,-6.08,-6.08,-6.08,-6.08,-6.08,-6.08,-6.08,-6.08,-6.08,-6.08,-6.08,0.0,0.0,0.0,0.0,0.0,-5.9877,-5.905,-5.8223,-5.7349,-5.6483,-5.5703,-5.5703,-5.5703,-5.5703,-5.5703,-5.5703,-5.5568,-5.4761,-5.3914,-5.3049,-5.2154,-5.1337,-5.0712,-5.0712,-5.0712,-5.0712,-5.0712,-5.0712,-5.0693,-5.0693,-5.0124,-4.9357,-4.8493,-4.7717,-4.6925,-4.6078,-4.6001,-4.6091,-4.6091,-4.6203,-4.6308,-4.6308,-4.6308,-4.6308,-4.6308,-4.6308,-4.6308,-4.6308,-4.6308,-4.6308,-4.6308,-4.6289,-4.5918,-4.5058,-4.498,-4.4609,-4.373,-4.3691,-4.3691,-4.3691,-4.3691,-4.3691,-4.3672,-4.3672,-4.3672,-4.3672,-4.3672,-4.3691,-4.4893,-4.6086,-4.6644,-4.6394,-4.5701,-4.422,-4.0854,-3.9881,-3.8873,-3.6077,-3.55,-3.55,-3.55,-3.55,-3.6327,-3.8873,-3.9765,-4.1093,0.0,0.0,0.0,0.0,0.0,0.0,0.0,0.0,0.0,0.0,0.0,0.0,0.0,0.0,-6.08,-6.08,-6.08,-6.08,-6.08,-6.08,-6.08,-6.08,-6.08,-6.08,-6.08,-6.08,0.0,0.0,0.0,0.0,0.0,-5.9608,-5.8665,-5.7376,-5.7118,-5.6483,-5.5703,-5.5703,-5.5703,-5.5703,-5.5703,-5.5703,-5.5665,-5.5395,-5.4761,-5.3933,-5.3049,-5.1818,-5.0712,-5.0712,-5.0712,-5.0712,-5.0712,-5.0712,-5.0712,-5.0712,-5.0066,-4.9388,-4.9118,-4.8005,-4.699,-4.6718,-4.628,-4.5951,-4.5951,-4.6077,-4.6152,-4.6152,-4.6152,-4.6152,-4.6152,-4.6152,-4.6152,-4.6152,-4.6152,-4.62,-4.6289,-4.6308,-4.6172,-4.5918,-4.5898,-4.5762,-4.5488,-4.5488,-4.5195,-4.4609,-4.5176,-4.4883,-4.3691,-4.4209,-4.4434,-4.439,-4.439,-4.4682,-4.1296,-4.272,-4.3355,-4.3355,-4.2989,-4.195,-3.9392,-3.8565,-3.768,-3.5468,-3.5007,-3.5007,-3.5007,-3.5269,-3.6269,-3.8681,-3.9631,-4.0939,0.0,0.0,0.0,0.0,0.0,0.0,0.0,0.0,0.0,0.0,0.0,0.0,0.0,0.0,-6.08,-6.08,-6.08,-6.08,-6.08,-6.08,-6.08,-6.08,-6.08,-6.08,-6.08,0.0,0.0,0.0,0.0,0.0,0.0,-5.9165,-5.8242,-5.6964,-5.6637,-5.6195,-5.5703,-5.5703,-5.5703,-5.5703,-5.5703,-5.5703,-5.5703,-5.5703,-5.4934,-5.3799,-5.2606,-5.1529,-5.0712,-5.0712,-5.0712,-5.0712,-5.0712,-5.0712,-5.0712,-5.0712,-5.0289,-4.9798,-4.9471,-4.8347,-4.7337,-4.7009,-4.6377,-4.5866,-4.5866,-4.5948,-4.6011,-4.6011,-4.6011,-4.6011,-4.6011,-4.6011,-4.6011,-4.6011,-4.6011,-4.6069,-4.6145,-4.6199,-4.6247,-4.6308,-4.6308,-4.6308,-4.6308,-4.6308,-4.6035,-4.5508,-4.6016,-4.5762,-4.4687,-4.5098,-4.5234,-4.5155,-4.5155,-4.5427,0.0,-4.0546,-4.1231,-4.1173,-4.1212,-4.0623,-3.82,-3.7065,0.0,-3.4436,-3.4167,-3.4244,-3.4359,-3.5045,-3.5923,-3.6981,-3.8507,0.0,0.0,0.0,0.0,0.0,0.0,0.0,0.0,0.0,0.0,0.0,0.0,0.0,0.0,0.0,0.0,-6.08,-6.08,-6.08,-6.08,-6.08,-6.08,-6.08,-6.08,-6.08,-6.08,0.0,0.0,0.0,0.0,0.0,0.0,-5.8531,-5.7684,-5.683,-5.6011,-5.5703,-5.5703,-5.5703,-5.5703,-5.5703,-5.5703,-5.5703,-5.5684,-5.5626,-5.4511,-5.2895,-5.1279,-5.075,-5.0712,-5.0712,-5.0712,-5.0712,-5.0712,-5.0712,-5.0712,-5.0712,-5.0712,-5.0481,-4.9663,-4.8759,-4.7875,-4.7135,-4.6349,-4.5783,-4.5783,-4.5859,-4.5885,-4.5885,-4.5885,-4.5885,-4.5885,-4.5885,-4.5885,-4.5885,-4.5885,-4.589,-4.5899,-4.6005,-4.6144,-4.6268,-4.6289,-4.6289,-4.6289,-4.6289,-4.6289,-4.6308,-4.6289,-4.6289,-4.6268,-4.6144,-4.6018,-4.5876,-4.5876,-4.5876,-3.3449,0.0,-3.5834,-3.5161,-3.5488,-3.5641,0.0,-3.4449,-3.4487,-3.341,-3.3744,-3.459,-3.5872,-3.6269,-3.7538,-4.1027,0.0,0.0,0.0,0.0,0.0,0.0,0.0,0.0,0.0,0.0,0.0,0.0,0.0,0.0,0.0,0.0,0.0,-6.08,-6.08,-6.08,-6.08,-6.08,-6.08,-6.08,-6.08,-6.08,-6.08,0.0,0.0,0.0,0.0,0.0,-5.7569,-5.7387,-5.678,-5.5992,-5.578,-5.5703,-5.5703,-5.5703,-5.5703,-5.5703,-5.5703,-5.5703,-5.5588,-5.4972,-5.4068,-5.301,-5.1952,-5.1183,-5.0712,-5.0712,-5.0712,-5.0712,-5.0712,-5.0712,-5.0712,-5.0712,-5.0712,-5.0635,-5.0442,-4.9183,-4.8048,-4.7855,-4.663,-4.5651,-4.5651,-4.5742,-4.582,-4.582,-4.582,-4.582,-4.582,-4.582,-4.582,-4.582,-4.582,-4.5847,-4.5894,-4.5924,-4.5967,-4.5992,-4.6084,-4.6147,-4.6147,-4.6147,-4.6199,-4.6308,-4.62,-4.6108,-4.5992,-4.5901,-4.5796,-4.5665,-4.5665,-4.5665,-3.1096,-3.3179,-3.5238,-3.4757,-3.5007,-3.5218,-3.4757,-3.3814,-3.291,-3.2449,-3.3026,-3.4007,-3.5315,-3.6507,-3.8315,0.0,0.0,0.0,0.0,0.0,0.0,0.0,0.0,0.0,0.0,0.0,0.0,0.0,0.0,0.0,0.0,0.0,0.0,0.0,-6.08,-6.08,-6.08,-6.08,-6.08,-6.08,-6.08,-6.08,-6.0781,0.0,0.0,0.0,0.0,0.0,-5.7003,-5.7003,-5.6503,-5.5703,-5.5703,-5.5703,-5.5703,-5.5703,-5.5703,-5.5703,-5.5703,-5.5453,-5.5011,-5.4184,-5.3318,-5.2452,-5.1606,-5.1048,-5.0712,-5.0712,-5.0712,-5.0712,-5.0712,-5.0712,-5.0712,-5.0712,-5.0712,-5.0712,-5.0712,-4.9336,-4.8105,-4.8105,-4.674,-4.5594,-4.5594,-4.5657,-4.5708,-4.5708,-4.5708,-4.5708,-4.5708,-4.5708,-4.5708,-4.5708,-4.5708,-4.5713,-4.5757,-4.5764,-4.5805,-4.5894,-4.5974,-4.6001,-4.6001,-4.6001,-4.6042,-4.6115,-4.6042,-4.5955,-4.585,-4.5828,-4.5725,-4.5594,-4.5594,-4.5594,-3.0865,-3.3885,-3.6731,-3.6096,-3.6231,-3.6442,-3.6173,-3.393,-3.1891,-3.1891,-3.2641,-3.3641,0.0,-3.6949,0.0,0.0,0.0,0.0,0.0,0.0,0.0,0.0,0.0,0.0,0.0,0.0,0.0,0.0,0.0,0.0,0.0,0.0,0.0,0.0,-6.08,-6.08,-6.08,-6.08,-6.08,-6.08,-6.08,-6.0723,-6.0569,-5.9838,0.0,0.0,0.0,0.0,-5.681,-5.681,-5.6368,-5.5703,-5.5703,-5.5703,-5.5703,-5.5703,-5.5703,-5.5684,-5.5549,-5.5068,-5.4337,-5.3337,-5.25,-5.175,-5.0933,-5.0712,-5.0712,-5.0712,-5.0712,-5.0712,-5.0712,-5.0712,-5.0712,-5.0712,-5.0712,-5.0712,-5.0712,-4.9336,-4.8105,-4.8105,-4.674,-4.5594,-4.5594,-4.5594,-4.5594,-4.5594,-4.5594,-4.5594,-4.5594,-4.5594,-4.5594,-4.5594,-4.5594,-4.5594,-4.5594,-4.5594,-4.5673,-4.5846,-4.5862,-4.5872,-4.5872,-4.589,-4.589,-4.5872,-4.5872,-4.5855,-4.5803,-4.5769,-4.5715,-4.5594,-4.5594,-4.5594,-3.3026,-3.5661,-3.6949,-3.3353,-3.4096,-3.5308,-3.3814,-3.3083,-3.2718,-3.2718,-3.3987,-3.5788,0.0,-4.0008,-4.2008,0.0,0.0,0.0,0.0,0.0,0.0,0.0,0.0,0.0,0.0,0.0,0.0,0.0,0.0,0.0,0.0,0.0,0.0,0.0,0.0,-6.08,-6.08,-6.08,-6.08,-6.08,-6.08,-6.0416,-5.9704,-5.9569,-5.8723,0.0,0.0,-5.6714,-5.5895,-5.5895,-5.5818,-5.5703,-5.5703,-5.5703,-5.5703,-5.5703,-5.5703,-5.5588,-5.4914,-5.4607,-5.4222,-5.2615,-5.2,-5.175,-5.0933,-5.0712,-5.0712,-5.0712,-5.0712,-5.0712,-5.0712,-5.0712,-5.0712,-5.0712,-5.0712,-5.0712,-5.0712,-4.9336,-4.8105,-4.8105,-4.674,-4.5594,-4.5594,-4.5594,-4.5594,-4.5594,-4.5594,-4.5594,-4.5594,-4.5594,-4.5594,-4.5594,-4.5594,-4.5594,-4.5594,-4.5594,-4.5601,-4.5629,-4.5756,-4.5821,-4.5821,-4.5862,-4.5872,-4.5821,-4.5821,-4.5809,-4.5803,-4.5696,-4.5629,-4.5594,-4.5594,-4.5594,-3.1833,-3.4353,-3.6173,-3.4231,-3.6346,-3.8692,-3.7892,-3.6642,-3.5661,-3.5661,-3.6661,0.0,0.0,0.0,0.0,0.0,0.0,0.0,0.0,0.0,0.0,0.0,0.0,0.0,0.0,0.0,0.0,0.0,0.0,0.0,0.0,0.0,0.0,0.0,0.0,0.0,-5.9454,-5.9454,-5.9665,-6.0108,-6.0108,-5.9665,-5.8838,-5.8357,-5.7723,0.0,0.0,-5.6069,-5.5703,-5.5703,-5.5703,-5.5703,-5.5703,-5.5703,-5.5703,-5.5703,-5.5415,-5.4991,-5.4626,-5.3876,-5.2972,-5.2154,-5.1606,-5.1183,-5.0808,-5.0712,-5.0712,-5.0712,-5.0712,-5.0712,-5.0712,-5.0712,-5.0712,-5.0712,-5.0712,-5.0712,-5.0712,-4.9336,-4.8105,-4.8105,-4.674,-4.5594,-4.5594,-4.5594,-4.5594,-4.5594,-4.5594,-4.5594,-4.5594,-4.5594,-4.5594,-4.5594,-4.5594,-4.5594,-4.5594,-4.5594,-4.5594,-4.5594,-4.5648,-4.5685,-4.5685,-4.5715,-4.5715,-4.5685,-4.5685,-4.5685,-4.5685,-4.5627,-4.5594,-4.5594,-4.5594,-4.5594,-3.1423,-3.3519,-3.5635,-3.6231,-3.8673,-4.1058,-4.1654,-3.9988,-3.8469,-3.9065,-3.9719,0.0,0.0,0.0,0.0,0.0,0.0,0.0,0.0,0.0,0.0,0.0,0.0,0.0,0.0,0.0,0.0,0.0,0.0,0.0,0.0,0.0,0.0,0.0,0.0,0.0,-5.8319,-5.83,-5.8607,-5.9223,-5.9223,-5.88,-5.7973,-5.7311,-5.6887,-5.6656,-5.5992,-5.5703,-5.5703,-5.5703,-5.5703,-5.5703,-5.5703,-5.5703,-5.5703,-5.5703,-5.5184,-5.4472,-5.426,-5.3203,-5.1865,-5.1673,-5.1202,-5.0712,-5.0712,-5.0712,-5.0712,-5.0712,-5.0712,-5.0712,-5.0712,-5.0712,-5.0712,-5.0712,-5.0712,-5.0712,-5.0712,-4.9336,-4.8105,-4.8105,-4.674,-4.5594,-4.5594,-4.5594,-4.5594,-4.5594,-4.5594,-4.5594,-4.5594,-4.5594,-4.5594,-4.5594,-4.5594,-4.5594,-4.5594,-4.5594,-4.5594,-4.5594,-4.5594,-4.5594,-4.5594,-4.5594,-4.5594,-4.5594,-4.5594,-4.5594,-4.5594,-4.5594,-4.5594,-4.5594,-4.5594,-4.5594,-3.4481,-3.5308,-3.6077,-3.843,-3.8642,-3.8892,-4.125,-4.045,-3.9881,-4.2258,-4.2777,0.0,0.0,0.0,0.0,0.0,0.0,0.0,0.0,0.0,0.0,0.0,0.0,0.0,0.0,0.0,0.0,0.0,0.0,0.0,0.0,0.0,0.0,0.0,0.0,0.0,-5.83,-5.83,-5.8338,-5.8396,-5.8396,-5.7934,-5.7099,-5.7041,-5.656,-5.578,-5.5722,-5.5703,-5.5703,-5.5703,-5.5703,-5.5703,-5.5703,-5.5703,-5.5703,-5.5703,-5.5184,-5.4376,-5.3568,-5.2673,-5.1769,-5.1029,-5.075,-5.0712,-5.0712,-5.0712,-5.0712,-5.0712,-5.0712,-5.0712,-5.0712,-5.0712,-5.0712,-5.0712,-5.0712,-5.0712,-5.0712,-4.9336,-4.8105,-4.8105,-4.674,-4.5594,-4.5594,-4.5594,-4.5594,-4.5594,-4.5594,-4.5594,-4.5594,-4.5594,-4.5594,-4.5594,-4.5594,-4.5594,-4.5594,-4.5594,-4.5594,-4.5594,-4.5594,-4.5594,-4.5594,-4.5594,-4.5594,-4.5594,-4.5594,-4.5594,-4.5594,-4.5594,-4.5594,-4.5594,-4.5594,-4.5594,-3.1923,-3.3487,-3.5161,-3.718,-3.8623,-4.0219,-4.2777,-4.3701,-4.4605,-4.6605,-4.7028,0.0,0.0,0.0,0.0,0.0,0.0,0.0,0.0,0.0,0.0,0.0,0.0,0.0,0.0,0.0,0.0,0.0,0.0,0.0,0.0,0.0,0.0,0.0,0.0,0.0,0.0,-5.6684,-5.6684,-5.6684,-5.7223,-5.703,-5.6195,-5.6195,-5.6011,-5.5703,-5.5703,-5.5703,-5.5703,-5.5703,-5.5703,-5.5703,-5.5703,-5.5703,-5.5645,-5.5145,-5.4414,-5.3568,-5.2692,-5.1856,-5.1106,-5.0808,-5.0712,-5.0712,-5.0712,-5.0712,-5.0712,-5.0712,-5.0712,-5.0712,-5.0712,-5.0712,-5.0712,-5.0712,-5.0712,-5.0712,-5.0712,-4.9336,-4.8105,-4.8105,-4.674,-4.5594,-4.5594,-4.5594,-4.5594,-4.5594,-4.5594,-4.5594,-4.5594,-4.5594,-4.5594,-4.5594,-4.5594,-4.5594,-4.5594,-4.5594,-4.5594,-4.5594,-4.5594,-4.5594,-4.5594,-4.5594,-4.5594,-4.5594,-4.5594,-4.5594,-4.5594,-4.5594,-4.5594,-4.5594,-4.5594,-4.5594,-3.1102,-3.2852,-3.5007,-3.6699,-3.8623,-4.0939,-4.4008,-4.5624,-4.7182,-4.9683,-4.9779,-4.9221,-4.8625,0.0,0.0,0.0,0.0,0.0,0.0,0.0,0.0,0.0,0.0,0.0,0.0,0.0,0.0,0.0,0.0,0.0,0.0,0.0,0.0,0.0,0.0,0.0,0.0,-5.5703,-5.5703,-5.5703,-5.631,-5.6291,-5.5703,-5.5703,-5.5703,-5.5703,-5.5703,-5.5703,-5.5703,-5.5703,-5.5549,-5.5318,-5.5318,-5.5145,-5.4838,-5.4299,-5.3549,-5.2692,-5.2115,-5.1375,-5.0712,-5.0712,-5.0712,-5.0712,-5.0712,-5.0712,-5.0712,-5.0712,-5.0712,-5.0712,-5.0712,-5.0712,-5.0712,-5.0712,-5.0712,-5.0712,-5.0712,-4.9336,-4.8105,-4.8105,-4.674,-4.5594,-4.5594,-4.5594,-4.5594,-4.5594,-4.5594,-4.5594,-4.5594,-4.5594,-4.5594,-4.5594,-4.5594,-4.5594,-4.5594,-4.5594,-4.5594,-4.5594,-4.5594,-4.5594,-4.5594,-4.5594,-4.5594,-4.5594,-4.5594,-4.5594,-4.5594,-4.5594,-4.5594,-4.5594,-4.5594,-4.5594,-3.3122,-3.418,-3.5904,-3.7584,-3.8681,-4.0458,-4.4671,-4.5614,-4.6817,-5.1058,-5.0606,-4.9433,-4.9433,0.0,0.0,0.0,0.0,0.0,0.0,0.0,0.0,0.0,0.0,0.0,0.0,0.0,0.0,0.0,0.0,0.0,0.0,0.0,0.0,0.0,0.0,0.0,0.0,-5.5703,-5.5703,-5.5703,-5.5703,-5.5703,-5.5703,-5.5703,-5.5703,-5.5703,-5.5703,-5.5703,-5.5684,-5.5684,-5.5203,-5.4491,-5.4491,-5.3953,-5.3203,-5.3203,-5.2635,-5.1904,-5.1885,-5.1375,-5.0712,-5.0712,-5.0712,-5.0712,-5.0712,-5.0712,-5.0712,-5.0712,-5.0712,-5.0712,-5.0712,-5.0712,-5.0712,-5.0712,-5.0712,-5.0712,-5.0693,-4.9317,-4.8105,-4.8086,-4.674,-4.5594,-4.5594,-4.5594,-4.5594,-4.5594,-4.5594,-4.5594,-4.5594,-4.5594,-4.5594,-4.5594,-4.5594,-4.5594,-4.5594,-4.5594,-4.5594,-4.5594,-4.5594,-4.5594,-4.5594,-4.5594,-4.5594,-4.5594,-4.5594,-4.5594,-4.5594,-4.5594,-4.5594,-4.5594,-4.5594,-4.5594,-3.2122,-3.3731,-3.5904,-3.7584,-4.0893,-4.4229,-4.6086,-4.7432,-4.9298,0.0,-5.2856,-5.1895,-5.1279,0.0,0.0,0.0,0.0,0.0,0.0,0.0,0.0,0.0,0.0,0.0,0.0,0.0,0.0,0.0,0.0,0.0,0.0,0.0,0.0,0.0,0.0,0.0,0.0,0.0,-5.5703,-5.5703,-5.5703,-5.5703,-5.5703,-5.5703,-5.5703,-5.5703,-5.5703,-5.5376,-5.4799,-5.4184,-5.3799,-5.3587,-5.3587,-5.3433,-5.3126,-5.25,-5.2115,-5.1808,-5.1241,-5.0894,-5.0712,-5.0712,-5.0712,-5.0712,-5.0712,-5.0712,-5.0712,-5.0712,-5.0712,-5.0712,-5.0712,-5.0712,-5.0712,-5.0712,-5.0712,-5.0539,-4.9913,-4.8894,-4.7932,-4.7375,-4.6355,-4.5594,-4.5594,-4.5594,-4.5594,-4.5594,-4.5594,-4.5594,-4.5594,-4.5594,-4.5594,-4.5594,-4.5594,-4.5594,-4.5594,-4.5594,-4.5594,-4.5594,-4.5594,-4.5594,-4.5594,-4.5594,-4.5594,-4.5594,-4.5594,-4.5594,-4.5594,-4.5594,-4.5594,-4.5594,-4.5594,-4.5594,-3.393,-3.5815,-3.8046,-4.0431,-4.3066,-4.5663,-4.7894,0.0,0.0,0.0,0.0,-5.2731,0.0,0.0,0.0,0.0,0.0,0.0,0.0,0.0,0.0,0.0,0.0,0.0,0.0,0.0,0.0,0.0,0.0,0.0,0.0,0.0,0.0,0.0,0.0,0.0,0.0,0.0,0.0,-5.5703,-5.5376,-5.5222,-5.5222,-5.5549,-5.553,-5.5203,-5.4857,-5.4434,-5.3933,-5.3414,-5.301,-5.2673,-5.2673,-5.2491,-5.2145,-5.1625,-5.1414,-5.1356,-5.0856,-5.0712,-5.0712,-5.0712,-5.0712,-5.0712,-5.0712,-5.0712,-5.0712,-5.0712,-5.0712,-5.0712,-5.0712,-5.0712,-5.0712,-5.0712,-5.0712,-5.0462,-4.9586,-4.8721,-4.7855,-4.7058,-4.6201,-4.5594,-4.5594,-4.5594,-4.5594,-4.5594,-4.5594,-4.5594,-4.5594,-4.5594,-4.5594,-4.5594,-4.5594,-4.5594,-4.5594,-4.5594,-4.5594,-4.5594,-4.5594,-4.5594,-4.5594,-4.5594,-4.5594,-4.5594,-4.5594,-4.5594,-4.5594,-4.5594,-4.5594,-4.5594,-4.5594,-4.5594,-3.7123,-3.9046,-4.1208,-4.4633,-4.5124,0.0,-4.9788,-5.1279,-5.2058,-5.301,0.0,0.0,0.0,0.0,0.0,0.0,0.0,0.0,0.0,0.0,0.0,0.0,0.0,0.0,0.0,0.0,0.0,0.0,0.0,0.0,0.0,0.0,0.0,0.0,0.0,0.0,0.0,0.0,0.0,0.0,-5.4722,-5.4376,-5.4414,-5.5145,-5.5068,-5.4337,-5.3453,-5.3087,-5.3087,-5.301,-5.251,-5.1788,-5.1788,-5.1337,-5.0712,-5.0712,-5.0712,-5.0712,-5.0712,-5.0712,-5.0712,-5.0712,-5.0712,-5.0712,-5.0712,-5.0712,-5.0712,-5.0712,-5.0712,-5.0712,-5.0712,-5.0635,-5.0577,-5.0577,-5.0577,-5.0346,-4.9471,-4.8606,-4.7759,-4.6951,-4.6144,-4.5594,-4.5594,-4.5594,-4.5594,-4.5594,-4.5594,-4.5594,-4.5594,-4.5594,-4.5594,-4.5594,-4.5594,-4.5594,-4.5594,-4.5594,-4.5594,-4.5594,-4.5594,-4.5594,-4.5594,-4.5594,-4.5594,-4.5594,-4.5594,-4.5594,-4.5594,-4.5594,-4.5594,-4.5594,-4.5594,-4.5594,-3.5692,-3.7757,0.0,-4.3739,-4.6451,-4.8721,-5.0327,-5.0827,-5.1375,-5.2895,0.0,0.0,0.0,0.0,0.0,0.0,0.0,0.0,0.0,0.0,0.0,0.0,0.0,0.0,0.0,0.0,0.0,0.0,0.0,0.0,0.0,0.0,0.0,0.0,0.0,0.0,-5.3741,-5.3741,-5.3741,0.0,-5.3568,-5.3491,-5.3491,-5.3664,-5.3645,-5.3433,-5.2558,-5.2173,-5.2135,-5.1491,-5.1125,-5.0952,-5.0952,-5.0837,-5.0712,-5.0712,-5.0712,-5.0712,-5.0712,-5.0712,-5.0712,-5.0712,-5.0712,-5.0712,-5.0712,-5.0712,-5.0712,-5.0712,-5.0712,-5.0712,-5.0712,-5.0183,-4.9683,-4.9683,-4.9683,-4.9433,-4.8567,-4.774,-4.6894,-4.6047,-4.5729,-4.5594,-4.5594,-4.5594,-4.5594,-4.5594,-4.5594,-4.5594,-4.5594,-4.5594,-4.5594,-4.5594,-4.5594,-4.5594,-4.5594,-4.5594,-4.5594,-4.5594,-4.5594,-4.5594,-4.5594,-4.5594,-4.5594,-4.5594,-4.5594,-4.5594,-4.5594,-4.5594,-4.5594,-4.5594,-4.5594,-4.5594,-3.5911,-3.8257,0.0,-4.5066,0.0,-4.9625,-5.05,-5.0712,-5.0962,0.0,0.0,0.0,0.0,0.0,0.0,0.0,0.0,0.0,0.0,0.0,0.0,0.0,0.0,0.0,0.0,0.0,0.0,0.0,0.0,0.0,0.0,0.0,0.0,0.0,0.0,0.0,-5.3203,-5.3203,-5.3203,-5.3203,-5.2779,-5.2375,-5.201,-5.2395,-5.2577,-5.2519,-5.1683,-5.1337,-5.1298,-5.0856,-5.0712,-5.0712,-5.0712,-5.0712,-5.0712,-5.0712,-5.0712,-5.0712,-5.0712,-5.0712,-5.0712,-5.0712,-5.0712,-5.0712,-5.0712,-5.0712,-5.0712,-5.0712,-5.0712,-5.0596,-5.0192,-4.974,-4.9298,-4.8875,-4.8779,-4.8548,-4.7721,-4.7201,-4.6644,-4.5768,-4.5594,-4.5594,-4.5594,-4.5594,-4.5594,-4.5594,-4.5594,-4.5594,-4.5594,-4.5594,-4.5594,-4.5594,-4.5594,-4.5594,-4.5594,-4.5594,-4.5594,-4.5594,-4.5594,-4.5594,-4.5594,-4.5594,-4.5594,-4.5594,-4.5594,-4.5594,-4.5594,-4.5594,-4.5594,-4.5594,-4.5594,-4.5594,-3.5699,-3.8777,-4.1835,-4.6509,-4.8548,0.0,-5.0308,-5.0596,0.0,0.0,0.0,0.0,0.0,0.0,0.0,0.0,0.0,0.0,0.0,0.0,0.0,0.0,0.0,0.0,0.0,0.0,0.0,0.0,0.0,0.0,0.0,0.0,0.0,0.0,0.0,-5.2779,-5.2779,-5.2779,-5.2779,-5.276,-5.2049,-5.1337,-5.0731,-5.1395,-5.1692,-5.1654,-5.0991,-5.0712,-5.0712,-5.0712,-5.0712,-5.0712,-5.0712,-5.0712,-5.0712,-5.0712,-5.0712,-5.0712,-5.0712,-5.0712,-5.0712,-5.0712,-5.0712,-5.0712,-5.0712,-5.0712,-5.0673,-5.0519,-5.0481,-5.0269,-4.9394,-4.9067,-4.8798,-4.8067,-4.7778,-4.7528,-4.7,-4.6778,-4.6471,-4.5748,-4.5594,-4.5594,-4.5594,-4.5594,-4.5594,-4.5594,-4.5594,-4.5594,-4.5594,-4.5594,-4.5594,-4.5594,-4.5594,-4.5594,-4.5594,-4.5594,-4.5594,-4.5594,-4.5594,-4.5594,-4.5594,-4.5594,-4.5594,-4.5594,-4.5594,-4.5594,-4.5594,-4.5594,-4.5594,-4.5594,-4.5594,-4.5594,-3.1948,0.0,-4.2316,0.0,-4.7682,-4.9433,0.0,0.0,0.0,0.0,0.0,0.0,0.0,0.0,0.0,0.0,0.0,0.0,0.0,0.0,0.0,0.0,0.0,0.0,0.0,0.0,0.0,0.0,0.0,0.0,0.0,0.0,-5.176,-5.1058,-5.1039,0.0,-5.1039,-5.1039,-5.1039,-5.1039,-5.0923,-5.0808,-5.0712,-5.0808,-5.0856,-5.0837,-5.075,-5.0712,-5.0712,-5.0712,-5.0712,-5.0712,-5.0712,-5.0712,-5.0712,-5.0712,-5.0712,-5.0712,-5.0712,-5.0712,-5.0712,-5.0712,-5.0712,-5.0712,-5.0712,-5.0712,-5.0539,-4.9779,-4.9567,-4.9375,-4.8509,-4.7759,-4.7201,-4.7077,-4.6471,-4.6105,-4.6759,-4.6317,-4.5748,-4.5614,-4.5594,-4.5594,-4.5594,-4.5594,-4.5594,-4.5594,-4.5594,-4.5594,-4.5594,-4.5594,-4.5594,-4.5594,-4.5594,-4.5594,-4.5594,-4.5594,-4.5594,-4.5594,-4.5594,-4.5594,-4.5594,-4.5594,-4.5594,-4.5594,-4.5594,-4.5594,-4.5594,-4.5594,-4.5594,-4.5594,-4.5594,-4.5594,-3.2712,-3.6699,-4.0623,0.0,-4.6441,-4.7509,-4.8452,0.0,0.0,0.0,0.0,0.0,0.0,0.0,0.0,0.0,0.0,0.0,0.0,0.0,0.0,0.0,0.0,0.0,0.0,0.0,0.0,0.0,0.0,0.0,0.0,-5.1221,-5.1068,-5.0712,-5.0712,0.0,-5.0712,-5.0712,-5.0712,-5.0712,-5.0712,-5.0712,-5.0712,-5.0712,-5.0712,-5.0712,-5.0712,-5.0712,-5.0712,-5.0712,-5.0712,-5.0712,-5.0712,-5.0712,-5.0712,-5.0712,-5.0712,-5.0712,-5.0712,-5.0712,-5.0712,-5.0712,-5.0712,-5.0712,-5.0712,-5.0712,-5.0519,-4.9644,-4.9394,-4.9106,-4.7778,-4.7173,-4.6778,-4.6297,-4.5883,-4.571,-4.6086,-4.5883,-4.5594,-4.5594,-4.5594,-4.5594,-4.5594,-4.5594,-4.5594,-4.5594,-4.5594,-4.5594,-4.5594,-4.5594,-4.5594,-4.5594,-4.5594,-4.5594,-4.5594,-4.5594,-4.5594,-4.5594,-4.5594,-4.5594,-4.5594,-4.5594,-4.5594,-4.5594,-4.5594,-4.5594,-4.5594,-4.5594,-4.5594,-4.5594,-4.5594,-4.5594,0.0,0.0,-3.7815,-4.2497,-4.4479,-4.5671,0.0,0.0,0.0,0.0,0.0,0.0,0.0,0.0,0.0,0.0,0.0,0.0,0.0,0.0,0.0,0.0,0.0,0.0,0.0,0.0,0.0,0.0,0.0,0.0,-5.0712,-5.0712,-5.0712,-5.0712,-5.0712,-5.0712,-5.0712,-5.0712,-5.0712,-5.0712,-5.0712,-5.0712,-5.0712,-5.0712,-5.0712,-5.0712,-5.0712,-5.0712,-5.0712,-5.0712,-5.0712,-5.0712,-5.0712,-5.0712,-5.0712,-5.0712,-5.0712,-5.0712,-5.0712,-5.0712,-5.0712,-5.0712,-5.0712,-5.0712,-5.0712,-5.0712,-5.0481,-4.9375,-4.9067,-4.8682,-4.7009,-4.6567,-4.6413,-4.5748,-4.5594,-4.5594,-4.5594,-4.5594,-4.5594,-4.5594,-4.5594,-4.5594,-4.5594,-4.5594,-4.5594,-4.5594,-4.5594,-4.5594,-4.5594,-4.5594,-4.5594,-4.5594,-4.5594,-4.5594,-4.5594,-4.5594,-4.5594,-4.5594,-4.5594,-4.5594,-4.5594,-4.5594,-4.5594,-4.5594,-4.5594,-4.5594,-4.5594,-4.5594,-4.5594,-4.5594,-4.5594,-4.5594,0.0,-3.1256,0.0,-3.7526,-4.1412,0.0,0.0,0.0,0.0,0.0,0.0,0.0,0.0,0.0,0.0,0.0,0.0,0.0,0.0,0.0,0.0,0.0,0.0,0.0,0.0,0.0,0.0,0.0,0.0,0.0,-5.0712,-5.0712,-5.0712,-5.0712,-5.0712,-5.0712,-5.0712,-5.0712,-5.0712,-5.0712,-5.0712,-5.0712,-5.0712,-5.0712,-5.0712,-5.0712,-5.0712,-5.0712,-5.0712,-5.0712,-5.0712,-5.0712,-5.0712,-5.0712,-5.0712,-5.0712,-5.0712,-5.0712,-5.0712,-5.0712,-5.0712,-5.0712,-5.0712,-5.0712,-5.0712,-5.0712,-5.0346,-4.8644,-4.8163,-4.7778,-4.6095,-4.5671,-4.5671,-4.5614,-4.5594,-4.5594,-4.5594,-4.5594,-4.5594,-4.5594,-4.5594,-4.5594,-4.5594,-4.5594,-4.5594,-4.5594,-4.5594,-4.5594,-4.5594,-4.5594,-4.5594,-4.5594,-4.5594,-4.5594,-4.5594,-4.5594,-4.5594,-4.5594,-4.5594,-4.5594,-4.5594,-4.5594,-4.5594,-4.5594,-4.5594,-4.5594,-4.5594,-4.5594,-4.5594,-4.5594,-4.5594,-4.5594,0.0,0.0,0.0,-3.5538,-3.8757,-4.145,0.0,0.0,0.0,0.0,0.0,0.0,0.0,0.0,0.0,0.0,0.0,0.0,0.0,0.0,0.0,0.0,0.0,0.0,0.0,0.0,0.0,0.0,0.0,0.0,-5.0712,-5.0712,-5.0442,-4.9875,-5.0423,-5.0712,-5.0712,-5.0712,-5.0712,-5.0712,-5.0712,-5.0712,-5.0712,-5.0712,-5.0712,-5.0712,-5.0712,-5.0712,-5.0712,-5.0712,-5.0712,-5.0712,-5.0712,-5.0712,-5.0712,-5.0712,-5.0712,-5.0712,-5.0712,-5.0712,-5.0712,-5.0712,-5.0327,-4.9971,-5.0539,-4.9913,-4.8894,-4.8279,-4.774,-4.7067,-4.5902,-4.5594,-4.5594,-4.5594,-4.5594,-4.5594,-4.5594,-4.5594,-4.5594,-4.5594,-4.5594,-4.5594,-4.5594,-4.5594,-4.5594,-4.5594,-4.5594,-4.5594,-4.5594,-4.5594,-4.5594,-4.5594,-4.5594,-4.5594,-4.5594,-4.5594,-4.5594,-4.5594,-4.5594,-4.5594,-4.5594,-4.5594,-4.5594,-4.5594,-4.5594,-4.5594,-4.5594,-4.5594,-4.5594,-4.5594,-4.5594,-4.5594,-2.7601,0.0,0.0,0.0,0.0,0.0,0.0,0.0,0.0,0.0,0.0,0.0,0.0,0.0,0.0,0.0,0.0,0.0,0.0,0.0,0.0,0.0,0.0,0.0,0.0,0.0,0.0,0.0,0.0,0.0,-4.9817,-4.9817,-4.9548,-4.8971,-4.9529,-4.9817,-4.9817,-4.9817,-4.9817,-4.9817,-4.9817,-4.9817,-4.9817,-4.9817,-4.9817,-4.9817,-4.9817,-5.0164,-5.0712,-5.0712,-5.0712,-5.0712,-5.0712,-5.0712,-5.0712,-5.0712,-5.0712,-5.0712,-5.0712,-5.0712,-5.0654,-5.0366,-4.9875,-4.9452,-4.974,-4.9029,-4.8048,-4.7778,-4.7308,-4.6701,-4.5825,-4.5594,-4.5594,-4.5594,-4.5594,-4.5594,-4.5594,-4.5594,-4.5594,-4.5594,-4.5594,-4.5594,-4.5594,-4.5594,-4.5594,-4.5594,-4.5594,-4.5594,-4.5594,-4.5594,-4.5594,-4.5594,-4.5594,-4.5594,-4.5594,-4.5594,-4.5594,-4.5594,-4.5594,-4.5594,-4.5594,-4.5594,-4.5594,-4.5594,-4.5594,-4.5594,-4.5594,-4.5594,-4.5594,-4.5594,-4.5594,-4.5594,0.0,0.0,0.0,0.0,0.0,0.0,0.0,0.0,0.0,0.0,0.0,0.0,0.0,0.0,0.0,0.0,0.0,0.0,0.0,0.0,0.0,0.0,0.0,0.0,0.0,0.0,0.0,0.0,0.0,-4.8105,-4.8105,-4.8086,-4.8086,-4.8105,-4.8086,-4.8086,-4.8105,-4.8105,-4.8105,-4.8105,-4.8105,-4.8105,-4.8105,-4.8105,-4.8105,-4.8105,-4.8105,-4.9067,-5.0616,-5.0616,-5.0635,-5.0654,-5.0654,-5.0673,-5.0712,-5.0712,-5.0673,-5.0654,-5.0654,-5.0635,-5.0481,-4.9644,-4.9356,-4.9163,-4.8355,-4.8067,-4.7875,-4.7096,-4.6885,-4.6682,-4.5825,-4.5594,-4.5594,-4.5594,-4.5594,-4.5594,-4.5594,-4.5594,-4.5594,-4.5594,-4.5594,-4.5594,-4.5594,-4.5594,-4.5594,-4.5594,-4.5594,-4.5594,-4.5594,-4.5594,-4.5594,-4.5594,-4.5594,-4.5594,-4.5594,-4.5594,-4.5594,-4.5594,-4.5594,-4.5594,-4.5594,-4.5594,-4.5594,-4.5594,-4.5594,-4.5594,-4.5594,-4.5594,-4.5594,-4.5594,-4.5594,-4.5594,-2.6486,0.0,0.0,0.0,0.0,0.0,0.0,0.0,0.0,0.0,0.0,0.0,0.0,0.0,0.0,0.0,0.0,0.0,0.0,0.0,0.0,0.0,0.0,0.0,0.0,0.0,0.0,0.0,0.0,-4.8105,-4.8105,-4.7548,-4.7509,-4.8086,-4.7548,-4.7509,-4.8086,-4.8105,-4.8105,-4.8105,-4.8105,-4.8105,-4.8105,-4.8105,-4.8105,-4.8105,-4.8105,-4.8375,-4.8817,-4.8817,-4.9183,-4.976,-4.976,-5.0144,-5.0712,-5.0712,-5.0308,-4.976,-4.976,-4.9356,-4.8779,-4.8548,-4.8067,-4.7663,-4.8009,-4.7259,-4.6374,-4.6797,-4.6451,-4.5893,-4.5671,-4.5594,-4.5594,-4.5594,-4.5594,-4.5594,-4.5594,-4.5594,-4.5594,-4.5594,-4.5594,-4.5594,-4.5594,-4.5594,-4.5594,-4.5594,-4.5594,-4.5594,-4.5594,-4.5594,-4.5594,-4.5594,-4.5594,-4.5594,-4.5594,-4.5594,-4.5594,-4.5594,-4.5594,-4.5594,-4.5594,-4.5594,-4.5594,-4.5594,-4.5594,-4.5594,-4.5594,-4.5594,-4.5594,-4.5594,-4.5594,-4.5594,-2.8063,-2.8275,0.0,0.0,0.0,0.0,0.0,0.0,0.0,0.0,0.0,0.0,0.0,0.0,0.0,0.0,0.0,0.0,0.0,0.0,0.0,0.0,0.0,0.0,0.0,0.0,0.0,0.0,-4.7259,-4.7067,-4.7067,-4.6605,-4.6567,-4.7048,-4.6605,-4.6586,-4.7048,-4.7067,-4.7067,-4.7067,-4.7067,-4.7067,-4.7067,-4.7067,-4.7067,-4.7067,-4.7067,-4.7067,-4.7067,-4.7067,-4.7778,-4.8856,-4.8856,-4.9163,-4.9625,-4.9625,-4.9298,-4.8856,-4.8856,-4.8529,-4.8048,-4.7721,-4.7269,-4.6932,-4.7028,-4.6374,-4.571,-4.6201,-4.599,-4.5594,-4.5594,-4.5594,-4.5594,-4.5594,-4.5594,-4.5594,-4.5594,-4.5594,-4.5594,-4.5594,-4.5594,-4.5594,-4.5594,-4.5594,-4.5594,-4.5594,-4.5594,-4.5594,-4.5594,-4.5594,-4.5594,-4.5594,-4.5594,-4.5594,-4.5594,-4.5594,-4.5594,-4.5594,-4.5594,-4.5594,-4.5594,-4.5594,-4.5594,-4.5594,-4.5594,-4.5594,-4.5594,-4.5594,-4.5594,-4.5594,-4.5594,-4.5594,-3.0319,-3.0237,0.0,0.0,0.0,0.0,-3.4641,-3.4718,0.0,0.0,0.0,0.0,0.0,0.0,0.0,0.0,0.0,0.0,0.0,0.0,0.0,0.0,0.0,0.0,0.0,0.0,0.0,-4.6759,-4.6028,-4.5594,-4.5594,-4.5594,-4.5594,-4.5594,-4.5594,-4.5594,-4.5594,-4.5594,-4.5594,-4.5594,-4.5594,-4.5594,-4.5594,-4.5594,-4.5594,-4.5594,-4.5594,-4.5594,-4.5594,-4.5594,-4.6528,-4.7971,-4.7971,-4.8029,-4.8105,-4.8105,-4.8048,-4.7971,-4.7971,-4.7894,-4.7702,-4.699,-4.6759,-4.6605,-4.5825,-4.5594,-4.5594,-4.5594,-4.5594,-4.5594,-4.5594,-4.5594,-4.5594,-4.5594,-4.5594,-4.5594,-4.5594,-4.5594,-4.5594,-4.5594,-4.5594,-4.5594,-4.5594,-4.5594,-4.5594,-4.5594,-4.5594,-4.5594,-4.5594,-4.5594,-4.5594,-4.5594,-4.5594,-4.5594,-4.5594,-4.5594,-4.5594,-4.5594,-4.5594,-4.5594,-4.5594,-4.5594,-4.5594,-4.5594,-4.5594,-4.5594,-4.5594,-4.5594,-4.5594,-4.5594,-4.5594,-4.5594,-3.3532,0.0,0.0,0.0,0.0,0.0,0.0,-3.041,0.0,0.0,0.0,0.0,0.0,0.0,0.0,0.0,0.0,0.0,0.0,0.0,0.0,0.0,0.0,0.0,0.0,0.0,-4.5855,-4.5855,-4.571,-4.5594,-4.5594,-4.5594,-4.5594,-4.5594,-4.5594,-4.5594,-4.5594,-4.5594,-4.5594,-4.5594,-4.5594,-4.5594,-4.5594,-4.5594,-4.5594,-4.5594,-4.5594,-4.5594,-4.5594,-4.5594,-4.6201,-4.7135,-4.7135,-4.7528,-4.8105,-4.8105,-4.7702,-4.7135,-4.7135,-4.6663,-4.6056,-4.5902,-4.5855,-4.5825,-4.5652,-4.5594,-4.5594,-4.5594,-4.5594,-4.5594,-4.5594,-4.5594,-4.5594,-4.5594,-4.5594,-4.5594,-4.5594,-4.5594,-4.5594,-4.5594,-4.5594,-4.5594,-4.5594,-4.5594,-4.5594,-4.5594,-4.5594,-4.5594,-4.5594,-4.5594,-4.5594,-4.5594,-4.5594,-4.5594,-4.5594,-4.5594,-4.5594,-4.5594,-4.5594,-4.5594,-4.5594,-4.5594,-4.5594,-4.5594,-4.5594,-4.5594,-4.5594,-4.5594,-4.5594,-4.5594,-4.5594,-4.5594,0.0,0.0,0.0,-3.4949,0.0,0.0,0.0,0.0,0.0,0.0,0.0,0.0,0.0,0.0,0.0,0.0,0.0,0.0,0.0,0.0,0.0,0.0,0.0,0.0,0.0,0.0,-4.5594,-4.5594,-4.5594,-4.5594,-4.5594,-4.5594,-4.5594,-4.5594,-4.5594,-4.5594,-4.5594,-4.5594,-4.5594,-4.5594,-4.5594,-4.5594,-4.5594,-4.5594,-4.5594,-4.5594,-4.5594,-4.5594,-4.5594,-4.5594,-4.5864,-4.624,-4.624,-4.649,-4.6855,-4.6855,-4.6605,-4.624,-4.624,-4.597,-4.5594,-4.5594,-4.5594,-4.5594,-4.5594,-4.5594,-4.5594,-4.5594,-4.5594,-4.5594,-4.5594,-4.5594,-4.5594,-4.5594,-4.5594,-4.554,-4.539,-4.5485,-4.5559,-4.5371,-4.5485,-4.5594,-4.5594,-4.5594,-4.5594,-4.5594,-4.5594,-4.5594,-4.5594,-4.5594,-4.5594,-4.5594,-4.5594,-4.5594,-4.5594,-4.5594,-4.5594,-4.5594,-4.5594,-4.5594,-4.5594,-4.5594,-4.5594,-4.5594,-4.5594,-4.5594,-4.5594,-4.5594,-4.5594,-4.5594,-4.5594,-4.5594,0.0,0.0,0.0,0.0,0.0,-3.3545,0.0,0.0,0.0,-3.3596,0.0,0.0,0.0,0.0,0.0,0.0,0.0,0.0,0.0,0.0,0.0,0.0,0.0,0.0,0.0,0.0,-4.4652,-4.5306,-4.4902,-4.4902,-4.5556,-4.5594,-4.5594,-4.5594,-4.5594,-4.5594,-4.5594,-4.5594,-4.5594,-4.5594,-4.5594,-4.5594,-4.5594,-4.5594,-4.5594,-4.5594,-4.5594,-4.5594,-4.5594,-4.5594,-4.5594,-4.5594,-4.5594,-4.5594,-4.5594,-4.5594,-4.5594,-4.5594,-4.5594,-4.5594,-4.5594,-4.5594,-4.5594,-4.5594,-4.5594,-4.5594,-4.5594,-4.5594,-4.5594,-4.5594,-4.5594,-4.5594,-4.5577,-4.5513,-4.5504,-4.5419,-4.5074,-4.5222,-4.5332,-4.5063,-4.5263,-4.5522,-4.5586,-4.5594,-4.5594,-4.5594,-4.5594,-4.5594,-4.5594,-4.5594,-4.5594,-4.5594,-4.5594,-4.5594,-4.5594,-4.5594,-4.5594,-4.5594,-4.5594,-4.5594,-4.5594,-4.5594,-4.5594,-4.5594,-4.5594,-4.5594,-4.5594,-4.5594,-4.5594,-4.5594,-4.5594,-4.5594,0.0,0.0,0.0,0.0,-3.818,0.0,0.0,0.0,-3.1872,-2.9294,0.0,0.0,0.0,0.0,0.0,0.0,0.0,0.0,0.0,0.0,0.0,0.0,0.0,0.0,0.0,0.0,0.0,-4.422,-4.2362,-4.2401,-4.5441,-4.5594,-4.5594,-4.5594,-4.5594,-4.5594,-4.5594,-4.5594,-4.5594,-4.5594,-4.5594,-4.5594,-4.5594,-4.5594,-4.5594,-4.5594,-4.5594,-4.5594,-4.5594,-4.5594,-4.5594,-4.5594,-4.5594,-4.5594,-4.5594,-4.5594,-4.5594,-4.5594,-4.5594,-4.5594,-4.5594,-4.5594,-4.5594,-4.5594,-4.5594,-4.5594,-4.5594,-4.5594,-4.5594,-4.5594,-4.5594,-4.5594,-4.5541,-4.5222,-4.5169,-4.5063,-4.4739,-4.4682,-4.4695,-4.4657,-4.4931,-4.5243,-4.5559,-4.5594,-4.5594,-4.5594,-4.5594,-4.5594,-4.5594,-4.5594,-4.5594,-4.5594,-4.5594,-4.5594,-4.5594,-4.5594,-4.5594,-4.5594,-4.5594,-4.5594,-4.5594,-4.5594,-4.5594,-4.5594,-4.5594,-4.5594,-4.5594,-4.5594,-4.5594,-4.5594,-4.5594,-4.5594,0.0,0.0,0.0,0.0,0.0,0.0,0.0,0.0,-3.1333,0.0,0.0,0.0,0.0,0.0,0.0,0.0,0.0,0.0,0.0,0.0,0.0,0.0,0.0,0.0,0.0,0.0,0.0,0.0,0.0,-4.1073,-4.3989,-4.4586,-4.5075,-4.5575,-4.5594,-4.5594,-4.5594,-4.5594,-4.5594,-4.5594,-4.5594,-4.5594,-4.5594,-4.5594,-4.5594,-4.5594,-4.5594,-4.5594,-4.5594,-4.5594,-4.5594,-4.5594,-4.5594,-4.5594,-4.5594,-4.5594,-4.5594,-4.5594,-4.5594,-4.5594,-4.5594,-4.5594,-4.5594,-4.5594,-4.5594,-4.5594,-4.5559,-4.5362,-4.5312,-4.5282,-4.5055,-4.5022,-4.4988,-4.4849,-4.4812,-4.4707,-4.4332,-4.4447,-4.4527,-4.4308,-4.4701,-4.514,-4.5292,-4.5476,-4.5594,-4.5594,-4.5594,-4.5594,-4.5594,-4.5594,-4.5594,-4.5594,-4.5594,-4.5594,-4.5594,-4.5594,-4.5594,-4.5594,-4.5594,-4.5594,-4.5594,-4.5594,-4.5594,-4.5594,-4.5594,-4.5594,-4.5594,-4.5594,-4.5594,-4.5594,-4.5594,-4.5594,-4.3627,0.0,0.0,0.0,0.0,0.0,0.0,0.0,0.0,0.0,0.0,0.0,0.0,0.0,0.0,0.0,0.0,0.0,0.0,0.0,0.0,0.0,0.0,0.0,0.0,0.0,0.0,0.0,0.0,0.0,-4.2566,-4.3528,-4.4355,-4.5229,-4.5479,-4.5594,-4.5594,-4.5594,-4.5594,-4.5594,-4.5594,-4.5594,-4.5594,-4.5594,-4.5594,-4.5594,-4.5594,-4.5594,-4.5594,-4.5594,-4.5594,-4.5594,-4.5594,-4.5594,-4.5594,-4.5594,-4.5594,-4.5594,-4.5594,-4.5594,-4.5594,-4.5594,-4.5594,-4.5594,-4.5594,-4.555,-4.541,-4.518,-4.5041,-4.4908,-4.4657,-4.4593,-4.4567,-4.446,-4.4447,-4.4337,-4.3958,-4.4091,-4.4209,-4.3927,-4.4373,-4.483,-4.4943,-4.5322,-4.5594,-4.5594,-4.5594,-4.5594,-4.5594,-4.5594,-4.5594,-4.5594,-4.5594,-4.5594,-4.5594,-4.5594,-4.5594,-4.5594,-4.5594,-4.5594,-4.5594,-4.5594,-4.5594,-4.5594,-4.5594,-4.5594,-4.5594,-4.5594,-4.5594,-4.5594,-4.5594,-4.5594,0.0,0.0,0.0,-3.8755,0.0,0.0,0.0,0.0,-3.3859,0.0,0.0,0.0,0.0,0.0,0.0,-3.0431,0.0,0.0,0.0,0.0,0.0,0.0,0.0,0.0,0.0,0.0,0.0,0.0,0.0,0.0,-4.1519,-4.2662,-4.3508,-4.4316,-4.5171,-4.5594,-4.5594,-4.5594,-4.5594,-4.5594,-4.5594,-4.5594,-4.5594,-4.5594,-4.5594,-4.5594,-4.5594,-4.5594,-4.5594,-4.5594,-4.5594,-4.5594,-4.5594,-4.5594,-4.5594,-4.5594,-4.5594,-4.5594,-4.5594,-4.5594,-4.5594,-4.5594,-4.5594,-4.5594,-4.5594,-4.5362,-4.5107,-4.5096,-4.4872,-4.4606,-4.4593,-4.4593,-4.4501,-4.4102,-4.4031,-4.3943,-4.3597,-4.3513,-4.3531,-4.3513,-4.3804,-4.4161,-4.4553,-4.5161,-4.5594,-4.5594,-4.5594,-4.5594,-4.5594,-4.5594,-4.5594,-4.5594,-4.5594,-4.5594,-4.5594,-4.5594,-4.5594,-4.5594,-4.5594,-4.5594,-4.5594,-4.5594,-4.5594,-4.5594,-4.5594,-4.5594,-4.5594,-4.5594,-4.5594,-4.5594,-4.5594,-4.5594,0.0,0.0,-4.3474,-4.0436,0.0,0.0,0.0,0.0,0.0,0.0,0.0,0.0,0.0,0.0,-3.298,-3.0781,-3.0015,0.0,0.0,0.0,0.0,0.0,0.0,0.0,0.0,0.0,0.0,0.0,0.0,0.0,0.0,-4.1489,-4.2874,-4.4259,-4.5152,-4.5594,-4.5594,-4.5594,-4.5594,-4.5594,-4.5594,-4.5594,-4.5594,-4.5594,-4.5594,-4.5594,-4.5594,-4.5594,-4.5594,-4.5594,-4.5594,-4.5594,-4.5594,-4.5594,-4.5594,-4.5594,-4.5594,-4.5594,-4.5594,-4.5594,-4.5594,-4.5594,-4.5594,-4.5594,-4.5594,-4.5381,-4.5052,-4.4837,-4.4514,-4.415,-4.3931,-4.3868,-4.3839,-4.3693,-4.3679,-4.3629,-4.3513,-4.3515,-4.3515,-4.3515,-4.3772,-4.4028,-4.4175,-4.4806,-4.5342,-4.5568,-4.5594,-4.5594,-4.5594,-4.5594,-4.5594,-4.5594,-4.5594,-4.5594,-4.5594,-4.5594,-4.5594,-4.5594,-4.5594,-4.5594,-4.5594,-4.5594,-4.5594,-4.5594,-4.5594,-4.5594,-4.5594,-4.5594,-4.5594,-4.5594,-4.5594,-4.5594,-4.4213,-4.402,0.0,0.0,-3.9227,0.0,-3.4711,0.0,0.0,0.0,0.0,0.0,0.0,0.0,0.0,-3.2235,-3.0386,0.0,0.0,0.0,0.0,0.0,0.0,0.0,0.0,0.0,-2.9566,-3.1958,0.0,0.0,0.0,0.0,-4.1681,-4.3355,-4.4528,-4.5287,-4.5594,-4.5594,-4.5594,-4.5594,-4.5594,-4.5594,-4.5594,-4.5594,-4.5594,-4.5594,-4.5594,-4.5594,-4.5594,-4.5594,-4.5594,-4.5594,-4.5594,-4.5594,-4.5594,-4.5594,-4.5594,-4.5594,-4.5594,-4.5594,-4.5577,-4.5448,-4.5419,-4.541,-4.5273,-4.4981,-4.4663,-4.4441,-4.4121,-4.3772,-4.3565,-4.3515,-4.3515,-4.3515,-4.3515,-4.3515,-4.3515,-4.3515,-4.3515,-4.3515,-4.366,-4.3958,-4.4358,-4.4814,-4.5188,-4.539,-4.5522,-4.5594,-4.5594,-4.5594,-4.5594,-4.5594,-4.5594,-4.5594,-4.5594,-4.5594,-4.5594,-4.5594,-4.5594,-4.5594,-4.5594,-4.5594,-4.5594,-4.5594,-4.5594,-4.5594,-4.5594,-4.5594,-4.5594,-4.5594,-4.5594,-4.5594]},{"header":{"parameterUnit":"m.s-1","parameterCategory":1,"la1":30.6,"la2":29.2853,"lo1":-89.7004,"lo2":-87.6739,"dy":0.0162,"dx":0.0183,"nx":112,"ny":82,"refTime":"2024-05-18T06:00:00:Z","depth":0,"parameterNumber":3,"parameterNumberName":"V-component_of_WINDS"},"data":[0.0,0.0,0.0,0.0,0.0,0.0,0.0,0.0,0.0,0.0,0.0,0.0,0.0,0.0,0.0,0.0,0.0,0.0,0.0,0.0,0.0,0.0,0.0,0.0,0.0,0.0,0.0,0.0,0.0,0.0,0.0,0.0,0.0,0.0,0.0,0.0,0.0,0.0,0.0,0.0,0.0,0.0,0.0,0.0,0.0,0.0,0.0,0.0,0.0,0.0,0.0,0.0,0.0,0.0,0.0,0.0,0.0,0.0,0.0,0.0,0.0,0.0,0.0,0.0,0.0,0.0,0.0,0.0,0.0,0.0,0.0,0.0,0.0,0.0,0.0,0.0,0.0,0.0,0.0,0.0,0.0,0.0,0.0,0.0,0.0,0.0,0.0,0.0,0.0,0.0,0.0,-0.0938,-0.038,0.0,0.0,0.0,0.0,0.0,0.0,0.0,0.0,0.0,0.0,0.0,0.0,0.0,0.0,0.0,0.0,0.0,0.0,0.0,0.0,0.0,0.0,0.0,0.0,0.0,0.0,0.0,0.0,0.0,0.0,0.0,0.0,0.0,0.0,0.0,0.0,0.0,0.0,0.0,0.0,0.0,0.0,0.0,0.0,0.0,0.0,0.0,0.0,0.0,0.0,0.0,0.0,0.0,0.0,0.0,0.0,0.0,0.0,0.0,0.0,0.0,0.0,0.0,0.0,0.0,0.0,0.0,0.0,0.0,0.0,0.0,0.0,0.0,0.0,0.0,0.0,0.0,0.0,0.0,0.0,0.0,0.0,0.0,0.0,0.0,0.0,0.0,0.0,0.0,0.0,0.0,0.0,0.0,0.0,0.0,0.0,0.0,0.0,0.0,0.0,0.0,0.0,0.0,0.0,0.0,0.0,0.0,0.0,0.0,-0.0845,-0.0236,-0.005,0.0,0.0,0.0,0.0,0.0,0.0,0.0,0.0,0.0,0.0,0.0,0.0,0.0,0.0,0.0,0.0,0.0,0.0,0.0,0.0,0.0,0.0,0.0,0.0,0.0,0.0,0.0,0.0,0.0,0.0,0.0,0.0,0.0,0.0,0.0,0.0,0.0,0.0,0.0,0.0,0.0,0.0,0.0,0.0,0.0,0.0,0.0,0.0,0.0,0.0,0.0,0.0,0.0,0.0,0.0,0.0,0.0,0.0,0.0,0.0,0.0,0.0,0.0,0.0,0.0,0.0,0.0,0.0,0.0,0.0,0.0,0.0,0.0,0.0,0.0,0.0,0.0,0.0,0.0,0.0,0.0,0.0,0.0,0.0,0.0,0.0,0.0,0.0,0.0,0.0,0.0,0.0,0.0,0.0,0.0,0.0,0.0,0.0,0.0,0.0,0.0,0.0,0.0,0.0,0.0,0.0,0.0,0.0,-0.0535,-0.0382,-0.0048,0.0,0.0,0.0,0.0,0.0,0.0,0.0,0.0,0.0,0.0,0.0,0.0,0.0,0.0,0.0,0.0,0.0,0.0,0.0,0.0,0.0,0.0,0.0,0.0,0.0,0.0,0.0,0.0,0.0,0.0,0.0,0.0,0.0,0.0,0.0,0.0,0.0,0.0,0.0,0.0,0.0,0.0,0.0,0.0,0.0,0.0,0.0,0.0,0.0,0.0,0.0,0.0,0.0,0.0,0.0,0.0,0.0,0.0,0.0,0.0,0.0,0.0,0.0,0.0,0.0,0.0,0.0,0.0,0.0,0.0,0.0,0.0,0.0,0.0,0.0,0.0,0.0,0.0,0.0,0.0,0.0,0.0,0.0,0.0,0.0,0.0,0.0,0.0,0.0,0.0,0.0,0.0,0.0,0.0,0.0,0.0,0.0,0.0,0.0,0.0,0.0,0.0,0.0,0.0,0.0,0.0,0.0,0.0,0.0,0.0,0.0,0.0,0.0,0.0,0.0,0.0,0.0,0.0,0.0,0.0,0.0,0.0,0.0,0.0,0.0,0.0,0.0,0.0,0.0,0.0,0.0,0.0,0.0,0.0,0.0,0.0,0.0,0.0,0.0,0.0,0.0,0.0,0.0,0.0,0.0,0.0,0.0,0.0,0.0,0.0,0.0,0.0,0.0,0.0,0.0,0.0,0.0,0.0,0.0,0.0,0.0,0.0,0.0,0.0,0.0,0.0,0.0,0.0,0.0,0.0,0.0,0.0,0.0,0.0,0.0,0.0,0.0,0.0,0.0,0.0,0.0,0.0,0.0,0.0,0.0,0.0,0.0,0.0,0.0,0.0,0.0,0.0,0.0,0.0,0.0,0.0,0.0,0.0,0.0,0.0,0.0,0.0,0.0,0.0,0.0,0.0,0.0,0.0,0.0,0.0,0.0,0.0,0.0,0.0,0.0,0.0,0.0,0.0,0.0,0.0,0.0,0.0,0.0,0.0,0.0,0.0,0.0,0.0,0.0,0.0,0.0,0.0,0.0,0.0,0.0,0.0,0.0,0.0,0.0,0.0,0.0,0.0,0.0,0.0,0.0,0.0,0.0,0.0,0.0,0.0,0.0,0.0,0.0,0.0,0.0,0.0,0.0,0.0,0.0,0.0,0.0,0.0,0.0,0.0,0.0,0.0,0.0,0.0,0.0,0.0,0.0,0.0,0.0,0.0,0.0,0.0,0.0,0.0,0.0,0.0,0.0,0.0,0.0,0.0,0.0,0.0,0.0,0.0,0.0,0.0,0.0,0.0,0.0,0.0,0.0,0.0,0.0,0.0,0.0,0.0,0.0,0.0,0.0,0.0,0.0,0.0,0.0,0.0,0.0,0.0,0.0,0.0,0.0,0.0,0.0,0.0,0.0,0.0,0.0,0.0,0.0,0.0,0.0,0.0,0.0,0.0,0.0,0.0,0.0,0.0,0.0,0.0,0.0,0.0,0.0,0.0,0.0,0.0,0.0,0.0,0.0,0.0,0.0,0.0,0.0,0.0,0.0,0.0,0.0,0.0,0.0,0.0,0.0,0.0,0.0,0.0,0.0,0.0,0.0,0.0,0.0,0.0,0.0,0.0,0.0,0.0,0.0,0.0,0.0,0.0,0.0,0.0,0.0,0.0,0.0,0.0,0.0,0.0,0.0,0.0,0.0,0.0,0.0,0.0,0.0,0.0,0.0,0.0,0.0,0.0,0.0,0.0,0.0,0.0,0.0,0.0,0.0,0.0,0.0,0.0,0.0,0.0,0.0,0.0,0.0,0.0,0.0,0.0,0.0,0.0,0.0,0.0,0.0,0.0,0.0,0.0,0.0,0.0,0.0,0.0,0.0,0.0,0.0,0.0,0.0,0.0,0.0,0.0,0.0,0.0,0.0,0.0,0.0,0.0,0.0,0.0,0.0,0.0,0.0,0.0,0.0,0.0,0.0,0.0,0.0,0.0,0.0,0.0,0.0,0.0,0.0,0.0,0.0,0.0,0.0,0.0,0.0,0.0,0.0,0.0,0.0,0.0,0.0,0.0,0.0,0.0,0.0,0.0,0.0,0.0,0.0,0.0,0.0,0.0,0.0,0.0,0.0,0.0,0.0,0.0,0.0,0.0,0.0,0.0,0.0,0.0,0.0,0.0,0.0,0.0,0.0,0.0,0.0,0.0,0.0,0.0,0.0,0.0,0.0,0.0,0.0,0.0,0.0,0.0,0.0,0.0,0.0,0.0,0.0,0.0,0.0,0.0,0.0,0.0,0.0,0.0,0.0,0.0,0.0,0.0,0.0,0.0,0.0,0.0,0.0,0.0,0.0,0.0,0.0,0.0,0.0,0.0,0.0,0.0,0.0,0.0,0.0,0.0,0.0,0.0,0.0,0.0,0.0,0.0,0.0,0.0,0.0,0.0,0.0,0.0,0.0,0.0,0.0,0.0,0.0,0.0,0.0,0.0,0.0,0.0,0.0,0.0,0.0,0.0,0.0,0.0,0.0,0.0,0.0,0.0,0.0,0.0,0.0,0.0,0.0,0.0,0.0,0.0,0.0,0.0,0.0,0.0,0.0,0.0,0.0,0.0,0.0,0.0,0.0,0.0,0.0,0.0,0.0,0.0,0.0,0.0,0.0,0.0,0.0,0.0,0.0,0.0,0.0,0.0,0.0,0.0,0.0,0.0,0.0,0.0,0.0,0.0,0.0,0.0,0.0,0.0,0.0,0.0,0.0,0.0,0.0,0.0,0.0,0.0,0.0,0.0,0.0,0.0,0.0,0.0,0.0,0.0,0.0,0.0,0.0,0.0,0.0,0.0,0.0,0.0,0.0,0.0,0.0,0.0,0.0,0.0,0.0,0.0,0.0,0.0,0.0,0.0,0.0,0.0,0.0,0.0,0.0,0.0,0.0,0.0,0.0,0.0,0.0,0.0,0.0,0.0,0.0,0.0,0.0,0.0,0.0,0.0,0.0,0.0,0.0,0.0,0.0,0.0,0.0,0.0,0.0,0.0,0.0,0.0,0.0,0.0,0.0,0.0,0.0,0.0,0.0,0.0,0.0,0.0,0.0,0.0,0.0,0.0,0.0,0.0,0.0,0.0,0.0,0.0,0.0,0.0,0.0,0.0,0.0,0.0,0.0,0.0,0.0,0.0,0.0,0.0,0.0,0.0,0.0,0.0,0.0,0.0,0.0,0.0,0.0,0.0,0.0,0.0,0.0,0.0,0.0,0.0,0.0,0.0,0.0,0.0,0.0,0.0,0.0,0.0,0.0,0.0,0.0,0.0,0.0,0.0,0.0,0.0,0.0,0.0,0.0,0.0,0.0,0.0,0.0,0.0,0.0,0.0,0.0,0.0,0.0,0.0,0.0,0.0,0.0,0.0,0.0,0.0,0.0,0.0,0.0,0.0,0.0,0.0,0.0,0.0,0.0,0.0,0.0,0.0,0.0,0.0,0.0,0.0,0.0,0.0,0.0,0.0,0.0,0.0,0.0,0.0,0.0,0.0,0.0,0.0,0.0,0.0,0.0,0.0,0.0,0.0,0.0,0.0,0.0,0.0,0.0,0.0,0.0,0.0,0.0,0.0,0.0,0.0,0.0,0.0,0.0,0.0,0.0,0.0,0.0,0.0,0.0,0.0,0.0,0.0,0.0,0.0,0.0,0.0,0.0,0.0,0.0,0.0,0.0,0.0,0.0,0.0,0.0,0.0,0.0,0.0,0.0,0.0,0.0,0.0,0.0,0.0,0.0,0.0,0.0,0.0,0.0,0.0,0.0,0.0,0.0,0.0,0.0,0.0,0.0,0.0,0.0,0.0,0.0,0.0,0.0,0.0,0.0,0.0,0.0,0.0,0.0,0.0,0.0,0.0,0.0,0.0,0.0,0.0,0.0,0.0,0.0,0.0,0.0,0.0,0.0,0.0,0.0,0.0,0.0,0.0,0.0,0.0,0.0,0.0,0.0,0.0,0.0,0.0,0.0,0.0,0.0,0.0,0.0,0.0,0.0,0.0,0.0,0.0,0.0,0.0,0.0,0.0,0.0,0.0,0.0,0.0,0.0,0.0,0.0,0.0,0.0,0.0,0.0,0.0,0.0,0.0,0.0,0.0,0.0,0.0,0.0,0.0,0.0,0.0,0.0,0.0,0.0,0.0,0.0,0.0,0.0,0.0,0.0,0.0,0.0,0.0,0.0,0.0,0.0,0.0,0.0,0.0,0.0,0.0,0.0,0.0,0.0,0.0,0.0,0.0,0.0252,0.0,0.0,0.0,0.0,0.0,0.0,0.0,0.0,0.0,0.0,0.0,0.0,0.0,0.0,0.0,0.0,0.0,0.0,0.0,0.0,0.0,0.0,0.0,0.0,0.0,0.0,0.0,0.0,0.0,0.0,0.0,0.0,0.0,0.0,0.0,0.0,0.0,0.0,0.0,0.0,0.0,0.0,0.0,0.0,0.0,0.0,0.0,0.0,0.0,0.0,0.0,0.0,0.0,0.0,0.0,0.0,0.0,0.0,0.0,0.0,0.0,0.0,0.0,0.0,0.0,0.0,0.0,0.0,0.0,0.0,0.0,0.0,0.0,0.0,0.0,0.0,0.0,0.0,0.0,0.0,0.0,0.0,0.0,0.0,0.0,0.0,0.0,0.0,0.0,0.0,0.0,0.0,0.0,0.0,0.0,0.0,0.0,0.0,0.0,0.0,0.0,0.0,0.0,0.0,0.0,0.0,0.0,0.0,0.0,0.0,0.0,0.0,0.0231,0.0,0.0,0.0,0.0,0.0,0.0,0.0,0.0,0.0,0.0,0.0,0.0,0.0,0.0,0.0,0.0,0.0,0.0,0.0,0.0,0.0,0.0,0.0,0.0,0.0,0.0,0.0,0.0,0.0,0.0,0.0,0.0,0.0,0.0,0.0,0.0,0.0,0.0,0.0,0.0,0.0,0.0,0.0,0.0,0.0,0.0,0.0,0.0,0.0,0.0,0.0,0.0,0.0,0.0,0.0,0.0,0.0,0.0,0.0,0.0,0.0,0.0,0.0,0.0,0.0,0.0,0.0,0.0,0.0,0.0,0.0,0.0,0.0,0.0,0.0,0.0,0.0,0.0,0.0,0.0,0.0,0.0,0.0,0.0,0.0,0.0,0.0,0.0,0.0,0.0,0.0,0.0,0.0,0.0,0.0,0.0,0.0,0.0,0.0,0.0,0.0,0.0,0.0,0.0,0.0,0.0,0.0,0.0,0.0,0.0,0.0,0.0,0.0,0.0,0.0,0.0,0.0,0.0,0.0,0.0,0.0,0.0,0.0,0.0,0.0,0.0,0.0,0.0,0.0,0.0,0.0,0.0,0.0,0.0,0.0,0.0,0.0,0.0,0.0,0.0,0.0,0.0,0.0,0.0,0.0,0.0,0.0,0.0,0.0,0.0,0.0,0.0,0.0,0.0,0.0,0.0,0.0,0.0,0.0,0.0,0.0,0.0,0.0,0.0,0.0,0.0,0.0,0.0,0.0,0.0,0.0,0.0,0.0,0.0,0.0,0.0,0.0,0.0,0.0,0.0,0.0,0.0,0.0,0.0,0.0,0.0,0.0,0.0,0.0,0.0,0.0,0.0,0.0,0.0,0.0,0.0,0.5525,0.5667,0.0,0.0,0.0,0.0,0.0,0.0,0.0,0.0,0.0,0.0,0.0,0.0,0.0,0.0,0.5873,0.4585,0.3319,0.2136,0.0701,0.0,0.0,0.0,0.0,0.0,0.0,0.0,0.0,0.0,0.0,0.0,0.0,0.0,0.0,0.0,0.0,0.0,0.0,0.0,0.0,0.0,0.0,0.0,0.0,0.0,0.0,0.0,0.0,0.0,0.0,0.0,0.0,0.0,0.0,0.0,0.0,0.0,0.0,0.0,0.0,0.0,0.0,0.0,0.0,0.0,0.0,0.0,0.0,0.0,0.0,0.0,0.0,0.0,0.0,0.0,0.0,0.0,0.0,0.0,0.0,0.0,0.0,0.0,0.0,0.0,0.0,0.0,0.0,0.0,0.0,0.0,0.0,0.0,0.0,0.0,0.0,0.0,0.0,0.0,0.0,0.0,0.0,0.0,0.0,0.0,0.0,0.0,0.0,0.0,0.0,0.5511,0.5891,0.6078,0.6112,0.5993,0.0,0.0,0.0,0.0,0.0,0.0,0.0,0.0,0.0,0.7675,0.797,0.7196,0.5332,0.4633,0.3214,0.1112,0.0342,0.0,0.0,0.0,0.0,0.0,0.0,0.0,0.0,0.0,0.0,0.0,0.0,0.0,0.0,0.0,0.0,0.0,0.0,0.0,0.0,0.0,0.0,0.0,0.0,0.0,0.0,0.0,0.0,0.0,0.0,0.0,0.0,0.0,0.0,0.0,0.0,0.0,0.0,0.0,0.0,0.0,0.0,0.0,0.0,0.0,0.0,0.0,0.0,0.0,0.0,0.0,0.0,0.0,0.0,0.0,0.0,0.0,0.0,0.0,0.0,0.0,0.0,0.0,0.0,0.0,0.0,0.0,0.0,0.0,0.0,0.0,0.0,0.0,0.0,0.0,0.0,0.0,0.0,0.0,0.0,0.0,0.0,0.0,0.0,0.0,0.0,0.0,0.0,0.0,0.0,0.5983,0.6373,0.6566,0.6747,0.6668,0.0,0.0,0.0,0.0,0.0,0.0,0.7479,0.7896,0.8238,0.8547,0.8362,0.7276,0.5244,0.4391,0.2835,0.0651,0.018,0.0,0.0,0.0,0.0,0.0,0.0,0.0,0.0,0.0,0.0,0.0,0.0,0.0,0.0,0.0,0.0,0.0,0.0,0.0,0.0,0.0,0.0,0.0,0.0,0.0,0.0,0.0,0.0,0.0,0.0,0.0,0.0,0.0,0.0,0.0,0.0,0.0,0.0,0.0,0.0,0.0,0.0,0.0,0.0,0.0,0.0,0.0,0.0,0.0,0.0,0.0,0.0,0.0,0.0,0.0,0.0,0.0,0.0,0.0,0.0,0.0,0.0,0.0,0.0,0.0,0.0,0.0,0.0,0.0,0.0,0.0,0.0,0.0,0.0,0.0,0.0,0.0,0.0,0.0,0.0,0.0,0.0,0.0,0.0,0.0,0.0,0.0,0.0,0.0,0.0,0.0,0.0,0.7344,0.7567,0.0,0.0,0.0,0.0,0.7519,0.7943,0.8319,0.8615,0.8737,0.9018,0.9317,0.7814,0.7087,0.7237,0.4184,0.2494,0.2366,0.077,0.0,0.0,0.0,0.0,0.0,0.0,0.0,0.0,0.0,0.0,0.0,0.0,0.0,0.0,0.0,0.0,0.0,0.0,0.0,0.0,0.0,0.0,0.0,0.0,0.0,0.0,0.0,0.0,0.0,0.0,0.0,0.0,0.0,0.0,0.0,0.0,0.0,0.0,0.0,0.0,0.0,0.0,0.0,0.0,0.0,0.0,0.0,0.0,0.0,0.0,0.0,0.0,0.0,0.0,0.0,0.0,0.0,0.0,0.0,0.0,0.0,0.0,0.0,0.0,0.0,0.0,0.0,0.0,0.0,0.0,0.0,0.0,0.0,0.0,0.0,0.0,0.0,0.0,0.0,0.0,0.0,0.0,0.0,0.0,0.0,0.0,0.0,0.0,0.0,0.0,0.0,0.0,0.7784,0.815,0.0,0.0,0.8113,0.8255,0.8309,0.873,0.9032,0.9137,0.9466,0.9643,0.9808,0.9335,0.8065,0.592,0.4739,0.3086,0.0903,0.0258,0.0,0.0,0.0,0.0,0.0,0.0,0.0,0.0,0.0,0.0,0.0,0.0,0.0,0.0,0.0,0.0,0.0,0.0,0.0,0.0,0.0,0.0,0.0,0.0,0.0,0.0,0.0,0.0,0.0,0.0,0.0,0.0,0.0,0.0,0.0,0.0,0.0,0.0,0.0,0.0,0.0,0.0,0.0,0.0,0.0,0.0,0.0,0.0,0.0,0.0,0.0,0.0,0.0,0.0,0.0,0.0,0.0,0.0,0.0,0.0,0.0,0.0,0.0,0.0,0.0,0.0,0.0,0.0,0.0,0.0,0.0,0.0,0.0,0.0,0.0,0.0,0.0,0.0,0.0,0.0,0.0,0.0,0.0,0.0,0.0,0.0,0.0,0.0,0.0,0.0,0.0,0.8021,0.817,0.8676,0.8916,0.8662,0.8906,0.9086,0.9086,0.9408,0.9629,0.968,0.9964,1.0148,1.0195,0.972,0.836,0.612,0.4886,0.3132,0.0916,0.0262,0.0,0.0,0.0,0.0,0.0,0.0,0.0,0.0,0.0,0.0,0.0,0.0,0.0,0.0,0.0,0.0,0.0,0.0,0.0,0.0,0.0,0.0,0.0,0.0,0.0,0.0,0.0,0.0,0.0,0.0,0.0,0.0,0.0,0.0,0.0,0.0,0.0,0.0,0.0,0.0,0.0,0.0,0.0,0.0,0.0,0.0,0.0,0.0,0.0,0.0,0.0,0.0,0.0,0.0,0.0,0.0,0.0,0.0,0.0,0.0,0.0,0.0,0.0,0.0,0.0,0.0,0.0,0.0,0.0,0.0,0.0,0.0,0.0,0.0,0.0,0.0,0.0,0.0,0.0,0.0,0.0,0.0,0.0,0.0,0.0,0.0,0.0,0.0,0.0,0.7446,0.7968,0.8353,0.8499,0.9174,0.9456,0.8966,0.9496,0.9836,0.9836,0.9978,1.0193,1.028,1.029,1.0358,1.0493,0.8793,0.7926,0.8028,0.4557,0.2819,0.2685,0.0941,0.0067,0.0,0.0,0.0,0.0,0.0,0.0,0.0,0.0,0.0,0.0,0.0,0.0,0.0,0.0,0.0,0.0,0.0,0.0,0.0,0.0,0.0,0.0,0.0,0.0,0.0,0.0,0.0,0.0,0.0,0.0,0.0,0.0,0.0,0.0,0.0,0.0,0.0,0.0,0.0,0.0,0.0,0.0,0.0,0.0,0.0,0.0,0.0,0.0,0.0,0.0,0.0,0.0,0.0,0.0,0.0,0.0,0.0,0.0,0.0,0.0,0.0,0.0,0.0,0.0,0.0,0.0,0.0,0.0,0.0,0.0,0.0,0.0,0.0,0.0,0.0,0.0,0.0,0.0,0.0,0.0,0.0,0.0,0.0,0.0,0.0,0.0,0.0,0.7896,0.8007,0.8589,0.9064,0.9269,0.9669,0.9924,0.9914,1.0059,1.0154,1.0154,1.029,1.0388,1.0432,1.0538,1.0616,1.0656,1.0191,0.9272,0.803,0.7027,0.5225,0.2685,0.2216,0.1274,0.0,0.0,0.0,0.0,0.0,0.0,0.0,0.0,0.0,0.0,0.0,0.0,0.0,0.0,0.0,0.0,0.0,0.0,0.0,0.0,0.0,0.0,0.0,0.0,0.0,0.0,0.0,0.0,0.0,0.0,0.0,0.0,0.0,0.0,0.0,0.0,0.0,0.0,0.0,0.0,0.0,0.0,0.0,0.0,0.0,0.0,0.0,0.0,0.0,0.0,0.0,0.0,0.0,0.0,0.0,0.0,0.0,0.0,0.0,0.0,0.0,0.0,0.0,0.0,0.0,0.0,0.0,0.0,0.0,0.0,0.0,0.0,0.0,0.0,0.0,0.0,0.0,0.0,0.0,0.0,0.0,0.0,0.0,0.0,0.0,0.0,0.8123,0.848,0.8872,0.9164,0.9432,0.9669,1.0015,1.027,1.0358,1.0426,1.0466,1.0466,1.0541,1.0585,1.0585,1.067,1.0721,1.0721,1.0721,1.018,0.9172,0.8366,0.6629,0.3824,0.3087,0.1747,0.0,0.0,0.0,0.0,0.0,0.0,0.0,0.0,0.0,0.0,0.0,0.0,0.0,0.0,0.0,0.0,0.0,0.0,0.0,0.0,0.0,0.0,0.0,0.0,0.0,0.0,0.0,0.0,0.0,0.0,0.0,0.0,0.0,0.0,0.0,0.0,0.0,0.0,0.0,0.0,0.0,0.0,0.0,0.0,0.0,0.0,0.0,0.0,0.0,0.0,0.0,0.0,0.0,0.0,0.0,0.0,0.0,0.0,0.0,0.0,0.0,0.0,0.0,0.0,0.0,0.0,0.0,0.0,0.0,0.0,0.0,0.0,0.0,0.0,0.0,0.0,0.0,0.0,0.0,0.0,0.0,0.0,0.0,0.0,0.0,0.0,0.8723,0.9151,0.9768,0.9768,0.9758,0.988,1.0249,1.05,1.0517,1.0639,1.0721,1.0721,1.0721,1.0721,1.0721,0.0,0.0,0.0,0.0,1.0721,1.0721,0.9105,0.7431,0.5696,0.4091,0.2216,0.0336,0.0538,0.0471,0.0336,0.0332,0.0327,0.0258,0.0064,0.0,0.0,0.0,0.0,0.0,0.0,0.0,0.0,0.0,0.0,0.0,0.0,0.0,0.0,0.0,0.0,0.0,0.0,0.0,0.0,0.0,0.0,0.0,0.0,0.0,0.0,0.0,0.0,0.0,0.0,0.0,0.0,0.0,0.0,0.0,0.0,0.0,0.0,0.0,0.0,0.0,0.0,0.0,0.0,0.0,0.0,0.0,0.0,0.0,0.0,0.0,0.0,0.0,0.0,0.0,0.0,0.0,0.0,0.0,0.0,0.0,0.0,0.0,0.0,0.0,0.0,0.0,0.0,0.0,0.0,0.0,0.0,0.0,0.0,0.0,0.0,0.0,0.8706,0.9184,0.9602,0.9893,1.0188,1.0331,1.0358,1.0439,1.0541,1.0663,1.0704,1.0721,1.0721,1.0721,1.0721,1.0721,1.0721,0.0,1.0721,1.0721,1.0721,1.0721,1.0316,0.9308,0.7498,0.0,0.0,0.2216,0.369,0.3556,0.2148,0.221,0.2175,0.2059,0.0579,0.0,0.0,0.0,0.0,0.0,0.0,0.0,0.0,0.0,0.0,0.0,0.0,0.0,0.0,0.0,0.0,0.0,0.0,0.0,0.0,0.0,0.0,0.0,0.0,0.0,0.0,0.0,0.0,0.0,0.0,0.0,0.0,0.0,0.0,0.0,0.0,0.0,0.0,0.0,0.0,0.0,0.0,0.0,0.0,0.0,0.0,0.0,0.0,0.0,0.0,0.0,0.0,0.0,0.0,0.0,0.0,0.0,0.0,0.0,0.0,0.0,0.0,0.0,0.0,0.0,0.0,0.0,0.0,0.0,0.0,0.0,0.0,0.0,0.7394,0.0,0.0,0.8632,0.9225,0.9568,0.9846,1.0219,1.0399,1.049,1.049,1.0561,1.0636,1.0714,1.0721,1.0721,1.0721,1.0721,1.0721,1.0721,1.0721,1.0721,1.0721,1.0721,1.0721,1.0721,1.0721,0.9779,0.803,0.803,0.6629,0.4092,0.4961,0.4896,0.4025,0.4025,0.4043,0.3958,0.2944,0.2011,0.1232,0.1222,0.0728,0.0,0.0,0.0,0.0,0.0,0.0,0.0,0.0,0.0,0.0,0.0,0.0,0.0,0.0,0.0,0.0,0.0,0.0,0.0,0.0,0.0,0.0,0.0,0.0,0.0,0.0,0.0,0.0,0.0,0.0,0.0,0.0,0.0,0.0,0.0,0.0,0.0,0.0,0.0,0.0,0.0,0.0,0.0,0.0,0.0,0.0,0.0,0.0,0.0,0.0,0.0,0.0,0.0,0.0,0.0,0.0,0.0,0.0,0.0,0.0,0.0,0.0,0.0,0.0,0.0,0.0,0.7088,0.7338,0.778,0.818,0.8547,0.8886,0.9208,0.9744,0.9897,1.008,1.0439,1.0517,1.0534,1.0534,1.0643,1.0721,1.0721,1.0721,1.0721,1.0721,1.0721,1.0721,1.0721,1.0721,1.0721,1.0721,1.0721,1.0721,1.0721,1.0721,0.9978,0.8501,0.8501,0.7631,0.5897,0.6297,0.6233,0.5897,0.588,0.5703,0.5368,0.5213,0.4242,0.3027,0.2957,0.2139,0.0846,0.0238,0.0,0.0,0.0,0.0,0.0,0.0,0.0,0.0,0.0,0.0,0.0,0.0,0.0,0.0,0.0,0.0,0.0,0.0,0.0,0.0,0.0,0.0,0.0,0.0,0.0,0.0,0.0,0.0,0.0,0.0,0.0,0.0,0.0,0.0,0.0,0.0,0.0,0.0,0.0,0.0,0.0,0.0,0.0,0.0,0.0,0.0,0.0,0.0,0.0,0.0,0.0,0.0,0.0,0.0,0.0,0.0,0.6214,0.6327,0.6488,0.6759,0.6893,0.7217,0.0,0.0,0.8177,0.8476,0.8784,0.9074,0.9125,0.9429,0.9744,0.9812,1.0158,1.0432,1.0483,1.0609,1.0694,1.0694,1.0711,1.0721,1.0721,1.0721,1.0721,1.0721,1.0721,1.0721,1.0721,1.0721,1.0721,1.0721,1.0721,1.0721,1.0721,1.0721,1.0585,1.0382,1.0382,0.944,0.7764,0.9374,0.9241,0.7693,0.7726,0.6828,0.5368,0.5213,0.4956,0.4817,0.4695,0.4544,0.3979,0.1088,0.0,0.0,0.0,0.0,0.0,0.0,0.0,0.0,0.0,0.0,0.0,0.0,0.0,0.0,0.0,0.0,0.0,0.0,0.0,0.0,0.0,0.0,0.0,0.0,0.0,0.0,0.0,0.0,0.0,0.0,0.0,0.0,0.0,0.0,0.0,0.0,0.0,0.0,0.0,0.0,0.0,0.0,0.0,0.0,0.0,0.0,0.0,0.0,0.0,0.0,0.0,0.0,0.0,0.0,0.0,0.0,0.7092,0.7082,0.7088,0.0,0.7689,0.7902,0.8303,0.853,0.8716,0.8923,0.9208,0.9418,0.9418,0.971,0.9981,0.0,1.0314,1.0524,1.0612,1.0602,1.0585,1.0585,1.0585,1.0622,1.0711,1.0721,1.0721,1.0721,1.0721,1.0721,1.0721,1.0721,1.0721,1.0721,1.0721,1.0721,1.0721,1.0721,1.0721,1.0721,1.0721,1.0316,0.9576,1.0316,1.0316,0.957,0.9582,0.9115,0.8378,0.8209,0.7529,0.6518,0.6421,0.5772,0.4602,0.2299,0.1439,0.1307,0.0348,0.0,0.0,0.0,0.0,0.0,0.0,0.0,0.0,0.0,0.0,0.0,0.0,0.0,0.0,0.0,0.0,0.0,0.0,0.0,0.0,0.0,0.0,0.0,0.0,0.0,0.0,0.0,0.0,0.0,0.0,0.0,0.0,0.0,0.0,0.0,0.0,0.0,0.0,0.0,0.0,0.0,0.0,0.0,0.0,0.0,0.0,0.0,0.0,0.0,0.0,0.0,0.0,0.0,0.7611,0.7624,0.0,0.8058,0.8309,0.8492,0.8635,0.8903,0.9144,0.9262,0.9425,0.9608,0.9608,0.9815,0.999,1.0249,1.0399,1.0544,1.07,1.0588,1.049,1.049,1.0456,1.049,1.0643,1.0697,1.0721,1.0721,1.0721,1.0721,1.0721,1.0721,1.0721,1.0721,1.0721,1.0721,1.0721,1.0721,1.0721,1.0721,1.0721,1.0721,1.0721,1.0721,1.0721,1.0721,1.0721,1.0656,1.0541,1.0399,0.9542,0.8326,0.8198,0.7329,0.6071,0.4429,0.3557,0.2936,0.129,0.0694,0.0631,0.017,0.0,0.0,0.0,0.0,0.0,0.0,0.0,0.0,0.0,0.0,0.0,0.0,0.0,0.0,0.0,0.0,0.0,0.0,0.0,0.0,0.0,0.0,0.0,0.0,0.0,0.0,0.0,0.0,0.0,0.0,0.0,0.0,0.0,0.0,0.0,0.0,0.0,0.0,0.0,0.0,0.0,0.0,0.0,0.0,0.0,0.0,0.0,0.0,0.0,0.0,0.7467,0.0,0.8042,0.8394,0.8696,0.8957,0.9156,0.9367,0.9547,0.9405,0.95,0.9608,0.9608,0.973,0.9927,1.0232,1.0399,1.0544,1.07,1.0588,1.049,1.049,1.0371,1.0341,0.0,1.0633,1.0721,1.0721,1.0721,1.0721,1.0721,1.0721,1.0721,1.0721,1.0721,1.0721,1.0721,1.0721,1.0721,1.0721,1.0721,1.0721,1.0721,1.0721,1.0721,1.0721,1.0721,1.0717,1.07,1.0548,1.0402,1.0193,0.9978,0.9828,0.9451,0.7847,0.6196,0.4624,0.3003,0.2413,0.2178,0.0517,0.0,0.0,0.0,0.0,0.0,0.0,0.0,0.0,0.0,0.0,0.0,0.0,0.0,0.0,0.0,0.0,0.0,0.0,0.0,0.0,0.0,0.0,0.0,0.0,0.0,0.0,0.0,0.0,0.0,0.0,0.0,0.0,0.0,0.0,0.0,0.0,0.0,0.0,0.0,0.0,0.0,0.0,0.0,0.0,0.0,0.0,0.0,0.0,0.0,0.0,0.7948,0.0,0.8404,0.871,0.8933,0.9147,0.9398,0.9456,0.9473,0.952,0.9412,0.9364,0.9364,0.951,0.9744,0.9944,1.0266,1.0544,1.07,1.0588,1.0456,1.0365,1.0392,0.0,0.0,0.0,0.0,1.0714,1.0721,1.0721,1.0721,1.0721,1.0721,1.0721,1.0721,1.0721,1.0721,1.0721,1.0721,1.0721,1.0721,1.0721,1.0721,1.0721,1.0721,1.0721,1.0721,1.0721,1.0707,1.0555,1.0409,1.0263,1.011,0.9896,0.9761,0.9204,0.8624,0.7785,0.5061,0.4028,0.3891,0.3276,0.238,0.1454,0.1454,0.0784,0.0,0.0,0.0,0.0,0.0,0.0,0.0,0.0,0.0,0.0,0.0,0.0,0.0,0.0,0.0,0.0,0.0,0.0,0.0,0.0,0.0,0.0,0.0,0.0,0.0,0.0,0.0,0.0,0.0,0.0,0.0,0.0,0.0,0.0,0.0,0.0,0.0,0.0,0.0,0.0,0.0,0.0,0.0,0.0,0.0,0.0,0.8238,0.8452,0.8662,0.9076,0.9249,0.9367,0.9564,0.9493,0.9378,0.9371,0.9171,0.8994,0.8994,0.9154,0.9405,0.9761,1.0063,1.0361,1.0677,1.0588,1.046,1.0368,1.0392,0.0,0.0,0.0,0.0,1.0707,1.0721,1.0721,1.0721,1.0721,1.0721,1.0721,1.0721,1.0721,1.0721,1.0721,1.0721,1.0721,1.0721,1.0721,1.0721,1.0721,1.0721,1.0721,1.0721,1.0721,1.0714,1.0616,1.046,1.027,1.0171,1.0005,0.9822,0.9822,0.9822,0.9438,0.6735,0.5669,0.5439,0.4865,0.3924,0.2905,0.2347,0.151,0.0672,0.0168,0.0,0.0,0.0,0.0,0.0,0.0,0.0,0.0,0.0,0.0,0.0,0.0,0.0,0.0,0.0,0.0,0.0,0.0,0.0,0.0,0.0,0.0,0.0,0.0,0.0,0.0,0.0,0.0,0.0,0.0,0.0,0.0,0.0,0.0,0.0,0.0,0.0,0.0,0.0,0.0,0.0,0.0,0.0,0.0,0.8425,0.8628,0.8893,0.9466,0.9608,0.9608,0.9598,0.9473,0.9276,0.8922,0.8788,0.8672,0.0,0.0,0.8933,0.9649,0.9802,1.0039,1.0626,1.0592,1.05,0.0,0.0,0.0,0.0,0.0,0.0,1.0711,0.0,1.0721,1.0721,1.0721,1.0721,1.0721,1.0721,1.0721,1.0721,1.0721,1.0721,1.0721,1.0721,1.0721,1.0721,1.0721,1.0721,1.0721,1.0721,1.0721,1.0721,1.0721,1.0544,1.028,1.028,1.009,0.9822,0.9822,0.9822,0.9576,0.8036,0.7399,0.698,0.5451,0.4822,0.4364,0.2851,0.2403,0.2012,0.0504,0.0112,0.0112,0.0,0.0,0.0,0.0,0.0,0.0,0.0,0.0,0.0,0.0,0.0,0.0,0.0,0.0,0.0,0.0,0.0,0.0,0.0,0.0,0.0,0.0,0.0,0.0,0.0,0.0,0.0,0.0,0.0,0.0,0.0,0.0,0.0,0.0,0.0,0.0,0.0,0.0,0.0,0.0,0.0,0.0,0.874,0.9093,0.9418,0.9571,0.9608,0.9581,0.9466,0.9239,0.8967,0.8662,0.8391,0.8093,0.0,0.0,0.0,0.8944,0.9554,0.0,1.0497,1.0616,0.0,1.0507,0.0,1.0578,1.05,1.0595,0.0,0.0,1.0721,1.0721,1.0721,1.0721,1.0721,1.0721,1.0721,1.0721,1.0721,1.0721,1.0721,1.0721,1.0721,1.0721,1.0721,1.0721,1.0721,1.0721,1.0721,1.0721,1.0721,1.0721,1.0544,1.028,1.028,1.009,0.9822,0.9822,0.9822,0.9758,0.9329,0.9093,0.8875,0.8356,0.7339,0.6181,0.5714,0.4803,0.3576,0.2069,0.1622,0.1397,0.0279,0.0,0.0,0.0,0.0,0.0,0.0,0.0,0.0,0.0,0.0,0.0,0.0,0.0,0.0,0.0,0.0,0.0,0.0,0.0,0.0,0.0,0.0,0.0,0.0,0.0,0.0,0.0,0.0,0.0,0.0,0.0,0.0,0.0,0.0,0.0,0.0,0.0,0.0,0.0,0.0,0.0,0.9052,0.9367,0.9608,0.9608,0.9608,0.9517,0.9167,0.8906,0.8615,0.8184,0.7909,0.0,0.7441,0.0,0.0,0.0,0.0,0.0,1.0422,1.0622,1.0687,0.0,1.0666,0.0,1.0602,1.067,1.0721,0.0,1.0721,1.0721,1.0721,1.0721,1.0721,1.0721,1.0721,1.0721,1.0721,1.0721,1.0721,1.0721,1.0721,1.0721,1.0721,1.0721,1.0721,1.0721,0.0,1.0721,1.0721,1.0721,1.0582,1.0368,1.0304,1.0134,0.9852,0.9846,0.9822,0.9822,0.9822,0.9768,0.968,0.953,0.8746,0.7763,0.7016,0.6177,0.5139,0.3631,0.3186,0.2851,0.1343,0.0946,0.0825,0.0163,0.0,0.0,0.0,0.0,0.0,0.0,0.0,0.0,0.0,0.0,0.0,0.0,0.0,0.0,0.0,0.0,0.0,0.0,0.0,0.0,0.0,0.0,0.0,0.0,0.0,0.0,0.0,0.0,0.0,0.0,0.0,0.0,0.0,0.0,0.0,0.0,0.0,0.0,0.933,0.952,0.9632,0.9615,0.9581,0.9398,0.8811,0.853,0.8228,0.7655,0.0,0.7261,0.7041,0.7353,0.7824,0.8509,0.0,0.9635,1.0361,1.0595,1.0697,1.0717,1.0721,1.0721,1.0721,1.0721,1.0721,1.0721,1.0721,1.0721,1.0721,1.0721,1.0721,1.0721,1.0721,1.0721,1.0721,1.0721,1.0721,1.0721,1.0721,1.0721,1.0721,1.0721,1.0721,1.0721,0.0,0.0,1.0721,1.0721,1.0629,1.0477,1.0334,1.0185,0.9967,0.9876,0.9822,0.9822,0.9822,0.9822,0.9798,0.9656,0.9415,0.8947,0.7607,0.7124,0.67,0.5196,0.4804,0.4414,0.2905,0.2347,0.1894,0.0604,0.0162,0.0,0.0,0.0,0.0,0.0,0.0,0.0,0.0,0.0,0.0,0.0,0.0,0.0,0.0,0.0,0.0,0.0,0.0,0.0,0.0,0.0,0.0,0.0,0.0,0.0,0.0,0.0,0.0,0.0,0.0,0.0,0.0,0.0,0.0,0.0,0.0,0.0,0.9486,0.9676,0.9754,0.9639,0.9418,0.9163,0.8632,0.8214,0.0,0.0,0.7061,0.6919,0.6641,0.7143,0.7723,0.8046,0.0,0.0,0.0,0.0,1.0578,0.0,0.0,0.0,0.0,0.0,0.0,0.0,0.0,0.0,1.0721,1.0721,1.0721,1.0721,1.0721,1.0721,1.0721,1.0721,1.0721,1.0721,1.0721,1.0721,1.0721,1.0721,1.0721,1.0721,0.0,0.0,1.0721,1.0721,1.0629,1.0477,1.0334,1.0185,0.9967,0.9876,0.9822,0.9822,0.9822,0.9822,0.9798,0.9656,0.949,0.9317,0.8903,0.8653,0.8211,0.6758,0.6311,0.5975,0.447,0.3129,0.2115,0.1863,0.0863,0.0,0.0,0.0,0.0,0.0,0.0,0.0,0.0,0.0,0.0,0.0,0.0,0.0,0.0,0.0,0.0,0.0,0.0,0.0,0.0,0.0,0.0,0.0,0.0,0.0,0.0,0.0,0.0,0.0,0.0,0.0,0.0,0.0,0.0,0.0,0.0,0.0,0.9639,0.9771,0.9768,0.9547,0.932,0.903,0.8289,0.0,0.0,0.0,0.6739,0.6624,0.6443,0.6848,0.0,0.0,0.0,0.0,0.0,0.0,0.0,0.0,0.0,0.0,0.0,0.0,0.0,0.0,0.0,0.0,1.0721,1.0721,1.0721,1.0721,1.0721,1.0721,1.0721,1.0721,1.0721,1.0721,1.0721,1.0721,1.0721,1.0721,1.0721,1.0721,0.0,0.0,1.0721,1.0721,1.0677,1.0588,1.0368,1.0236,1.0141,0.9907,0.9822,0.9822,0.9822,0.9822,0.9798,0.9656,0.9507,0.9367,0.935,0.9117,0.8771,0.8042,0.782,0.7485,0.6031,0.5081,0.4347,0.3598,0.2222,0.0954,0.0156,0.0,0.0,0.0,0.0,0.0,0.0,0.0,0.0,0.0,0.0,0.0,0.0,0.0,0.0,0.0,0.0,0.0,0.0,0.0,0.0,0.0,0.0,0.0,0.0,0.0,0.0,0.0,0.0,0.0,0.0,0.0,0.0,0.0,0.0,0.0,0.9693,0.9798,0.9751,0.9456,0.9245,0.8879,0.8007,0.7651,0.0,0.0,0.6487,0.6433,0.632,0.0,0.7027,0.0,0.7929,0.0,0.0,0.0,0.0,0.0,0.0,0.0,0.0,0.0,0.0,0.0,0.0,0.0,0.0,1.0721,1.0721,1.0721,1.0721,1.0721,1.0721,1.0721,1.0721,1.0721,1.0721,1.0721,1.0721,1.0721,1.0721,1.0721,0.0,0.0,0.0,1.0721,1.07,1.0643,1.0382,1.0259,1.0198,0.992,0.9822,0.9822,0.9822,0.9822,0.9798,0.9656,0.9507,0.9374,0.9344,0.9147,0.8885,0.8885,0.8885,0.8657,0.7482,0.6924,0.6306,0.4838,0.3314,0.1905,0.0729,0.0205,0.0,0.0,0.0,0.0,0.0,0.0,0.0,0.0,0.0,0.0,0.0,0.0,0.0,0.0,0.0,0.0,0.0,0.0,0.0,0.0,0.0,0.0,0.0,0.0,0.0,0.0,0.0,0.0,0.0,0.0,0.0,0.0,0.0,0.0,0.9547,0.9724,0.9751,0.9456,0.9167,0.8703,0.7987,0.0,0.0,0.6569,0.6409,0.6317,0.6303,0.6515,0.6868,0.7319,0.0,0.8377,0.0,0.0,0.0,0.0,0.0,0.0,0.0,0.0,0.0,0.0,0.0,0.0,0.0,1.0721,1.0721,1.0721,1.0721,1.0721,1.0721,1.0721,1.0721,1.0721,1.0721,1.0721,1.0721,1.0721,1.0721,1.0721,0.0,0.0,0.0,1.0721,1.0636,1.0497,1.0341,1.0195,0.9987,0.9883,0.9822,0.9822,0.9822,0.9822,0.9798,0.9656,0.9507,0.9354,0.9272,0.9062,0.8885,0.8885,0.8885,0.8881,0.8716,0.7706,0.6342,0.4877,0.3338,0.2169,0.2026,0.0971,0.0,0.0,0.0,0.0,0.0,0.0,0.0,0.0,0.0,0.0,0.0,0.0,0.0,0.0,0.0,0.0,0.0,0.0,0.0,0.0,0.0,0.0,0.0,0.0,0.0,0.0,0.0,0.0,0.0,0.0,0.0,0.0,0.0,0.0,0.9364,0.9513,0.953,0.9412,0.9089,0.8604,0.7855,0.0,0.6947,0.6494,0.6337,0.63,0.63,0.6467,0.6681,0.7044,0.7255,0.7685,0.8587,0.0,0.0,0.0,0.0,0.0,0.0,0.0,0.0,0.0,0.0,0.0,0.0,1.0721,1.0721,1.0721,1.0721,1.0721,1.0721,1.0721,1.0721,1.0721,1.0721,1.0721,1.0721,1.0721,1.0721,1.0721,0.0,0.0,0.0,1.0721,1.0629,1.0477,1.0334,1.0185,0.9967,0.9876,0.9822,0.9822,0.9822,0.9822,0.9798,0.9656,0.9507,0.9354,0.9255,0.9052,0.8885,0.8885,0.8885,0.8885,0.8885,0.8491,0.7639,0.6201,0.5306,0.4552,0.3629,0.2261,0.1209,0.1209,0.0555,0.0,0.0,0.0,0.0,0.0,0.0,0.0,0.0,0.0,0.0,0.0,0.0,0.0,0.0,0.0,0.0,0.0,0.0,0.0,0.0,0.0,0.0,0.0,0.0,0.0,0.0,0.0,0.0,0.0,0.0,0.0,0.9117,0.9279,0.9303,0.9262,0.8977,0.8503,0.0,0.7329,0.693,0.6422,0.63,0.63,0.63,0.6381,0.6532,0.6753,0.6868,0.721,0.8021,0.8248,0.0,0.0,0.0,0.0,0.0,0.0,0.0,0.0,0.0,0.0,0.0,1.0721,1.0721,1.0721,1.0721,1.0721,1.0721,1.0721,1.0721,1.0721,1.0721,1.0721,1.0721,1.0721,1.0721,0.0,0.0,0.0,0.0,1.067,1.0565,1.0415,1.027,1.0117,0.9906,0.9863,0.9822,0.9822,0.9822,0.9822,0.9798,0.9656,0.9507,0.9354,0.9255,0.9052,0.8885,0.8885,0.8885,0.8885,0.8885,0.8885,0.8657,0.7595,0.6934,0.6242,0.5149,0.3728,0.2632,0.2618,0.1511,0.0605,0.0605,0.0252,0.0,0.0,0.0,0.0,0.0,0.0,0.0,0.0,0.0,0.0,0.0,0.0,0.0,0.0,0.0,0.0,0.0,0.0,0.0,0.0,0.0,0.0,0.0,0.0,0.0,0.0,0.0,0.0,0.8726,0.9049,0.9176,0.8977,0.8825,0.8476,0.7577,0.7251,0.693,0.6422,0.63,0.63,0.63,0.6303,0.6351,0.6494,0.6729,0.7092,0.7733,0.8201,0.0,0.0,0.0,0.0,0.0,0.0,0.0,0.0,0.0,0.0,0.0,0.0,1.0721,1.0721,1.0721,1.0721,1.0721,1.0721,1.0721,1.0721,1.0721,1.0721,1.0721,1.0721,0.0,0.0,0.0,0.0,0.0,1.0558,1.0412,1.0266,1.0048,0.9896,0.9822,0.9822,0.9822,0.9822,0.9822,0.9822,0.9798,0.9656,0.9507,0.9354,0.9255,0.9052,0.8885,0.8885,0.8885,0.8885,0.8885,0.8885,0.8881,0.8881,0.7771,0.6662,0.6492,0.5279,0.4157,0.3981,0.2914,0.1962,0.1962,0.0857,0.0,0.0,0.0,0.0,0.0,0.0,0.0,0.0,0.0,0.0,0.0,0.0,0.0,0.0,0.0,0.0,0.0,0.0,0.0,0.0,0.0,0.0,0.0,0.0,0.0,0.0,0.0,0.0,0.7916,0.8126,0.8225,0.818,0.8058,0.7797,0.7204,0.6987,0.6854,0.6402,0.63,0.63,0.63,0.63,0.6446,0.6854,0.6967,0.72,0.0,0.0,0.0,0.0,0.0,0.0,0.0,0.0,0.0,0.0,0.0,0.0,0.0,0.0,1.0721,1.0721,1.0721,1.0721,1.0721,1.0721,1.0721,1.0721,1.0721,1.0721,1.0721,1.0721,0.0,0.0,0.0,0.0,0.0,1.051,1.0344,1.0117,1.0007,0.9896,0.9822,0.9822,0.9822,0.9822,0.9822,0.9822,0.9815,0.9768,0.9656,0.951,0.9354,0.9137,0.8885,0.8885,0.8885,0.8885,0.8885,0.8885,0.8885,0.8885,0.8491,0.8043,0.7999,0.6747,0.5614,0.5581,0.4354,0.3364,0.3364,0.2264,0.136,0.136,0.136,0.136,0.136,0.136,0.136,0.136,0.136,0.1008,0.0101,0.0,0.0,0.0,0.0,0.0,0.0,0.0,0.0,0.0,0.0,0.0,0.0,0.0916,0.1843,0.2715,0.2715,0.2733,0.7282,0.7533,0.7645,0.7645,0.758,0.7397,0.6946,0.68,0.6644,0.6254,0.6173,0.6173,0.6173,0.6259,0.6436,0.682,0.6943,0.7173,0.0,0.0,0.0,0.0,0.0,0.0,0.0,0.0,0.0,0.0,0.0,0.0,0.0,0.0,1.0721,1.0721,1.0721,1.0721,1.0721,1.0721,1.0721,1.0721,1.0721,1.0721,1.0721,0.0,0.0,0.0,0.0,0.0,0.0,1.0432,1.027,0.998,0.9923,0.9845,0.9822,0.9822,0.9822,0.9822,0.9822,0.9822,0.9822,0.9822,0.9686,0.9486,0.9276,0.9086,0.8885,0.8885,0.8885,0.8885,0.8885,0.8885,0.8885,0.8885,0.8811,0.8781,0.8723,0.7874,0.7127,0.7078,0.5797,0.477,0.477,0.3667,0.2764,0.2764,0.2764,0.2764,0.2764,0.2764,0.2764,0.2764,0.2764,0.2414,0.1561,0.1058,0.0555,0.0051,0.0,0.0,0.0,0.0,0.0,0.0,0.0,0.0,0.0,0.1329,0.2668,0.4,0.4,0.4024,0.0,0.7149,0.7316,0.7306,0.7313,0.7163,0.6736,0.6536,0.0,0.6033,0.5986,0.6,0.602,0.6179,0.6375,0.6562,0.679,0.0,0.0,0.0,0.0,0.0,0.0,0.0,0.0,0.0,0.0,0.0,0.0,0.0,0.0,0.0,0.0,1.0721,1.0721,1.0721,1.0721,1.0721,1.0721,1.0721,1.0721,1.0721,1.0721,0.0,0.0,0.0,0.0,0.0,0.0,1.0321,1.0171,0.9957,0.9876,0.9822,0.9822,0.9822,0.9822,0.9822,0.9822,0.9822,0.9819,0.9808,0.9612,0.9327,0.9042,0.8892,0.8885,0.8885,0.8885,0.8885,0.8885,0.8885,0.8885,0.8885,0.8885,0.8844,0.8757,0.8598,0.8442,0.8364,0.7134,0.6129,0.6129,0.5022,0.4166,0.4166,0.4166,0.4166,0.4166,0.4166,0.4166,0.4166,0.4166,0.4116,0.4016,0.2864,0.1611,0.0353,0.0202,0.0151,0.0151,0.0151,0.0101,0.0,0.0101,0.0202,0.0303,0.1611,0.2966,0.4266,0.4266,0.4266,0.5898,0.0,0.6318,0.62,0.6257,0.6285,0.0,0.6074,0.6081,0.5891,0.5912,0.606,0.6325,0.6436,0.6661,0.7234,0.0,0.0,0.0,0.0,0.0,0.0,0.0,0.0,0.0,0.0,0.0,0.0,0.0,0.0,0.0,0.0,0.0,1.0721,1.0721,1.0721,1.0721,1.0721,1.0721,1.0721,1.0721,1.0721,1.0721,0.0,0.0,0.0,0.0,0.0,1.0151,1.0054,1.0012,0.9873,0.9836,0.9822,0.9822,0.9822,0.9822,0.9822,0.9822,0.9822,0.9802,0.9693,0.9534,0.9347,0.9161,0.9025,0.8885,0.8885,0.8885,0.8885,0.8885,0.8885,0.8885,0.8885,0.8885,0.8871,0.8838,0.8672,0.8472,0.8438,0.796,0.7537,0.7537,0.6429,0.5525,0.5525,0.5525,0.5525,0.5525,0.5525,0.5525,0.5525,0.5525,0.5122,0.4066,0.3715,0.3416,0.3065,0.2113,0.1511,0.1511,0.1511,0.1058,0.0,0.1008,0.2013,0.3065,0.442,0.5724,0.708,0.708,0.708,0.5518,0.585,0.6213,0.6129,0.6173,0.621,0.6129,0.5962,0.5803,0.5722,0.5823,0.5996,0.6227,0.6437,0.6756,0.0,0.0,0.0,0.0,0.0,0.0,0.0,0.0,0.0,0.0,0.0,0.0,0.0,0.0,0.0,0.0,0.0,0.0,0.0,1.0721,1.0721,1.0721,1.0721,1.0721,1.0721,1.0721,1.0721,1.0717,0.0,0.0,0.0,0.0,0.0,0.9987,0.9987,0.9899,0.9822,0.9822,0.9822,0.9822,0.9822,0.9822,0.9822,0.9822,0.9778,0.97,0.9554,0.9401,0.9249,0.91,0.9001,0.8885,0.8885,0.8885,0.8885,0.8885,0.8885,0.8885,0.8885,0.8885,0.8885,0.8885,0.8699,0.8482,0.8482,0.8241,0.7988,0.7988,0.7385,0.6933,0.6933,0.6933,0.6933,0.6933,0.6933,0.6933,0.6933,0.6933,0.6628,0.5872,0.5822,0.532,0.4066,0.3316,0.2914,0.2914,0.2914,0.2564,0.1862,0.2564,0.3566,0.492,0.5627,0.6681,0.7988,0.7988,0.7988,0.5477,0.6013,0.6518,0.6405,0.6429,0.6467,0.6419,0.5983,0.5623,0.5623,0.5755,0.5932,0.0,0.6515,0.0,0.0,0.0,0.0,0.0,0.0,0.0,0.0,0.0,0.0,0.0,0.0,0.0,0.0,0.0,0.0,0.0,0.0,0.0,0.0,1.0721,1.0721,1.0721,1.0721,1.0721,1.0721,1.0721,1.0707,1.068,1.0551,0.0,0.0,0.0,0.0,0.9953,0.9953,0.9876,0.9822,0.9822,0.9822,0.9822,0.9822,0.9822,0.9819,0.9795,0.971,0.9581,0.9405,0.9316,0.9183,0.8981,0.8885,0.8885,0.8885,0.8885,0.8885,0.8885,0.8885,0.8885,0.8885,0.8885,0.8885,0.8885,0.8699,0.8482,0.8482,0.8241,0.7988,0.7988,0.7988,0.7988,0.7988,0.7988,0.7988,0.7988,0.7988,0.7988,0.7988,0.7988,0.7988,0.7988,0.7988,0.703,0.4768,0.4416,0.4316,0.4316,0.4116,0.4116,0.4316,0.4316,0.487,0.5979,0.6229,0.6883,0.7988,0.7988,0.7988,0.5823,0.6288,0.6515,0.5881,0.605,0.6265,0.5962,0.5833,0.5769,0.5769,0.5993,0.6351,0.0,0.7054,0.7407,0.0,0.0,0.0,0.0,0.0,0.0,0.0,0.0,0.0,0.0,0.0,0.0,0.0,0.0,0.0,0.0,0.0,0.0,0.0,0.0,1.0721,1.0721,1.0721,1.0721,1.0721,1.0721,1.0653,1.0527,1.0504,1.0354,0.0,0.0,0.9936,0.9856,0.9856,0.9842,0.9822,0.9822,0.9822,0.9822,0.9822,0.9822,0.9802,0.9683,0.9629,0.9561,0.9337,0.9228,0.9183,0.8981,0.8885,0.8885,0.8885,0.8885,0.8885,0.8885,0.8885,0.8885,0.8885,0.8885,0.8885,0.8885,0.8699,0.8482,0.8482,0.8241,0.7988,0.7988,0.7988,0.7988,0.7988,0.7988,0.7988,0.7988,0.7988,0.7988,0.7988,0.7988,0.7988,0.7988,0.7988,0.7836,0.7431,0.6329,0.5677,0.5677,0.4618,0.4518,0.5677,0.5677,0.5777,0.5979,0.7135,0.7789,0.7988,0.7988,0.7988,0.5613,0.6057,0.6419,0.6074,0.645,0.6866,0.6681,0.6461,0.6288,0.6288,0.6464,0.0,0.0,0.0,0.0,0.0,0.0,0.0,0.0,0.0,0.0,0.0,0.0,0.0,0.0,0.0,0.0,0.0,0.0,0.0,0.0,0.0,0.0,0.0,0.0,0.0,1.0483,1.0483,1.0521,1.0599,1.0599,1.0521,1.0375,1.029,1.0178,0.0,0.0,0.9886,0.9822,0.9822,0.9822,0.9822,0.9822,0.9822,0.9822,0.9822,0.9771,0.9696,0.9632,0.95,0.934,0.9255,0.91,0.9025,0.8902,0.8885,0.8885,0.8885,0.8885,0.8885,0.8885,0.8885,0.8885,0.8885,0.8885,0.8885,0.8885,0.8699,0.8482,0.8482,0.8241,0.7988,0.7988,0.7988,0.7988,0.7988,0.7988,0.7988,0.7988,0.7988,0.7988,0.7988,0.7988,0.7988,0.7988,0.7988,0.7988,0.7988,0.7434,0.7083,0.7083,0.6476,0.6476,0.7083,0.7083,0.7083,0.7083,0.7686,0.7988,0.7988,0.7988,0.7988,0.5576,0.5948,0.6323,0.6429,0.6863,0.7286,0.7392,0.7051,0.6783,0.6888,0.7004,0.0,0.0,0.0,0.0,0.0,0.0,0.0,0.0,0.0,0.0,0.0,0.0,0.0,0.0,0.0,0.0,0.0,0.0,0.0,0.0,0.0,0.0,0.0,0.0,0.0,1.0283,1.028,1.0334,1.0443,1.0443,1.0368,1.0222,1.0041,0.9967,0.9926,0.9873,0.9822,0.9822,0.9822,0.9822,0.9822,0.9822,0.9822,0.9822,0.9822,0.973,0.9605,0.9568,0.9381,0.9204,0.9169,0.9028,0.8885,0.8885,0.8885,0.8885,0.8885,0.8885,0.8885,0.8885,0.8885,0.8885,0.8885,0.8885,0.8885,0.8885,0.8699,0.8482,0.8482,0.8241,0.7988,0.7988,0.7988,0.7988,0.7988,0.7988,0.7988,0.7988,0.7988,0.7988,0.7988,0.7988,0.7988,0.7988,0.7988,0.7988,0.7988,0.7988,0.7988,0.7988,0.7988,0.7988,0.7988,0.7988,0.7988,0.7988,0.7988,0.7988,0.7988,0.7988,0.7988,0.6119,0.6265,0.6402,0.6776,0.6814,0.6858,0.732,0.7132,0.6987,0.7451,0.7543,0.0,0.0,0.0,0.0,0.0,0.0,0.0,0.0,0.0,0.0,0.0,0.0,0.0,0.0,0.0,0.0,0.0,0.0,0.0,0.0,0.0,0.0,0.0,0.0,0.0,1.028,1.028,1.0287,1.0297,1.0297,1.0215,1.0004,0.9994,0.9909,0.9836,0.9825,0.9822,0.9822,0.9822,0.9822,0.9822,0.9822,0.9822,0.9822,0.9822,0.973,0.9588,0.9445,0.9347,0.9187,0.8998,0.8892,0.8885,0.8885,0.8885,0.8885,0.8885,0.8885,0.8885,0.8885,0.8885,0.8885,0.8885,0.8885,0.8885,0.8885,0.8699,0.8482,0.8482,0.8241,0.7988,0.7988,0.7988,0.7988,0.7988,0.7988,0.7988,0.7988,0.7988,0.7988,0.7988,0.7988,0.7988,0.7988,0.7988,0.7988,0.7988,0.7988,0.7988,0.7988,0.7988,0.7988,0.7988,0.7988,0.7988,0.7988,0.7988,0.7988,0.7988,0.7988,0.7988,0.5665,0.5905,0.62,0.6556,0.681,0.7092,0.7543,0.7706,0.7865,0.8218,0.8292,0.0,0.0,0.0,0.0,0.0,0.0,0.0,0.0,0.0,0.0,0.0,0.0,0.0,0.0,0.0,0.0,0.0,0.0,0.0,0.0,0.0,0.0,0.0,0.0,0.0,0.0,0.9995,0.9995,0.9995,1.009,1.0056,0.9845,0.9845,0.9876,0.9822,0.9822,0.9822,0.9822,0.9822,0.9822,0.9822,0.9822,0.9822,0.9812,0.9724,0.9595,0.9445,0.935,0.9144,0.9011,0.8902,0.8885,0.8885,0.8885,0.8885,0.8885,0.8885,0.8885,0.8885,0.8885,0.8885,0.8885,0.8885,0.8885,0.8885,0.8885,0.8699,0.8482,0.8482,0.8241,0.7988,0.7988,0.7988,0.7988,0.7988,0.7988,0.7988,0.7988,0.7988,0.7988,0.7988,0.7988,0.7988,0.7988,0.7988,0.7988,0.7988,0.7988,0.7988,0.7988,0.7988,0.7988,0.7988,0.7988,0.7988,0.7988,0.7988,0.7988,0.7988,0.7988,0.7988,0.5484,0.5793,0.6173,0.6471,0.681,0.7173,0.776,0.8045,0.8319,0.876,0.8777,0.8679,0.8574,0.0,0.0,0.0,0.0,0.0,0.0,0.0,0.0,0.0,0.0,0.0,0.0,0.0,0.0,0.0,0.0,0.0,0.0,0.0,0.0,0.0,0.0,0.0,0.0,0.9822,0.9822,0.9822,0.9866,0.9862,0.9822,0.9822,0.9822,0.9822,0.9822,0.9822,0.9822,0.9822,0.9795,0.9754,0.9754,0.9724,0.9669,0.9574,0.9442,0.935,0.9248,0.9059,0.8885,0.8885,0.8885,0.8885,0.8885,0.8885,0.8885,0.8885,0.8885,0.8885,0.8885,0.8885,0.8885,0.8885,0.8885,0.8885,0.8885,0.8699,0.8482,0.8482,0.8241,0.7988,0.7988,0.7988,0.7988,0.7988,0.7988,0.7988,0.7988,0.7988,0.7988,0.7988,0.7988,0.7988,0.7988,0.7988,0.7988,0.7988,0.7988,0.7988,0.7988,0.7988,0.7988,0.7988,0.7988,0.7988,0.7988,0.7988,0.7988,0.7988,0.7988,0.7988,0.584,0.6027,0.6371,0.6627,0.682,0.7088,0.7826,0.7992,0.8255,0.906,0.8923,0.8716,0.8716,0.0,0.0,0.0,0.0,0.0,0.0,0.0,0.0,0.0,0.0,0.0,0.0,0.0,0.0,0.0,0.0,0.0,0.0,0.0,0.0,0.0,0.0,0.0,0.0,0.9822,0.9822,0.9822,0.9822,0.9822,0.9822,0.9822,0.9822,0.9822,0.9822,0.9822,0.9819,0.9819,0.9734,0.9608,0.9608,0.9513,0.9381,0.9381,0.934,0.921,0.9207,0.9059,0.8885,0.8885,0.8885,0.8885,0.8885,0.8885,0.8885,0.8885,0.8885,0.8885,0.8885,0.8885,0.8885,0.8885,0.8885,0.8885,0.8881,0.8696,0.8482,0.8479,0.8241,0.7988,0.7988,0.7988,0.7988,0.7988,0.7988,0.7988,0.7988,0.7988,0.7988,0.7988,0.7988,0.7988,0.7988,0.7988,0.7988,0.7988,0.7988,0.7988,0.7988,0.7988,0.7988,0.7988,0.7988,0.7988,0.7988,0.7988,0.7988,0.7988,0.7988,0.7988,0.5664,0.5986,0.6371,0.6627,0.721,0.7749,0.8126,0.8364,0.8693,0.0,0.932,0.915,0.9042,0.0,0.0,0.0,0.0,0.0,0.0,0.0,0.0,0.0,0.0,0.0,0.0,0.0,0.0,0.0,0.0,0.0,0.0,0.0,0.0,0.0,0.0,0.0,0.0,0.0,0.9822,0.9822,0.9822,0.9822,0.9822,0.9822,0.9822,0.9822,0.9822,0.9764,0.9663,0.9554,0.9486,0.9449,0.9449,0.9422,0.9367,0.9316,0.9248,0.9193,0.9035,0.8974,0.8885,0.8885,0.8885,0.8885,0.8885,0.8885,0.8885,0.8885,0.8885,0.8885,0.8885,0.8885,0.8885,0.8885,0.8885,0.8854,0.8801,0.8621,0.8452,0.8353,0.8174,0.7988,0.7988,0.7988,0.7988,0.7988,0.7988,0.7988,0.7988,0.7988,0.7988,0.7988,0.7988,0.7988,0.7988,0.7988,0.7988,0.7988,0.7988,0.7988,0.7988,0.7988,0.7988,0.7988,0.7988,0.7988,0.7988,0.7988,0.7988,0.7988,0.7988,0.7988,0.5983,0.6315,0.6709,0.7129,0.7594,0.8052,0.8445,0.0,0.0,0.0,0.0,0.9357,0.0,0.0,0.0,0.0,0.0,0.0,0.0,0.0,0.0,0.0,0.0,0.0,0.0,0.0,0.0,0.0,0.0,0.0,0.0,0.0,0.0,0.0,0.0,0.0,0.0,0.0,0.0,0.9822,0.9764,0.9737,0.9737,0.9795,0.9791,0.9734,0.9673,0.9598,0.951,0.9418,0.9347,0.9347,0.9347,0.9256,0.9195,0.9103,0.9066,0.9055,0.8967,0.8885,0.8885,0.8885,0.8885,0.8885,0.8885,0.8885,0.8885,0.8885,0.8885,0.8885,0.8885,0.8885,0.8885,0.8885,0.8885,0.8841,0.8743,0.8591,0.8438,0.835,0.8147,0.7988,0.7988,0.7988,0.7988,0.7988,0.7988,0.7988,0.7988,0.7988,0.7988,0.7988,0.7988,0.7988,0.7988,0.7988,0.7988,0.7988,0.7988,0.7988,0.7988,0.7988,0.7988,0.7988,0.7988,0.7988,0.7988,0.7988,0.7988,0.7988,0.7988,0.7988,0.6546,0.6885,0.722,0.782,0.7957,0.0,0.8723,0.9042,0.9238,0.9347,0.0,0.0,0.0,0.0,0.0,0.0,0.0,0.0,0.0,0.0,0.0,0.0,0.0,0.0,0.0,0.0,0.0,0.0,0.0,0.0,0.0,0.0,0.0,0.0,0.0,0.0,0.0,0.0,0.0,0.0,0.9649,0.9588,0.9595,0.9724,0.971,0.9581,0.9425,0.9361,0.9361,0.9347,0.9259,0.919,0.919,0.9052,0.8885,0.8885,0.8885,0.8885,0.8885,0.8885,0.8885,0.8885,0.8885,0.8885,0.8885,0.8885,0.8885,0.8885,0.8885,0.8885,0.8885,0.8871,0.8861,0.8861,0.8861,0.8821,0.8723,0.857,0.8421,0.8279,0.8136,0.7988,0.7988,0.7988,0.7988,0.7988,0.7988,0.7988,0.7988,0.7988,0.7988,0.7988,0.7988,0.7988,0.7988,0.7988,0.7988,0.7988,0.7988,0.7988,0.7988,0.7988,0.7988,0.7988,0.7988,0.7988,0.7988,0.7988,0.7988,0.7988,0.7988,0.7988,0.6334,0.6658,0.0,0.7712,0.8191,0.8591,0.8817,0.8905,0.9059,0.9327,0.0,0.0,0.0,0.0,0.0,0.0,0.0,0.0,0.0,0.0,0.0,0.0,0.0,0.0,0.0,0.0,0.0,0.0,0.0,0.0,0.0,0.0,0.0,0.0,0.0,0.0,0.9476,0.9476,0.9476,0.0,0.9445,0.9432,0.9432,0.9462,0.9459,0.9422,0.9326,0.9258,0.9251,0.9079,0.9015,0.8984,0.8984,0.8964,0.8885,0.8885,0.8885,0.8885,0.8885,0.8885,0.8885,0.8885,0.8885,0.8885,0.8885,0.8885,0.8885,0.8885,0.8885,0.8885,0.8885,0.8849,0.876,0.876,0.876,0.8716,0.8564,0.8418,0.8269,0.8119,0.8012,0.7988,0.7988,0.7988,0.7988,0.7988,0.7988,0.7988,0.7988,0.7988,0.7988,0.7988,0.7988,0.7988,0.7988,0.7988,0.7988,0.7988,0.7988,0.7988,0.7988,0.7988,0.7988,0.7988,0.7988,0.7988,0.7988,0.7988,0.7988,0.7988,0.7988,0.7988,0.6332,0.6746,0.0,0.7946,0.0,0.875,0.8848,0.8885,0.8929,0.0,0.0,0.0,0.0,0.0,0.0,0.0,0.0,0.0,0.0,0.0,0.0,0.0,0.0,0.0,0.0,0.0,0.0,0.0,0.0,0.0,0.0,0.0,0.0,0.0,0.0,0.0,0.9381,0.9381,0.9381,0.9381,0.9306,0.9235,0.9171,0.9239,0.933,0.932,0.9113,0.9052,0.9045,0.8967,0.8885,0.8885,0.8885,0.8885,0.8885,0.8885,0.8885,0.8885,0.8885,0.8885,0.8885,0.8885,0.8885,0.8885,0.8885,0.8885,0.8885,0.8885,0.8885,0.8865,0.8794,0.8771,0.8693,0.8618,0.8601,0.856,0.8414,0.8323,0.8225,0.8019,0.7988,0.7988,0.7988,0.7988,0.7988,0.7988,0.7988,0.7988,0.7988,0.7988,0.7988,0.7988,0.7988,0.7988,0.7988,0.7988,0.7988,0.7988,0.7988,0.7988,0.7988,0.7988,0.7988,0.7988,0.7988,0.7988,0.7988,0.7988,0.7988,0.7988,0.7988,0.7988,0.6295,0.6837,0.7377,0.8201,0.856,0.0,0.8814,0.8865,0.0,0.0,0.0,0.0,0.0,0.0,0.0,0.0,0.0,0.0,0.0,0.0,0.0,0.0,0.0,0.0,0.0,0.0,0.0,0.0,0.0,0.0,0.0,0.0,0.0,0.0,0.0,0.9306,0.9306,0.9306,0.9306,0.9303,0.9178,0.9052,0.8888,0.9062,0.9173,0.9166,0.8991,0.8885,0.8885,0.8885,0.8885,0.8885,0.8885,0.8885,0.8885,0.8885,0.8885,0.8885,0.8885,0.8885,0.8885,0.8885,0.8885,0.8885,0.8885,0.8885,0.8878,0.8851,0.8844,0.8807,0.871,0.8652,0.8604,0.8476,0.8425,0.8381,0.834,0.8248,0.8194,0.8015,0.7988,0.7988,0.7988,0.7988,0.7988,0.7988,0.7988,0.7988,0.7988,0.7988,0.7988,0.7988,0.7988,0.7988,0.7988,0.7988,0.7988,0.7988,0.7988,0.7988,0.7988,0.7988,0.7988,0.7988,0.7988,0.7988,0.7988,0.7988,0.7988,0.7988,0.7988,0.7988,0.5633,0.0,0.7461,0.0,0.8408,0.8716,0.0,0.0,0.0,0.0,0.0,0.0,0.0,0.0,0.0,0.0,0.0,0.0,0.0,0.0,0.0,0.0,0.0,0.0,0.0,0.0,0.0,0.0,0.0,0.0,0.0,0.0,0.9127,0.8946,0.8942,0.0,0.8942,0.8942,0.8942,0.8942,0.8922,0.8902,0.8885,0.8902,0.8967,0.8964,0.8892,0.8885,0.8885,0.8885,0.8885,0.8885,0.8885,0.8885,0.8885,0.8885,0.8885,0.8885,0.8885,0.8885,0.8885,0.8885,0.8885,0.8885,0.8885,0.8885,0.8854,0.8777,0.874,0.8706,0.8554,0.8421,0.8323,0.8354,0.8194,0.813,0.8245,0.8167,0.8015,0.7992,0.7988,0.7988,0.7988,0.7988,0.7988,0.7988,0.7988,0.7988,0.7988,0.7988,0.7988,0.7988,0.7988,0.7988,0.7988,0.7988,0.7988,0.7988,0.7988,0.7988,0.7988,0.7988,0.7988,0.7988,0.7988,0.7988,0.7988,0.7988,0.7988,0.7988,0.7988,0.7988,0.5805,0.6471,0.7163,0.0,0.8137,0.8377,0.8543,0.0,0.0,0.0,0.0,0.0,0.0,0.0,0.0,0.0,0.0,0.0,0.0,0.0,0.0,0.0,0.0,0.0,0.0,0.0,0.0,0.0,0.0,0.0,0.0,0.9032,0.9005,0.8885,0.8885,0.0,0.8885,0.8885,0.8885,0.8885,0.8885,0.8885,0.8885,0.8885,0.8885,0.8885,0.8885,0.8885,0.8885,0.8885,0.8885,0.8885,0.8885,0.8885,0.8885,0.8885,0.8885,0.8885,0.8885,0.8885,0.8885,0.8885,0.8885,0.8885,0.8885,0.8885,0.8851,0.8754,0.871,0.8659,0.8425,0.8371,0.8248,0.8163,0.8039,0.8008,0.8126,0.8039,0.7988,0.7988,0.7988,0.7988,0.7988,0.7988,0.7988,0.7988,0.7988,0.7988,0.7988,0.7988,0.7988,0.7988,0.7988,0.7988,0.7988,0.7988,0.7988,0.7988,0.7988,0.7988,0.7988,0.7988,0.7988,0.7988,0.7988,0.7988,0.7988,0.7988,0.7988,0.7988,0.7988,0.7988,0.0,0.0,0.6668,0.7446,0.7793,0.8002,0.0,0.0,0.0,0.0,0.0,0.0,0.0,0.0,0.0,0.0,0.0,0.0,0.0,0.0,0.0,0.0,0.0,0.0,0.0,0.0,0.0,0.0,0.0,0.0,0.8885,0.8885,0.8885,0.8885,0.8885,0.8885,0.8885,0.8885,0.8885,0.8885,0.8885,0.8885,0.8885,0.8885,0.8885,0.8885,0.8885,0.8885,0.8885,0.8885,0.8885,0.8885,0.8885,0.8885,0.8885,0.8885,0.8885,0.8885,0.8885,0.8885,0.8885,0.8885,0.8885,0.8885,0.8885,0.8885,0.8844,0.8706,0.8652,0.8584,0.8289,0.8211,0.8184,0.8015,0.7988,0.7988,0.7988,0.7988,0.7988,0.7988,0.7988,0.7988,0.7988,0.7988,0.7988,0.7988,0.7988,0.7988,0.7988,0.7988,0.7988,0.7988,0.7988,0.7988,0.7988,0.7988,0.7988,0.7988,0.7988,0.7988,0.7988,0.7988,0.7988,0.7988,0.7988,0.7988,0.7988,0.7988,0.7988,0.7988,0.7988,0.7988,0.0,0.5511,0.0,0.6617,0.7302,0.0,0.0,0.0,0.0,0.0,0.0,0.0,0.0,0.0,0.0,0.0,0.0,0.0,0.0,0.0,0.0,0.0,0.0,0.0,0.0,0.0,0.0,0.0,0.0,0.0,0.8885,0.8885,0.8885,0.8885,0.8885,0.8885,0.8885,0.8885,0.8885,0.8885,0.8885,0.8885,0.8885,0.8885,0.8885,0.8885,0.8885,0.8885,0.8885,0.8885,0.8885,0.8885,0.8885,0.8885,0.8885,0.8885,0.8885,0.8885,0.8885,0.8885,0.8885,0.8885,0.8885,0.8885,0.8885,0.8885,0.8821,0.8577,0.8492,0.8425,0.8076,0.8002,0.8002,0.7992,0.7988,0.7988,0.7988,0.7988,0.7988,0.7988,0.7988,0.7988,0.7988,0.7988,0.7988,0.7988,0.7988,0.7988,0.7988,0.7988,0.7988,0.7988,0.7988,0.7988,0.7988,0.7988,0.7988,0.7988,0.7988,0.7988,0.7988,0.7988,0.7988,0.7988,0.7988,0.7988,0.7988,0.7988,0.7988,0.7988,0.7988,0.7988,0.0,0.0,0.0,0.6306,0.6834,0.7309,0.0,0.0,0.0,0.0,0.0,0.0,0.0,0.0,0.0,0.0,0.0,0.0,0.0,0.0,0.0,0.0,0.0,0.0,0.0,0.0,0.0,0.0,0.0,0.0,0.8885,0.8885,0.8838,0.8794,0.8834,0.8885,0.8885,0.8885,0.8885,0.8885,0.8885,0.8885,0.8885,0.8885,0.8885,0.8885,0.8885,0.8885,0.8885,0.8885,0.8885,0.8885,0.8885,0.8885,0.8885,0.8885,0.8885,0.8885,0.8885,0.8885,0.8885,0.8885,0.8817,0.8811,0.8854,0.8801,0.8621,0.8513,0.8418,0.8299,0.8042,0.7988,0.7988,0.7988,0.7988,0.7988,0.7988,0.7988,0.7988,0.7988,0.7988,0.7988,0.7988,0.7988,0.7988,0.7988,0.7988,0.7988,0.7988,0.7988,0.7988,0.7988,0.7988,0.7988,0.7988,0.7988,0.7988,0.7988,0.7988,0.7988,0.7988,0.7988,0.7988,0.7988,0.7988,0.7988,0.7988,0.7988,0.7988,0.7988,0.7988,0.7988,0.4867,0.0,0.0,0.0,0.0,0.0,0.0,0.0,0.0,0.0,0.0,0.0,0.0,0.0,0.0,0.0,0.0,0.0,0.0,0.0,0.0,0.0,0.0,0.0,0.0,0.0,0.0,0.0,0.0,0.0,0.8784,0.8784,0.8737,0.8635,0.8733,0.8784,0.8784,0.8784,0.8784,0.8784,0.8784,0.8784,0.8784,0.8784,0.8784,0.8784,0.8784,0.8845,0.8885,0.8885,0.8885,0.8885,0.8885,0.8885,0.8885,0.8885,0.8885,0.8885,0.8885,0.8885,0.8875,0.8824,0.8794,0.872,0.8771,0.8645,0.8472,0.8425,0.8395,0.8235,0.8029,0.7988,0.7988,0.7988,0.7988,0.7988,0.7988,0.7988,0.7988,0.7988,0.7988,0.7988,0.7988,0.7988,0.7988,0.7988,0.7988,0.7988,0.7988,0.7988,0.7988,0.7988,0.7988,0.7988,0.7988,0.7988,0.7988,0.7988,0.7988,0.7988,0.7988,0.7988,0.7988,0.7988,0.7988,0.7988,0.7988,0.7988,0.7988,0.7988,0.7988,0.7988,0.0,0.0,0.0,0.0,0.0,0.0,0.0,0.0,0.0,0.0,0.0,0.0,0.0,0.0,0.0,0.0,0.0,0.0,0.0,0.0,0.0,0.0,0.0,0.0,0.0,0.0,0.0,0.0,0.0,0.8482,0.8482,0.8479,0.8479,0.8482,0.8479,0.8479,0.8482,0.8482,0.8482,0.8482,0.8482,0.8482,0.8482,0.8482,0.8482,0.8482,0.8482,0.8652,0.8868,0.8868,0.8871,0.8875,0.8875,0.8878,0.8885,0.8885,0.8878,0.8875,0.8875,0.8871,0.8844,0.8754,0.8703,0.8669,0.8526,0.8476,0.8442,0.8357,0.832,0.8231,0.8029,0.7988,0.7988,0.7988,0.7988,0.7988,0.7988,0.7988,0.7988,0.7988,0.7988,0.7988,0.7988,0.7988,0.7988,0.7988,0.7988,0.7988,0.7988,0.7988,0.7988,0.7988,0.7988,0.7988,0.7988,0.7988,0.7988,0.7988,0.7988,0.7988,0.7988,0.7988,0.7988,0.7988,0.7988,0.7988,0.7988,0.7988,0.7988,0.7988,0.7988,0.7988,0.467,0.0,0.0,0.0,0.0,0.0,0.0,0.0,0.0,0.0,0.0,0.0,0.0,0.0,0.0,0.0,0.0,0.0,0.0,0.0,0.0,0.0,0.0,0.0,0.0,0.0,0.0,0.0,0.0,0.8482,0.8482,0.8384,0.8377,0.8479,0.8384,0.8377,0.8479,0.8482,0.8482,0.8482,0.8482,0.8482,0.8482,0.8482,0.8482,0.8482,0.8482,0.853,0.8608,0.8608,0.8672,0.8774,0.8774,0.8842,0.8885,0.8885,0.8814,0.8774,0.8774,0.8703,0.8601,0.856,0.8476,0.8404,0.8465,0.8333,0.8177,0.8252,0.8191,0.8092,0.8002,0.7988,0.7988,0.7988,0.7988,0.7988,0.7988,0.7988,0.7988,0.7988,0.7988,0.7988,0.7988,0.7988,0.7988,0.7988,0.7988,0.7988,0.7988,0.7988,0.7988,0.7988,0.7988,0.7988,0.7988,0.7988,0.7988,0.7988,0.7988,0.7988,0.7988,0.7988,0.7988,0.7988,0.7988,0.7988,0.7988,0.7988,0.7988,0.7988,0.7988,0.7988,0.4948,0.4986,0.0,0.0,0.0,0.0,0.0,0.0,0.0,0.0,0.0,0.0,0.0,0.0,0.0,0.0,0.0,0.0,0.0,0.0,0.0,0.0,0.0,0.0,0.0,0.0,0.0,0.0,0.8333,0.8299,0.8299,0.8218,0.8211,0.8296,0.8218,0.8214,0.8296,0.8299,0.8299,0.8299,0.8299,0.8299,0.8299,0.8299,0.8299,0.8299,0.8299,0.8299,0.8299,0.8299,0.8425,0.8615,0.8615,0.8669,0.875,0.875,0.8693,0.8615,0.8615,0.8557,0.8472,0.8414,0.8388,0.8275,0.8292,0.8177,0.8008,0.8147,0.8109,0.7988,0.7988,0.7988,0.7988,0.7988,0.7988,0.7988,0.7988,0.7988,0.7988,0.7988,0.7988,0.7988,0.7988,0.7988,0.7988,0.7988,0.7988,0.7988,0.7988,0.7988,0.7988,0.7988,0.7988,0.7988,0.7988,0.7988,0.7988,0.7988,0.7988,0.7988,0.7988,0.7988,0.7988,0.7988,0.7988,0.7988,0.7988,0.7988,0.7988,0.7988,0.7988,0.7988,0.5312,0.5332,0.0,0.0,0.0,0.0,0.6108,0.6122,0.0,0.0,0.0,0.0,0.0,0.0,0.0,0.0,0.0,0.0,0.0,0.0,0.0,0.0,0.0,0.0,0.0,0.0,0.0,0.8245,0.8116,0.7988,0.7988,0.7988,0.7988,0.7988,0.7988,0.7988,0.7988,0.7988,0.7988,0.7988,0.7988,0.7988,0.7988,0.7988,0.7988,0.7988,0.7988,0.7988,0.7988,0.7988,0.8204,0.8459,0.8459,0.8469,0.8482,0.8482,0.8472,0.8459,0.8459,0.8445,0.8411,0.8286,0.8245,0.8218,0.8029,0.7988,0.7988,0.7988,0.7988,0.7988,0.7988,0.7988,0.7988,0.7988,0.7988,0.7988,0.7988,0.7988,0.7988,0.7988,0.7988,0.7988,0.7988,0.7988,0.7988,0.7988,0.7988,0.7988,0.7988,0.7988,0.7988,0.7988,0.7988,0.7988,0.7988,0.7988,0.7988,0.7988,0.7988,0.7988,0.7988,0.7988,0.7988,0.7988,0.7988,0.7988,0.7988,0.7988,0.7988,0.7988,0.7988,0.7988,0.5875,0.0,0.0,0.0,0.0,0.0,0.0,0.5362,0.0,0.0,0.0,0.0,0.0,0.0,0.0,0.0,0.0,0.0,0.0,0.0,0.0,0.0,0.0,0.0,0.0,0.0,0.8085,0.8085,0.8008,0.7988,0.7988,0.7988,0.7988,0.7988,0.7988,0.7988,0.7988,0.7988,0.7988,0.7988,0.7988,0.7988,0.7988,0.7988,0.7988,0.7988,0.7988,0.7988,0.7988,0.7988,0.8147,0.8364,0.8364,0.8381,0.8482,0.8482,0.8411,0.8364,0.8364,0.8228,0.8069,0.8042,0.8085,0.8029,0.7998,0.7988,0.7988,0.7988,0.7988,0.7988,0.7988,0.7988,0.7988,0.7988,0.7988,0.7988,0.7988,0.7988,0.7988,0.7988,0.7988,0.7988,0.7988,0.7988,0.7988,0.7988,0.7988,0.7988,0.7988,0.7988,0.7988,0.7988,0.7988,0.7988,0.7988,0.7988,0.7988,0.7988,0.7988,0.7988,0.7988,0.7988,0.7988,0.7988,0.7988,0.7988,0.7988,0.7988,0.7988,0.7988,0.7988,0.7988,0.0,0.0,0.0,0.6162,0.0,0.0,0.0,0.0,0.0,0.0,0.0,0.0,0.0,0.0,0.0,0.0,0.0,0.0,0.0,0.0,0.0,0.0,0.0,0.0,0.0,0.0,0.7988,0.7988,0.7988,0.7988,0.7988,0.7988,0.7988,0.7988,0.7988,0.7988,0.7988,0.7988,0.7988,0.7988,0.7988,0.7988,0.7988,0.7988,0.7988,0.7988,0.7988,0.7988,0.7988,0.7988,0.8035,0.8153,0.8153,0.8197,0.8262,0.8262,0.8218,0.8153,0.8153,0.8106,0.7988,0.7988,0.7988,0.7988,0.7988,0.7988,0.7988,0.7988,0.7988,0.7988,0.7988,0.7988,0.7988,0.7988,0.7988,0.8184,0.8874,0.8482,0.8187,0.8871,0.8482,0.7988,0.7988,0.7988,0.7988,0.7988,0.7988,0.7988,0.7988,0.7988,0.7988,0.7988,0.7988,0.7988,0.7988,0.7988,0.7988,0.7988,0.7988,0.7988,0.7988,0.7988,0.7988,0.7988,0.7988,0.7988,0.7988,0.7988,0.7988,0.7988,0.7988,0.7988,0.0,0.0,0.0,0.0,0.0,0.5915,0.0,0.0,0.0,0.5962,0.0,0.0,0.0,0.0,0.0,0.0,0.0,0.0,0.0,0.0,0.0,0.0,0.0,0.0,0.0,0.0,0.7823,0.7938,0.7867,0.7867,0.7982,0.7988,0.7988,0.7988,0.7988,0.7988,0.7988,0.7988,0.7988,0.7988,0.7988,0.7988,0.7988,0.7988,0.7988,0.7988,0.7988,0.7988,0.7988,0.7988,0.7988,0.7988,0.7988,0.7988,0.7988,0.7988,0.7988,0.7988,0.7988,0.7988,0.7988,0.7988,0.7988,0.7988,0.7988,0.7988,0.7988,0.7988,0.7988,0.7988,0.7988,0.7988,0.8088,0.8333,0.8382,0.8726,1.0096,0.9509,0.9069,1.0145,0.9312,0.8283,0.8038,0.7988,0.7988,0.7988,0.7988,0.7988,0.7988,0.7988,0.7988,0.7988,0.7988,0.7988,0.7988,0.7988,0.7988,0.7988,0.7988,0.7988,0.7988,0.7988,0.7988,0.7988,0.7988,0.7988,0.7988,0.7988,0.7988,0.7988,0.7988,0.7988,0.0,0.0,0.0,0.0,0.6732,0.0,0.0,0.0,0.562,0.5165,0.0,0.0,0.0,0.0,0.0,0.0,0.0,0.0,0.0,0.0,0.0,0.0,0.0,0.0,0.0,0.0,0.0,0.7797,0.7422,0.7429,0.7961,0.7988,0.7988,0.7988,0.7988,0.7988,0.7988,0.7988,0.7988,0.7988,0.7988,0.7988,0.7988,0.7988,0.7988,0.7988,0.7988,0.7988,0.7988,0.7988,0.7988,0.7988,0.7988,0.7988,0.7988,0.7988,0.7988,0.7988,0.7988,0.7988,0.7988,0.7988,0.7988,0.7988,0.7988,0.7988,0.7988,0.7988,0.7988,0.7988,0.7988,0.7988,0.8287,0.9509,0.9756,1.0145,1.1414,1.1556,1.1507,1.1653,1.0632,0.941,0.8187,0.7988,0.7988,0.7988,0.7988,0.7988,0.7988,0.7988,0.7988,0.7988,0.7988,0.7988,0.7988,0.7988,0.7988,0.7988,0.7988,0.7988,0.7988,0.7988,0.7988,0.7988,0.7988,0.7988,0.7988,0.7988,0.7988,0.7988,0.7988,0.7988,0.0,0.0,0.0,0.0,0.0,0.0,0.0,0.0,0.5525,0.0,0.0,0.0,0.0,0.0,0.0,0.0,0.0,0.0,0.0,0.0,0.0,0.0,0.0,0.0,0.0,0.0,0.0,0.0,0.0,0.7196,0.7756,0.7862,0.7897,0.7985,0.7988,0.7988,0.7988,0.7988,0.7988,0.7988,0.7988,0.7988,0.7988,0.7988,0.7988,0.7988,0.7988,0.7988,0.7988,0.7988,0.7988,0.7988,0.7988,0.7988,0.7988,0.7988,0.7988,0.7988,0.7988,0.7988,0.7988,0.7988,0.7988,0.7988,0.7988,0.7988,0.8187,0.892,0.9167,0.9316,1.0092,1.0239,1.0386,1.0974,1.1121,1.1458,1.2764,1.2431,1.2139,1.2915,1.1404,0.9801,0.9266,0.8531,0.7988,0.7988,0.7988,0.7988,0.7988,0.7988,0.7988,0.7988,0.7988,0.7988,0.7988,0.7988,0.7988,0.7988,0.7988,0.7988,0.7988,0.7988,0.7988,0.7988,0.7988,0.7988,0.7988,0.7988,0.7988,0.7988,0.7988,0.7988,0.8926,0.0,0.0,0.0,0.0,0.0,0.0,0.0,0.0,0.0,0.0,0.0,0.0,0.0,0.0,0.0,0.0,0.0,0.0,0.0,0.0,0.0,0.0,0.0,0.0,0.0,0.0,0.0,0.0,0.0,0.7506,0.7675,0.7821,0.7924,0.7968,0.7988,0.7988,0.7988,0.7988,0.7988,0.7988,0.7988,0.7988,0.7988,0.7988,0.7988,0.7988,0.7988,0.7988,0.7988,0.7988,0.7988,0.7988,0.7988,0.7988,0.7988,0.7988,0.7988,0.7988,0.7988,0.7988,0.7988,0.7988,0.7988,0.7988,0.8237,0.8775,0.9706,1.0243,1.073,1.1653,1.1896,1.1994,1.2382,1.2431,1.2818,1.4124,1.3638,1.3253,1.422,1.2619,1.097,1.0583,0.9118,0.7988,0.7988,0.7988,0.7988,0.7988,0.7988,0.7988,0.7988,0.7988,0.7988,0.7988,0.7988,0.7988,0.7988,0.7988,0.7988,0.7988,0.7988,0.7988,0.7988,0.7988,0.7988,0.7988,0.7988,0.7988,0.7988,0.7988,0.7988,0.0,0.0,0.0,0.9081,0.0,0.0,0.0,0.0,0.5932,0.0,0.0,0.0,0.0,0.0,0.0,0.6572,0.0,0.0,0.0,0.0,0.0,0.0,0.0,0.0,0.0,0.0,0.0,0.0,0.0,0.0,0.7368,0.7522,0.7672,0.7814,0.7914,0.7988,0.7988,0.7988,0.7988,0.7988,0.7988,0.7988,0.7988,0.7988,0.7988,0.7988,0.7988,0.7988,0.7988,0.7988,0.7988,0.7988,0.7988,0.7988,0.7988,0.7988,0.7988,0.7988,0.7988,0.7988,0.7988,0.7988,0.7988,0.7988,0.7988,0.892,0.9948,0.9998,1.0877,1.1848,1.1896,1.1896,1.2237,1.3536,1.383,1.4172,1.5439,1.573,1.5683,1.573,1.4657,1.3343,1.2042,0.9702,0.7988,0.7988,0.7988,0.7988,0.7988,0.7988,0.7988,0.7988,0.7988,0.7988,0.7988,0.7988,0.7988,0.7988,0.7988,0.7988,0.7988,0.7988,0.7988,0.7988,0.7988,0.7988,0.7988,0.7988,0.7988,0.7988,0.7988,0.7988,0.0,0.0,1.2775,1.0882,0.0,0.0,0.0,0.0,0.0,0.0,0.0,0.0,0.0,0.0,0.7956,0.85,0.9177,0.0,0.0,0.0,0.0,0.0,0.0,0.0,0.0,0.0,0.0,0.0,0.0,0.0,0.0,0.7316,0.756,0.7804,0.7911,0.7988,0.7988,0.7988,0.7988,0.7988,0.7988,0.7988,0.7988,0.7988,0.7988,0.7988,0.7988,0.7988,0.7988,0.7988,0.7988,0.7988,0.7988,0.7988,0.7988,0.7988,0.7988,0.7988,0.7988,0.7988,0.7988,0.7988,0.7988,0.7988,0.7988,0.8924,1.0194,1.1023,1.2188,1.3445,1.4274,1.4465,1.4615,1.5045,1.5146,1.5289,1.573,1.5784,1.5784,1.5784,1.4752,1.3776,1.3295,1.1068,0.9019,0.8137,0.7988,0.7988,0.7988,0.7988,0.7988,0.7988,0.7988,0.7988,0.7988,0.7988,0.7988,0.7988,0.7988,0.7988,0.7988,0.7988,0.7988,0.7988,0.7988,0.7988,0.7988,0.7988,0.7988,0.7988,0.7988,0.7988,1.3307,1.3932,0.0,0.0,1.218,0.0,1.0035,0.0,0.0,0.0,0.0,0.0,0.0,0.0,0.0,0.9932,0.9946,0.0,0.0,0.0,0.0,0.0,0.0,0.0,0.0,0.0,0.686,0.6902,0.0,0.0,0.0,0.0,0.735,0.7645,0.7851,0.7934,0.7988,0.7988,0.7988,0.7988,0.7988,0.7988,0.7988,0.7988,0.7988,0.7988,0.7988,0.7988,0.7988,0.7988,0.7988,0.7988,0.7988,0.7988,0.7988,0.7988,0.7988,0.7988,0.7988,0.7988,0.8088,0.8577,0.8726,0.8775,0.9262,1.0333,1.1551,1.2377,1.3542,1.4752,1.5588,1.5784,1.5784,1.5784,1.5784,1.5784,1.5784,1.5784,1.5784,1.5784,1.514,1.4442,1.4093,1.2639,1.0901,0.8977,0.8283,0.7988,0.7988,0.7988,0.7988,0.7988,0.7988,0.7988,0.7988,0.7988,0.7988,0.7988,0.7988,0.7988,0.7988,0.7988,0.7988,0.7988,0.7988,0.7988,0.7988,0.7988,0.7988,0.7988,0.7988,0.7988]}]]